     2              OBSERVATION DATA    G (GPS)             RINEX VERSION / TYPE
TRRINEXO V2.3.4 LH UCLA / SCEC 29-JUL-94 16:08              PGM / RUN BY / DATE
DONATED TO SCEC ARCHIVE BY: NATIONAL GEODETIC SURVEY        COMMENT
PROJECT NAME: NGS hpgn 1993-1994                            COMMENT
ARCHIVED BY: SOUTHERN CALIFORNIA EARTHQUAKE CENTER (SCEC)   COMMENT
ANTENNA DELTA H: DIRECT HEIGHT TO PRE-AMP BASE (DHPAB)      COMMENT
NOTE:                                                       COMMENT
PROBLEM: NONE                                               COMMENT
FOR FURTHER INFORMATION CONTACT: DAVE JACKSON               COMMENT
UCLA / GEOLOGY BLDG., 595 CIRCLE DR E. RM 3806              COMMENT
LOS ANGELES CA 90024 DJACKSON@ESS.UCLA.EDU                  COMMENT
ANTENNA ON FIXED HEIGHT TRUCK MOUNTED KINEMATIC POLE        COMMENT
BIT 2 OF LLI (+4) FLAGS DATA COLLECTED UNDER "AS" CONDITION COMMENT
L589 1967                                                   MARKER NAME
M.L. BERGMAN NGS                                            OBSERVER / AGENCY
1531 TRIMBLE 4000 SSE 5.66                                  REC # / TYPE / VERS
16 TRIMBLE 4000 SSE                                         ANT # / TYPE
 -2328467.0000 -4825011.0000  3449366.0000                  APPROX POSITION XYZ
        2.2200        0.0000        0.0000                  ANTENNA: DELTA H/E/N
     1     1                                                WAVELENGTH FACT L1/2
     4    C1    L1    L2    P2                              # / TYPES OF OBSERV
    30                                                      INTERVAL
  1994     3    22    18    30   30.000000                  TIME OF FIRST OBS
                                                            END OF HEADER
 94  3 22 18 30 30.0000000  0  6 29 18 19 31 27 28
  21156368.227      400932.99417    277704.68119  21156370.781
  20450833.648     -200070.05018   -135401.40119  20450836.238
  21529428.734     -420211.58317   -291070.17519  21529432.109
  23069938.555     -915467.73116   -643621.84919  23069943.336
  23309515.789     -866444.99616   -593263.86519  23309520.090
  23476369.594     -269874.18116   -185368.27219  23476374.668
 94  3 22 18 31  0.0000000  0  6 29 18 19 31 27 28
  21163933.023      440686.511 7    308681.409 9  21163935.531
  20448145.750     -214196.364 8   -146408.921 9  20448148.305
  21523210.633     -452888.414 7   -316532.623 9  21523214.043
  23056887.773     -984050.665 6   -697063.031 9  23056892.203
  23296749.953     -933530.209 6   -645538.003 9  23296754.453
  23472700.609     -289155.916 6   -200393.009 9  23472705.332
 94  3 22 18 31 30.0000000  0  6 29 18 19 31 27 28
  21171580.891      480876.785 7    339998.467 9  21171583.445
  20445544.711     -227864.251 8   -157059.225 9  20445547.277
  21517032.031     -485355.771 7   -341831.851 9  21517035.453
  23043906.211    -1052269.206 6   -750220.264 9  23043910.816
  23284007.805    -1000491.728 6   -697715.755 9  23284012.234
  23469132.133     -307909.351 6   -215006.094 9  23469137.160
 94  3 22 18 32  0.0000000  0  6 29 18 19 31 27 28
  21179312.266      521504.791 7    371656.603 9  21179314.785
  20443032.789     -241063.857 8   -167344.636 9  20443035.344
  21510892.695     -517619.045 7   -366972.054 9  21510896.117
  23030993.883    -1120123.940 6   -803094.010 9  23030998.406
  23271285.016    -1067350.054 6   -749813.104 9  23271289.270
  23465659.336     -326156.750 6   -229224.861 9  23465664.398
 94  3 22 18 32 30.0000000  0  6 29 18 19 31 27 28
  21187129.625      562585.291 7    403667.343 9  21187132.320
  20440610.398     -253793.044 8   -177263.489 9  20440612.824
  21504792.234     -549677.319 7   -391952.518 9  21504795.727
  23018154.539    -1187593.390 6   -855667.532 9  23018159.051
  23258582.461    -1134101.670 6   -801827.305 9  23258586.773
  23462283.938     -343896.555 6   -243048.094 9  23462288.578
 94  3 22 18 33  0.0000000  0  6 29 18 19 31 27 28
  21195032.570      604115.466 7    436028.476 9  21195035.359
  20438276.352     -266059.815 8   -186822.013 9  20438278.766
  21498731.078     -581529.275 7   -416772.214 9  21498734.547
  23005387.492    -1254685.835 6   -907947.267 9  23005391.863
  23245898.758    -1200754.584 6   -853764.596 9  23245903.305
  23459006.344     -361120.341 6   -256469.246 9  23459011.371
 94  3 22 18 33 30.0000000  0  6 29 18 19 31 27 28
  21203021.258      646094.898 7    468739.677 9  21203023.906
  20436034.828     -277837.989 8   -195999.813 9  20436037.336
  21492709.258     -613174.903 7   -441431.139 9  21492712.703
  22992694.477    -1321388.858 6   -959923.565 9  22992698.953
  23233239.086    -1267279.832 6   -905602.412 9  23233243.352
  23455829.141     -377817.434 6   -269479.979 9  23455833.793
 94  3 22 18 34  0.0000000  0  6 29 18 19 31 27 28
  21211093.820      688515.773 7    501794.861 9  21211096.480
  20433885.031     -289135.706 8   -204803.234 9  20433887.527
  21486727.453     -644608.586 7   -465924.910 9  21486730.957
  22980074.508    -1387705.130 6  -1011598.481 9  22980079.090
  23220607.805    -1333659.074 6   -957326.459 9  23220611.824
  23452756.289     -393963.568 6   -282061.405 9  23452761.516
 94  3 22 18 34 30.0000000  0  6 29 18 19 31 27 28
  21219247.211      731363.312 7    535182.512 9  21219249.918
  20431822.742     -299974.405 8   -213248.980 9  20431825.191
  21480786.563     -675828.021 7   -490251.736 9  21480789.949
  22967527.078    -1453642.086 6  -1062977.843 9  22967531.613
  23208008.078    -1399873.687 6  -1008922.214 9  23208012.426
  23449790.258     -409551.305 6   -294207.701 9  23449795.180
 94  3 22 18 35  0.0000000  0  6 29 18 19 31 27 28
  21227485.109      774653.534 7    568915.111 9  21227487.840
  20429849.867     -310340.311 8   -221326.316 9  20429852.492
  21474889.438     -706818.308 7   -514400.003 9  21474892.824
  22955050.609    -1519204.798 6  -1114065.579 9  22955055.203
  23195441.164    -1465911.953 6  -1060380.562 9  23195445.383
  23446934.188     -424561.166 6   -305903.702 9  23446939.285
 94  3 22 18 35 30.0000000  0  6 29 18 19 31 27 28
  21235814.180      818421.676 7    603020.113 9  21235816.816
  20427969.609     -320221.719 8   -229026.117 9  20427972.129
  21469037.523     -737571.588 7   -538363.593 9  21469040.875
  22942648.617    -1584378.474 6  -1164850.175 9  22942653.129
  23182910.586    -1531762.221 6  -1111692.426 9  23182914.348
  23444190.211     -438980.552 6   -317139.589 9  23444194.945
 94  3 22 18 36  0.0000000  0  6 29 18 19 31 27 28
  21244238.133      862690.171 7    637514.996 9  21244240.875
  20426180.641     -329621.169 8   -236350.365 9  20426183.195
  21463229.359     -768092.786 7   -562146.342 9  21463232.664
  22930319.352    -1649167.299 6  -1215334.881 9  22930324.121
  23170409.688    -1597451.315 6  -1162878.711 9  23170413.543
  23441555.383     -452826.147 6   -327928.354 9  23441560.164
 94  3 22 18 36 30.0000000  0  6 29 18 19 31 27 28
  21252762.211      907484.088 7    672419.300 9  21252764.742
  20424491.750     -338497.897 8   -243267.300 9  20424494.352
  21457466.703     -798376.369 7   -585743.937 9  21457470.102
  22918065.469    -1713562.924 6  -1265513.213 9  22918069.863
  23157940.547    -1662977.533 6  -1213938.063 9  23157944.754
  23439030.000     -466096.554 6   -338268.931 9  23439035.004
 94  3 22 18 37  0.0000000  0  6 29 18 19 31 27 28
  21261387.961      952812.811 7    707740.339 9  21261390.539
  20422903.008     -346846.635 8   -249772.808 9  20422905.645
  21451745.898     -828438.453 7   -609168.932 9  21451749.203
  22905887.734    -1777556.636 6  -1315378.370 9  22905892.246
  23145497.461    -1728366.331 6  -1264890.342 9  23145501.516
  23436614.516     -478790.560 6   -348160.354 9  23436619.273
 94  3 22 18 37 30.0000000  0  6 29 18 19 31 27 28
  21270112.953      998662.773 7    743467.535 9  21270115.414
  20421416.391     -354658.877 8   -255860.275 9  20421419.086
  21446067.188     -858281.097 7   -632422.937 9  21446070.398
  22893794.055    -1841110.598 6  -1364900.867 9  22893798.473
  23133082.328    -1793607.638 6  -1315727.693 9  23133086.383
  23434310.156     -490901.341 6   -357597.307 9  23434314.914
 94  3 22 18 38  0.0000000  0  6 29 18 19 31 27 28
  21278931.867     1045006.616 7    779579.576 9  21278934.340
  20420035.445     -361916.710 8   -261515.738 9  20420038.070
  21440431.234     -887898.062 7   -655501.084 9  21440434.504
  22881788.070    -1904201.574 6  -1414062.600 9  22881792.230
  23120699.164    -1858681.273 6  -1366434.407 9  23120703.465
  23432118.492     -502417.955 6   -366571.275 9  23432122.793
 94  3 22 18 38 30.0000000  0  6 29 18 19 31 27 28
  21287836.508     1091799.914 7    816041.845 9  21287838.969
  20418759.375     -368622.407 8   -266740.962 9  20418761.918
  21434837.102     -917295.601 7   -678408.249 9  21434840.348
  22869869.742    -1966832.925 6  -1462866.187 9  22869874.289
  23108349.180    -1923582.589 6  -1417006.827 9  23108353.234
  23430042.063     -513330.392 6   -375074.453 9  23430046.574
 94  3 22 18 39  0.0000000  0  6 29 18 19 31 27 28
  21296823.813     1139028.861 7    852843.580 9  21296826.297
  20417583.617     -374801.258 8   -271555.655 9  20417586.125
  21429285.055     -946472.025 7   -701143.120 9  21429288.348
  22858040.656    -2028995.529 6  -1511304.526 9  22858045.121
  23096030.578    -1988314.936 6  -1467447.596 9  23096034.891
  23428080.547     -523637.399 6   -383105.868 9  23428085.281
 94  3 22 18 39 30.0000000  0  6 29 18 19 31 27 28
  21305892.117     1186683.555 7    889977.066 9  21305894.695
  20416507.086     -380457.601 8   -275963.203 9  20416509.512
  21423777.625     -975412.160 7   -723693.871 9  21423780.848
  22846297.000    -2090707.822 6  -1559391.977 9  22846301.277
  23083745.813    -2052870.044 6  -1517750.255 9  23083750.113
  23426231.227     -533354.216 6   -390677.391 9  23426236.020
 94  3 22 18 40  0.0000000  0  6 29 18 19 31 27 28
  21315043.711     1234774.303 7    927450.334 9  21315046.277
  20415530.578     -385589.908 8   -279962.413 9  20415533.156
  21418315.680    -1004115.754 7   -746060.306 9  21418318.949
  22834631.219    -2152010.560 6  -1607160.300 9  22834635.660
  23071489.883    -2117276.462 6  -1567937.059 9  23071493.832
  23424489.609     -542506.055 6   -397808.669 9  23424494.074
 94  3 22 18 40 30.0000000  0  6 29 18 19 31 27 28
  21324284.273     1283333.424 7    965288.573 9  21324286.688
  20414653.758     -390197.525 8   -283552.774 9  20414656.172
  21412902.594    -1032563.165 7   -768227.122 9  21412905.723
  22823042.695    -2212910.308 6  -1654614.612 9  22823047.301
  23059258.820    -2181550.226 6  -1618020.482 9  23059263.332
  23422854.352     -551100.585 6   -404505.682 9  23422859.004
 94  3 22 18 41  0.0000000  0  6 29 18 19 31 27 28
  21333620.367     1332395.884 7   1003519.020 9  21333622.898
  20413875.828     -394285.369 8   -286738.118 9  20413878.313
  21407540.477    -1060740.563 7   -790183.529 9  21407543.664
  22811531.578    -2273401.785 6  -1701750.804 9  22811536.113
  23047054.172    -2245686.691 6  -1667996.919 9  23047058.344
  23421323.344     -559144.294 6   -410773.485 9  23421328.371
 94  3 22 18 41 30.0000000  0  6 29 18 19 31 27 28
  21343051.375       28142.67817
  20413198.203                       -1953.77418
  21402226.977      -15791.83317
  22800097.344      -33996.21116
  23034874.656      -36249.88416
  23419896.750                       -4181.02416
 94  3 22 18 42  0.0000000  0  6 29 18 19 31 27 28
  21352574.367       78186.840 7     29926.41319  21352577.086
  20412619.625       -4993.150 8     -1781.39819  20412622.051
  21396960.156      -43469.695 7    -16518.51619  21396963.438
  22788742.164      -93665.429 6    -35616.84219  22788746.969
  23022719.844     -100122.364 6    -38148.24319  23022725.023
  23418576.805      -11116.648 6     -4105.22219  23418581.633
 94  3 22 18 42 30.0000000  0  6 29 18 19 31 27 28
  21362186.367      128698.296 7     69285.856 9  21362189.379
  20412135.891       -7534.992 8     -3762.137 9  20412138.398
  21391737.859      -70910.894 7    -37901.318 9  21391741.480
  22777470.414     -152902.552 6    -81775.711 9  22777475.242
  23010595.234     -163841.899 6    -87799.836 9  23010599.734
  23417368.133      -17468.880 6     -9055.086 9  23417372.434
 94  3 22 18 43  0.0000000  0  6 29 18 19 31 27 28
  21371886.094      179670.517 7    109004.432 9  21371889.176
  20411748.180       -9571.807 8     -5349.280 9  20411750.723
  21386559.031      -98125.335 7    -59107.373 9  21386562.582
  22766283.352     -211691.260 6   -127585.067 9  22766288.320
  22998500.859     -227396.932 6   -137323.216 9  22998505.441
  23416273.164      -23222.361 6    -13538.309 9  23416277.629
 94  3 22 18 43 30.0000000  0  6 29 18 19 31 27 28
  21381670.023      231084.939 7    149067.578 9  21381673.035
  20411458.930      -11093.184 8     -6534.790 9  20411461.566
  21381421.977     -125120.362 7    -80142.460 9  21381425.551
  22755181.461     -270030.581 6   -173044.242 9  22755186.512
  22986438.336     -290786.363 6   -186717.528 9  22986443.117
  23415293.398      -28370.343 6    -17549.722 9  23415298.309
 94  3 22 18 44  0.0000000  0  6 29 18 19 31 27 28
  21391538.984      282946.675 7    189479.279 9  21391542.125
  20411267.070      -12101.269 8     -7320.325 9  20411269.602
  21376327.648     -151892.062 7   -101003.514 9  21376331.152
  22744164.500     -327926.671 6   -218158.051 9  22744169.270
  22974405.586     -354020.044 6   -235990.500 9  22974409.992
  23414425.930      -32929.417 6    -21102.257 9  23414430.582
 94  3 22 18 44 30.0000000  0  6 29 18 19 31 27 28
  21401494.289      335261.910 7    230244.355 9  21401497.242
  20411173.633      -12590.994 8     -7701.948 9  20411176.117
  21371274.836     -178445.487 7   -121694.478 9  21371278.469
  22733231.914     -385376.427 6   -262924.051 9  22733236.578
  22962399.219     -417110.382 6   -285151.778 9  22962404.152
  23413668.219      -36912.196 6    -24205.728 9  23413672.613
 94  3 22 18 45  0.0000000  0  6 29 18 19 31 27 28
  21411537.188      388037.768 7    271368.358 9  21411540.188
  20411181.852      -12548.680 8     -7668.994 9  20411184.453
  21366262.500     -204783.992 7   -142217.977 9  21366266.098
  22722384.813     -442378.308 6   -307341.068 9  22722389.535
  22950419.719     -480065.982 6   -334208.046 9  22950424.207
  23413018.453      -40327.785 6    -26867.237 9  23413022.965
 94  3 22 18 45 30.0000000  0  6 29 18 19 31 27 28
  21421665.906                       30215.49117
  20411290.555         387.28918
  21361290.305                      -14780.53517
  22711620.867                      -31996.47016
  22938465.016                      -35580.89316
  23412476.664       -1544.63516
 94  3 22 18 46  0.0000000  0  6 29 18 19 31 27 28
  21431882.680       83905.316 7     22356.09019  21431885.586
  20411499.727        1486.320 8       507.27219  20411502.328
  21356355.953      -40709.614 7    -10757.11819  21356359.457
  22700943.133      -88109.239 6    -23274.16619  22700947.914
  22926535.523      -98270.653 6    -26038.47819  22926540.293
  23412042.969       -3822.449 6      -891.28119  23412047.645
 94  3 22 18 46 30.0000000  0  6 29 18 19 31 27 28
  21442186.758      138052.996 7     64549.050 9  21442189.570
  20411808.969        3111.480 8      1773.616 9  20411811.617
  21351457.523      -66451.349 7    -30815.604 9  21351461.016
  22690351.641     -143767.070 6    -66643.834 9  22690356.387
  22914633.094     -160817.822 6    -74776.506 9  22914637.816
  23411720.695       -5515.659 6     -2210.677 9  23411725.266
 94  3 22 18 47  0.0000000  0  6 29 18 19 31 27 28
  21452579.773      192668.588 7    107106.619 9  21452582.398
  20412219.328        5268.566 8      3454.447 9  20412221.965
  21346596.477      -91996.632 7    -50721.008 9  21346599.969
  22679847.586     -198965.308 6   -109655.369 9  22679852.484
  22902761.281     -223204.237 6   -123389.249 9  22902765.770
  23411508.906       -6631.005 6     -3079.784 9  23411513.430
 94  3 22 18 47 30.0000000  0  6 29 18 19 31 27 28
  21463062.234      247753.851 7    150030.156 9  21463065.047
  20412731.508        7960.135 8      5551.763 9  20412734.250
  21341772.180     -117348.927 7    -70476.038 9  21341775.648
  22669434.656     -253686.753 6   -152295.377 9  22669439.508
  22890920.164     -285432.110 6   -171878.464 9  22890924.617
  23411406.672       -7166.358 6     -3496.949 9  23411411.055
 94  3 22 18 48  0.0000000  0  6 29 18 19 31 27 28
  21473635.563      303317.275 7    193326.293 9  21473638.422
  20413343.977       11177.600 8      8058.865 9  20413346.660
  21336985.578     -142502.873 7    -90076.508 9  21336989.035
  22659114.609     -307918.386 6   -194553.708 9  22659119.273
  22879107.195     -347508.974 6   -220250.022 9  22879111.883
  23411414.602       -7126.012 6     -3465.511 9  23411419.090
 94  3 22 18 48 30.0000000  0  6 29 18 19 31 27 28
  21484296.055      359338.507 7    236979.154 9  21484298.844
  20414054.766       14914.005 8     10970.340 9  20414057.332
  21332240.766     -167438.196 7   -109506.628 9  21332244.082
  22648886.609     -361667.538 7   -236436.072 9  22648891.133
  22867321.820     -409442.309 6   -268509.727 9  22867326.250
  23411531.180       -6512.521 6     -2987.474 9  23411535.691
 94  3 22 18 49  0.0000000  0  6 29 18 19 31 27 28
  21495042.406      415810.682 7    280983.399 9  21495045.371
  20414864.195       19166.087 8     14283.640 9  20414866.820
  21327540.406     -192138.217 7   -128753.391 9  21327543.711
  22638750.609     -414932.974 7   -277941.518 9  22638755.027
  22855561.859     -471239.912 6   -316663.675 9  22855566.184
  23411758.227       -5319.909 6     -2058.170 9  23411762.844
 94  3 22 18 49 30.0000000  0  6 29 18 19 31 27 28
  21505868.313      472701.264 7    325313.673 9  21505871.289
  20415766.414       23907.979 8     17978.611 9  20415769.062
  21322880.828     -216625.195 8   -147834.154 9  21322884.145
  22628701.313     -467741.863 7   -319091.208 9  22628705.602
  22843822.875     -532928.732 6   -364732.865 9  22843827.258
  23412096.125       -3543.598 6      -674.032 9  23412100.566
 94  3 22 18 50  0.0000000  0  6 29 18 19 31 27 28
  21516773.078      530005.806 7    369966.509 9  21516776.172
  20416762.602       29143.011 8     22057.848 9  20416765.379
  21318265.016     -240881.651 8   -166735.287 9  21318268.297
  22618735.211     -520113.325 7   -359900.059 9  22618739.488
  22832105.094     -594505.639 6   -412714.849 9  22832109.605
  23412544.258       -1189.548 6      1160.294 9  23412548.816
 94  3 22 18 50 30.0000000  0  6 29 18 19 31 27 28
  21527755.563      587721.223 7    414939.501 9  21527758.586
  20417853.914       34877.958 8     26526.624 9  20417856.656
  21313692.625     -264908.544 8   -185457.548 9  21313696.035
  22608851.422     -572051.487 7   -400371.272 9  22608855.676
  22820412.156     -655952.210 6   -460595.270 9  22820416.434
  23413100.711        1733.876 6      3438.285 9  23413105.211
 94  3 22 18 51  0.0000000  0  6 29 18 19 31 27 28
  21538820.203      645863.403 7    460245.037 9  21538823.285
  20419040.242       41112.107 8     31384.387 9  20419042.926
  21309159.969     -288728.980 8   -204018.929 9  21309163.414
  22599051.750     -623550.126 7   -440500.000 9  22599056.016
  22808745.891     -717258.506 6   -508366.394 9  22808750.414
  23413764.531        5223.642 6      6157.578 9  23413768.797
 94  3 22 18 51 30.0000000  0  6 29 18 19 31 27 28
  21549971.523      704464.385 7    505908.081 9  21549974.664
  20420325.898       47867.708 8     36648.477 9  20420328.547
  21304668.898     -312328.886 7   -222408.470 9  21304672.367
  22589339.969     -674584.957 7   -480267.324 9  22589344.234
  22797108.578     -778412.801 6   -556019.070 9  22797112.691
  23414537.844        9287.726 6      9324.400 9  23414542.332
 94  3 22 18 52  0.0000000  0  6 29 18 19 31 27 28
  21561208.656      763515.360 7    551921.766 9  21561211.797
  20421707.672       55130.638 8     42307.889 9  20421710.273
  21300217.805     -335720.639 8   -240635.807 9  21300221.273
  22579717.648     -725149.169 6   -519667.936 9  22579721.844
  22785497.797     -839428.163 6   -603563.498 9  22785501.711
  23415416.727       13906.571 6     12923.492 9  23415421.449
 94  3 22 18 52 30.0000000  0  6 29 18 19 31 27 28
  21572532.617      823023.095 7    598291.364 9  21572535.816
  20423186.250       62899.312 8     48361.389 9  20423188.969
  21295804.242     -358913.259 8   -258707.983 9  21295807.582
  22570189.953     -775219.586 7   -558683.784 9  22570194.113
  22773914.648     -900297.027 6   -650993.759 9  22773918.785
  23416407.430       19112.201 6     16979.822 9  23416411.789
 94  3 22 18 53  0.0000000  0  6 29 18 19 31 27 28
  21583943.383      882986.094 7    645015.711 9  21583946.324
  20424761.711       71177.510 8     54811.916 9  20424764.383
  21291428.820     -381906.018 8   -276624.423 9  21291432.324
  22560756.453     -824790.573 6   -597310.465 9  22560760.754
  22762356.773     -961036.069 6   -698322.877 9  22762360.898
  23417512.281       24918.556 6     21504.247 9  23417516.688
 94  3 22 18 53 30.0000000  0  6 29 18 19 31 27 28
  21595439.859      943400.949 7    692092.156 9  21595443.023
  20426437.297       79983.479 8     61673.697 9  20426439.992
  21287093.508     -404688.787 8   -294377.238 9  21287097.035
  22551420.609     -873850.528 6   -635538.958 9  22551425.098
  22750822.859    -1021645.898 6   -745551.303 9  22750827.160
  23418735.133       31343.739 6     26510.871 9  23418739.633
 94  3 22 18 54  0.0000000  0  6 29 18 19 31 27 28
  21607019.422     1004251.606 7    739508.178 9  21607022.457
  20428211.180       89305.161 8     68937.329 9  20428213.828
  21282795.484     -427275.415 8   -311977.215 9  21282798.977
  22542181.141     -922403.988 6   -673372.777 9  22542185.383
  22739316.289    -1082114.081 6   -792669.350 9  22739320.391
  23420073.531       38377.861 6     31991.994 9  23420078.102
 94  3 22 18 54 30.0000000  0  6 29 18 19 31 27 28
  21618684.914     1065553.832 7    787276.072 9  21618688.090
  20430089.281       99174.829 8     76627.961 9  20430092.012
  21278536.977     -449653.716 8   -329414.858 9  21278540.469
  22533038.211     -970450.702 6   -710811.752 9  22533042.629
  22727839.234    -1142425.961 6   -839665.598 9  22727843.465
  23421529.227       46026.967 6     37952.325 9  23421533.809
 94  3 22 18 55  0.0000000  0  6 29 18 19 31 27 28
  21630435.016     1127301.387 7    835390.980 9  21630438.168
  20432074.664      109608.456 8     84758.044 9  20432077.395
  21274318.922     -471818.789 8   -346686.344 9  21274322.520
  22523991.055    -1017994.329 6   -747858.702 9  22523995.473
  22716391.813    -1202584.655 6   -886542.490 9  22716396.008
  23423096.141       54262.347 6     44369.495 9  23423100.758
 94  3 22 18 55 30.0000000  0  6 29 18 19 31 27 28
  21642271.609     1189501.729 7    883858.705 9  21642274.785
  20434166.805      120602.082 8     93324.487 9  20434169.535
  21270142.453     -493766.791 8   -363788.681 9  21270146.086
  22515040.414    -1065029.865 6   -784509.748 9  22515044.820
  22704974.281    -1262583.794 6   -933295.040 9  22704978.441
  23424771.977       63069.296 6     51232.036 9  23424776.969
 94  3 22 18 56  0.0000000  0  6 29 18 19 31 27 28
  21654190.656     1252136.848 7    932665.222 9  21654193.891
  20436363.273      132144.813 8    102318.800 9  20436366.016
  21266005.773     -515505.759 8   -380728.139 9  21266009.500
  22506184.641    -1111567.161 7   -820772.559 9  22506189.094
  22693584.117    -1322437.478 6   -979934.251 9  22693588.488
  23426551.758       72421.415 6     58519.376 9  23426556.551
 94  3 22 18 56 30.0000000  0  6 29 18 19 31 27 28
  21666190.461     1315195.602 7    981801.834 9  21666193.613
  20438663.563      144231.929 8    111737.312 9  20438666.340
  21261908.445     -537037.560 8   -397506.171 9  21261912.043
  22497422.695    -1157611.237 7   -856651.044 9  22497427.148
  22682217.875    -1382167.301 6  -1026476.945 9  22682221.965
  23428434.914       82316.428 6     66229.763 9  23428439.578
 94  3 22 18 57  0.0000000  0  6 29 18 19 31 27 28
  21678272.109     1378684.740 7   1031273.816 9  21678275.227
  20441062.594      156839.062 8    121561.026 9  20441065.348
  21257850.805     -558359.482 7   -414120.658 9  21257854.496
  22488757.703    -1203144.652 7   -892131.615 9  22488762.461
  22670873.938    -1441781.275 6  -1072929.355 9  22670878.391
  23430420.313       92750.567 6     74360.241 9  23430424.906
 94  3 22 18 57 30.0000000  0  6 29 18 19 31 27 28
  21690435.523     1442603.595 7   1081080.637 9  21690438.734
  20443557.109      169947.882 8    131775.669 9  20443559.957
  21253831.102     -579483.800 7   -430581.167 9  21253834.734
  22480188.359    -1248178.621 7   -927223.013 9  22480192.930
  22659549.359    -1501290.869 6  -1119300.432 9  22659553.906
  23432511.297      103738.256 6     82922.045 9  23432515.891
 94  3 22 18 58  0.0000000  0  6 29 18 19 31 27 28
  21702677.563     1506935.994 7   1131209.703 9  21702680.738
  20446146.242      183554.049 8    142377.855 9  20446149.031
  21249847.813     -600415.489 7   -446891.574 9  21249851.480
  22471711.742    -1292723.027 7   -961932.931 9  22471716.184
  22648244.734    -1560697.573 6  -1165591.338 9  22648248.953
  23434709.938      115290.254 6     91923.577 9  23434714.332
 94  3 22 18 58 30.0000000  0  6 29 18 19 31 27 28
  21715001.898     1571700.085 7   1181675.156 9  21715005.098
  20448829.938      197656.623 8    153366.850 9  20448832.820
  21245902.570     -621148.473 7   -463047.152 9  21245906.238
  22463328.039    -1336780.818 7   -996263.670 9  22463332.234
  22636960.359    -1619997.017 6  -1211798.670 9  22636964.637
  23437017.758      127418.798 6    101374.370 9  23437022.035
 94  3 22 18 59  0.0000000  0  6 29 18 19 31 27 28
  21727410.195     1636905.880 7   1232484.788 9  21727413.582
  20451609.430      212265.034 8    164749.999 9  20451612.359
  21241996.016     -641676.905 7   -479043.337 9  21241999.777
  22455036.445    -1380351.712 7  -1030215.009 9  22455040.852
  22625698.297    -1679178.996 6  -1257914.476 9  22625702.762
  23439437.625      140135.260 6    111283.276 9  23439442.055
 94  3 22 18 59 30.0000000  0  6 29 18 19 31 27 28
  21739897.680     1702527.953 7   1283618.793 9  21739901.043
  20454487.297      227386.894 8    176533.243 9  20454490.215
  21238127.320     -662007.546 7   -494885.382 9  21238130.918
  22446834.664    -1423453.960 7  -1063801.163 9  22446839.164
  22614459.047    -1738241.720 6  -1303937.366 9  22614463.277
  23441968.016      153432.197 6    121644.505 9  23441972.727
 94  3 22 19  0  0.0000000  0  6 29 18 19 31 27 28
  21752463.750     1768563.062 7   1335074.640 9  21752467.395
  20457464.375      243031.544 8    188723.852 9  20457467.316
  21234297.422     -682133.040 7   -510567.584 9  21234301.031
  22438724.102    -1466075.402 7  -1097012.670 9  22438728.566
  22603243.914    -1797177.440 6  -1349861.288 9  22603248.332
  23444605.836      167295.458 6    132447.016 9  23444610.254
 94  3 22 19  0 30.0000000  0  6 29 18 19 31 27 28
  21765111.055     1835024.969 7   1386863.055 9  21765114.664
  20460544.000      259214.472 8    201333.899 9  20460546.801
  21230506.875     -702052.395 7   -526089.161 9  21230510.555
  22430708.633    -1508195.556 7  -1129833.556 9  22430712.922
  22592054.289    -1855979.232 6  -1395680.853 9  22592058.895
  23447353.117      181732.375 6    143696.531 9  23447357.758
 94  3 22 19  1  0.0000000  0  6 29 18 19 31 27 28
  21777837.672     1901902.534 7   1438975.362 9  21777841.188
  20463727.234      275942.620 8    214368.786 9  20463730.141
  21226756.445     -721762.095 7   -541447.378 9  21226760.066
  22422791.125    -1549802.487 7  -1162254.528 9  22422795.332
  22580891.672    -1914639.412 6  -1441390.078 9  22580896.031
  23450209.906      196744.883 6    155394.550 9  23450214.512
 94  3 22 19  1 30.0000000  0  6 29 18 19 31 27 28
  21790641.891     1969189.433 7   1491406.632 9  21790645.488
  20467012.977      293209.262 8    227823.288 9  20467015.824
  21223041.781     -741281.807 7   -556657.543 9  21223045.379
  22414973.148    -1590886.491 7  -1194268.021 9  22414977.531
  22569754.352    -1973166.477 6  -1486995.568 9  22569758.828
  23453175.320      212326.802 6    167536.275 9  23453179.773
 94  3 22 19  2  0.0000000  0  7 29  2 18 19 31 27 28
  21803522.977     2036879.269 7   1544151.876 9  21803526.516
  24595800.742      -84939.839 5
  20470399.469      311005.918 8    241690.779 9  20470402.234
  21219359.766     -760630.250 7   -571734.248 9  21219363.457
  22407255.328    -1631442.269 7  -1225869.901 9  22407259.805
  22558640.148    -2031571.141 6  -1532505.688 9  22558644.391
  23456249.000      228481.010 6    180123.942 9  23456253.512
 94  3 22 19  2 30.0000000  0  7 29  2 18 19 31 27 28
  21816481.148     2104974.761 7   1597213.217 9  21816484.617
  24579108.453     -172659.112 5    -29603.53919  24579116.414
  20473884.164      329317.812 8    255959.758 9  20473886.953
  21215710.664     -779807.679 7   -586677.690 9  21215714.309
  22399638.313    -1671470.810 7  -1257060.948 9  22399642.531
  22547549.422    -2089852.693 6  -1577919.860 9  22547553.582
  23459434.531      245223.174 6    193169.752 9  23459439.125
 94  3 22 19  3  0.0000000  0  7 29  2 18 19 31 27 28
  21829514.867     2173466.530 7   1650583.344 9  21829518.441
  24562444.906     -260222.503 5    -97834.622 9  24562453.477
  20477463.617      348126.929 8    270616.179 9  20477466.418
  21212092.445     -798820.220 7   -601492.662 9  21212096.113
  22392118.156    -1710989.167 7  -1287854.442 9  22392122.457
  22536479.320    -2148026.979 6  -1623250.473 9  22536483.691
  23462730.328      262541.209 6    206664.289 9  23462735.086
 94  3 22 19  3 30.0000000  0  7 29  2 18 19 31 27 28
  21842624.273     2242358.660 7   1704265.444 9  21842627.883
  24545815.508     -347611.901 5   -165930.112 9  24545823.375
  20481137.898      367435.980 8    285662.161 9  20481140.676
  21208504.852     -817673.224 7   -616183.316 9  21208508.508
  22384695.430    -1749996.755 7  -1318249.926 9  22384699.754
  22525430.898    -2206086.316 6  -1668491.495 9  22525435.270
  23466136.289      280437.691 6    220609.562 9  23466141.000
 94  3 22 19  4  0.0000000  0  7 29  2 18 19 31 27 28
  21855810.375     2311650.190 7   1758258.766 9  21855813.973
  24529220.016     -434822.711 5   -233886.479 9  24529227.730
  20484907.180      387243.249 8    301096.366 9  20484909.980
  21204950.938     -836349.084 8   -630735.944 9  21204954.547
  22377369.719    -1788491.855 7  -1348246.075 9  22377374.195
  22514404.953    -2264028.771 6  -1713641.452 9  22514409.172
  23469650.414      298906.518 6    235000.823 9  23469654.949
 94  3 22 19  4 30.0000000  0  7 29  2 18 19 31 27 28
  21869076.234     2381362.727 7   1812580.149 9  21869079.750
  24512660.672     -521841.931 5   -301693.503 9  24512668.996
  20488771.789      407552.284 8    316921.551 9  20488774.602
  21201433.164     -854835.537 7   -645140.978 9  21201436.855
  22370144.969    -1826459.626 7  -1377831.311 9  22370149.223
  22503402.102    -2321848.905 6  -1758696.076 9  22503406.484
  23473274.094      317947.014 6    249837.535 9  23473278.758
 94  3 22 19  5  0.0000000  0  7 29  2 18 19 31 27 28
  21882421.945     2451494.358 7   1867228.095 9  21882425.555
  24496140.430     -608656.087 5   -369340.772 9  24496148.754
  20492735.383      428381.843 8    333152.343 9  20492738.266
  21197951.367     -873132.107 7   -659398.053 9  21197955.105
  22363023.984    -1863880.585 7  -1406990.456 9  22363028.215
  22492424.883    -2379534.094 6  -1803645.561 9  22492429.020
  23477004.414      337550.895 6    265113.260 9  23477009.230
 94  3 22 19  5 30.0000000  0  7 29  2 18 19 31 27 28
  21895847.492     2522045.563 7   1922202.988 9  21895851.172
  24479662.531     -695248.955 5   -436815.606 9  24479670.445
  20496800.500      449743.874 8    349798.051 9  20496803.418
  21194506.570     -891235.153 7   -673504.336 9  21194510.250
  22356008.797    -1900744.489 7  -1435715.533 9  22356013.156
  22481475.781    -2437070.674 6  -1848479.234 9  22481480.000
  23480842.023      357718.148 6    280827.973 9  23480846.746
 94  3 22 19  6  0.0000000  0  7 29  2 18 19 31 27 28
  21909354.406     2593025.818 7   1977512.197 9  21909358.145
  24463228.391     -781610.339 5   -504110.089 9  24463236.387
  20500968.305      471645.529 8    366864.239 9  20500971.410
  21191103.375     -909120.457 7   -687440.951 9  21191106.973
  22349101.406    -1937043.438 7  -1464000.386 9  22349105.672
  22470555.195    -2494459.492 6  -1893197.780 9  22470559.402
  23484788.375      378454.760 6    296986.338 9  23484793.215
 94  3 22 19  6 30.0000000  0  7 29  2 18 19 31 27 28
  21922940.000     2664417.610 7   2033142.088 9  21922943.773
  24446837.438     -867742.943 5   -571226.263 9  24446845.480
  20505237.969      494083.307 8    384348.188 9  20505240.945
  21187739.711     -926795.624 7   -701213.819 9  21187743.332
  22342295.789    -1972807.709 7  -1491868.613 9  22342300.102
  22459661.773    -2551706.639 6  -1937805.928 9  22459665.746
  23488842.398      399759.254 6    313587.210 9  23488847.344
 94  3 22 19  7  0.0000000  0  7 29  2 18 19 31 27 28
  21936600.922     2736205.238 7   2089080.422 9  21936604.578
  24430489.398     -953651.186 5   -638167.603 9  24430496.809
  20509609.930      517058.146 8    402250.631 9  20509612.941
  21184416.305     -944260.082 7   -714822.500 9  21184419.938
  22335587.102    -2008061.193 7  -1519338.826 9  22335591.438
  22448794.969    -2608810.347 6  -1982302.302 9  22448799.094
  23493004.680      421633.068 6    330631.723 9  23493009.414
 94  3 22 19  7 30.0000000  0  7 29  2 18 19 31 27 28
  21950334.320     2808374.958 7   2145316.492 9  21950338.012
  24414179.383    -1039365.961 5   -704958.189 9  24414187.766
  20514081.320      540554.252 8    420559.251 9  20514084.402
  21181132.258     -961519.062 7   -728271.073 9  21181135.844
  22328971.719    -2042824.914 7  -1546427.405 9  22328975.809
  22437949.594    -2665804.232 7  -2026713.103 9  22437953.766
  23497273.844      444066.119 6    348112.002 9  23497278.742
 94  3 22 19  8  0.0000000  0  7 29  2 18 19 31 27 28
  21964142.945     2880940.620 7   2201861.084 9  21964146.813
  24397903.422    -1124892.539 5   -771602.160 9  24397911.137
  20518652.703      564577.536 8    439278.659 9  20518655.832
  21177888.539     -978563.378 7   -741552.376 9  21177892.066
  22322454.359    -2077073.999 7  -1573114.976 9  22322458.496
  22427123.828    -2722693.046 7  -2071042.016 9  22427127.977
  23501652.805      467077.912 6    366043.254 9  23501657.668
 94  3 22 19  8 30.0000000  0  7 29  2 18 19 31 27 28
  21978027.070     2953900.762 7   2258713.058 9  21978030.973
  24381661.242    -1210243.204 5   -838109.067 9  24381669.684
  20523321.875      589113.460 8    458397.524 9  20523325.027
  21174681.984     -995414.745 8   -754683.326 9  21174685.430
  22316037.242    -2110794.678 7  -1599390.807 9  22316041.437
  22416317.094    -2779483.923 7  -2115294.631 9  22416321.043
  23506141.164      490664.159 6    384422.130 9  23506146.016
 94  3 22 19  9  0.0000000  0  7 29  2 18 19 31 27 28
  21991986.883     3027262.056 7   2315877.619 9  21991990.750
  24365456.531    -1295402.057 5   -904466.510 9  24365463.965
  20528087.516      614156.933 8    477911.878 9  20528090.691
  21171511.250    -1012077.047 8   -767666.948 9  21171514.801
  22309725.836    -2143961.471 7  -1625235.046 9  22309729.949
  22405529.828    -2836171.951 7  -2159467.091 9  22405533.824
  23510736.781      514813.884 6    403240.086 9  23510741.656
 94  3 22 19  9 30.0000000  0  7 29  2 18 19 31 27 28
  22006022.656     3101018.339 7   2373349.965 9  22006026.570
  24349290.297    -1380353.921 5   -970662.669 9  24349298.914
  20532949.906      639708.738 8    497822.342 9  20532953.059
  21168377.531    -1028545.836 8   -780499.785 9  21168380.906
  22303523.141    -2176559.804 7  -1650636.332 9  22303527.301
  22394759.922    -2892767.320 7  -2203567.347 9  22394763.812
  23515437.773      539515.786 6    422488.317 9  23515442.438
 94  3 22 19 10  0.0000000  0  7 29  2 18 19 31 27 28
  22020135.055     3175180.107 7   2431138.268 9  22020138.898
  24333170.344    -1465063.410 5  -1036669.960 9  24333177.789
  20537909.688      665773.027 8    518132.139 9  20537912.816
  21165281.813    -1044814.002 8   -793176.294 9  21165285.164
  22297429.336    -2208580.768 7  -1675587.724 9  22297433.484
  22384013.773    -2949238.072 7  -2247570.507 9  22384017.781
  23520244.563      564779.273 6    442174.130 9  23520249.473
 94  3 22 19 10 30.0010000  0  7 29  2 18 19 31 27 28
  22034321.575     3249730.411 7   2489229.326 9  22034325.653
  24317097.919    -1549526.401 5  -1102485.207 9  24317105.681
  20542967.474      692351.970 8    538842.965 9  20542970.532
  21162224.356    -1060880.455 8   -805695.624 9  21162227.638
  22291441.286    -2240047.928 7  -1700107.578 9  22291445.329
  22373294.958    -3005564.976 7  -2291461.572 9  22373299.177
  23525155.896      590585.749 6    462283.049 9  23525160.735
 94  3 22 19 11  0.0010000  0  7 29  2 18 19 31 27 28
  22048579.325     3324654.299 7   2547611.493 9  22048583.263
  24301072.528    -1633739.743 5  -1168105.914 9  24301080.829
  20548125.138      719454.950 8    559962.135 9  20548128.196
  21159204.942    -1076748.334 8   -818060.222 9  21159208.118
  22285555.185    -2270979.686 7  -1724210.239 9  22285559.063
  22362604.489    -3061744.243 7  -2335237.597 9  22362608.603
  23530168.505      616927.322 6    482808.939 9  23530173.298
 94  3 22 19 11 30.0010000  0  7 29  2 18 19 31 27 28
  22062907.911     3399952.034 7   2606284.965 9  22062911.872
  24285087.880    -1717740.088 5  -1233560.676 9  24285096.380
  20553382.138      747079.798 8    581487.948 9  20553385.231
  21156219.341    -1092438.398 8   -830286.261 9  21156222.575
  22279768.958    -2301386.460 7  -1747903.830 9  22279773.177
  22351938.185    -3117795.564 7  -2378913.929 9  22351942.239
  23535284.333      643813.397 6    503759.105 9  23535288.974
 94  3 22 19 12  0.0010000  0  7 29  2 18 19 31 27 28
  22077310.942     3475639.392 7   2665262.034 9  22077314.821
  24269138.802    -1801553.029 5  -1298869.398 9  24269145.552
  20558736.013      775214.744 8    603411.243 9  20558739.083
  21153263.747    -1107970.275 8   -842389.038 9  21153267.028
  22274081.388    -2331275.526 7  -1771194.007 9  22274085.501
  22341296.966    -3173715.685 7  -2422488.028 9  22341301.079
  23540506.333      671251.926 6    525139.756 9  23540510.810
 94  3 22 19 12 30.0010000  0  7 29  2 18 19 31 27 28
  22091788.380     3551718.276 7   2724544.192 9  22091792.470
  24253223.638    -1885187.006 5  -1364038.677 9  24253232.126
  20564189.567      803872.540 8    625741.960 9  20564192.603
  21150336.919    -1123350.780 8   -854373.857 9  21150340.177
  22268492.497    -2360644.314 7  -1794078.768 9  22268496.728
  22330677.442    -3229522.365 7  -2465973.729 9  22330681.462
  23545833.567      699248.102 6    546954.941 9  23545838.278
 94  3 22 19 13  0.0010000  0  7 29  2 18 19 31 27 28
  22106346.278     3628220.874 7   2784156.508 9  22106350.356
  24237345.146    -1968628.879 5  -1429058.268 9  24237353.517
  20569744.411      833065.044 8    648489.326 9  20569747.353
  21147440.810    -1138569.085 8   -866232.282 9  21147444.032
  22263007.271    -2389469.621 7  -1816540.031 9  22263011.560
  22320077.560    -3285223.995 7  -2509377.577 9  22320081.778
  23551271.489      727824.230 6    569222.023 9  23551275.896
 94  3 22 19 13 30.0010000  0  7 29  2 18 19 31 27 28
  22120985.692     3705149.892 7   2844101.101 9  22120989.794
  24221505.294    -2051863.674 5  -1493916.493 9  24221513.712
  20575401.177      862791.138 8    671652.476 9  20575404.153
  21144580.099    -1153602.397 8   -877946.561 9  21144583.286
  22257629.122    -2417730.989 7  -1838561.861 9  22257633.423
  22309501.091    -3340803.833 7  -2552686.526 9  22309505.228
  23556822.966      756995.326 6    591952.707 9  23556827.630
 94  3 22 19 14  0.0010000  0  7 29  2 18 19 31 27 28
  22135706.013     3782505.499 7   2904378.105 9  22135710.032
  24205713.653    -2134851.341 5  -1558582.134 9  24205722.435
  20581162.716      893067.421 8    695244.344 9  20581165.751
  21141760.817    -1168418.108 8   -889491.281 9  21141763.970
  22252362.052    -2445410.661 7  -1860130.423 9  22252366.528
  22298952.450    -3396237.867 7  -2595881.853 9  22298956.646
  23562486.794      786760.523 6    615146.332 9  23562491.200
 94  3 22 19 14 30.0010000  0  7 29  2 18 19 31 27 28
  22150503.060     3860264.795 7   2964969.668 9  22150507.126
  24189972.122    -2217574.446 5  -1623041.665 9  24189980.692
  20587030.536      923902.454 8    719271.605 9  20587033.513
  21138985.849    -1183001.390 8   -900854.890 9  21138988.989
  22247208.771    -2472491.747 7  -1881232.543 9  22247213.060
  22288432.224    -3451521.361 7  -2638959.883 9  22288436.396
  23568263.817      817118.328 6    638801.720 9  23568268.505
 94  3 22 19 15  0.0010000  0  7 29  2 18 19 31 27 28
  22165375.419     3938416.989 7   3025867.383 9  22165379.345
  24174277.536    -2300047.814 5  -1687306.569 9  24174285.919
  20593000.521      955274.660 8    743717.435 9  20593003.497
  21136255.450    -1197349.749 8   -912035.437 9  21136258.591
  22242168.606    -2498976.765 7  -1901870.192 9  22242172.907
  22277942.778    -3506643.045 7  -2681911.830 9  22277946.774
  23574150.974      848053.041 6    662906.650 9  23574155.392
 94  3 22 19 15 30.0010000  0  7 29  2 18 19 31 27 28
  22180319.427     4016947.937 7   3087060.229 9  22180323.528
  24158630.302    -2382274.454 5  -1751379.212 9  24158638.099
  20599070.591      987171.494 8    768572.066 9  20599073.462
  21133567.669    -1211473.392 8   -923040.877 9  21133570.786
  22237241.825    -2524867.594 7  -1922044.841 9  22237246.103
  22267485.091    -3561600.496 7  -2724735.808 9  22267489.310
  23580146.286      879561.779 6    687458.862 9  23580151.103
 94  3 22 19 16  0.0010000  0  7 29  2 18 19 31 27 28
  22195334.763     4095854.679 7   3148545.902 9  22195338.853
  24143028.294    -2464266.753 5  -1815269.250 9  24143035.962
  20605239.106     1019589.142 8    793832.529 9  20605242.118
  21130919.177    -1225392.416 8   -933886.874 9  21130922.247
  22232425.271    -2550179.432 7  -1941768.333 9  22232429.606
  22257054.005    -3616415.327 7  -2767448.654 9  22257058.259
  23586248.106      911626.652 6    712444.448 9  23586252.958
 94  3 22 19 16 30.0010000  0  7 29  2 18 19 31 27 28
  22210423.013     4175143.709 7   3210329.458 9  22210427.032
  24127467.106    -2546041.128 5  -1878989.489 9  24127475.231
  20611503.880     1052510.361 8    819485.386 9  20611506.915
  21128306.192    -1239124.252 8   -944587.015 9  21128309.345
  22227715.528    -2574928.574 7  -1961053.358 9  22227719.712
  22246648.216    -3671097.829 7  -2810058.382 9  22246652.212
  23592456.216      944252.310 6    737866.984 9  23592460.974
 94  3 22 19 17  0.0010000  0  7 29  2 18 19 31 27 28
  22225585.763     4254823.609 7   3272417.591 9  22225589.806
  24111945.513    -2627605.114 5  -1942545.776 9  24111953.052
  20617864.388     1085934.584 8    845530.189 9  20617867.294
  21125726.161    -1252682.102 8   -955151.584 9  21125729.290
  22223112.122    -2599120.064 7  -1979903.851 9  22223116.282
  22236265.661    -3725657.933 7  -2852572.732 9  22236269.716
  23598770.372      977431.721 6    763721.026 9  23598775.142
 94  3 22 19 17 30.0010000  0  7 29  2 18 19 31 27 28
  22240823.020     4334895.543 7   3334811.203 9  22240827.075
  24096466.927    -2708945.910 5  -2005928.119 9  24096475.802
  20624323.591     1119876.313 8    871978.253 9  20624326.567
  21123180.817    -1266057.922 8   -965574.307 9  21123184.005
  22218617.200    -2622740.528 7  -1998309.384 9  22218621.524
  22225903.333    -3780112.899 7  -2895005.157 9  22225907.423
  23605191.661     1011176.627 6    790015.713 9  23605196.337
 94  3 22 19 18  0.0010000  0  7 29  2 18 19 31 27 28
  22256134.669     4415359.340 7   3397510.164 9  22256138.876
  24081031.794    -2790058.672 5  -2069132.796 9  24081039.169
  20630883.817     1154351.298 8    898841.837 9  20630886.864
  21120672.130    -1279240.588 8   -975846.518 9  21120675.212
  22214233.919    -2645774.321 7  -2016257.776 9  22214238.220
  22215561.669    -3834459.663 7  -2937353.263 9  22215565.724
  23611722.544     1045494.541 6    816756.899 9  23611727.337
 94  3 22 19 18 30.0010000  0  7 29  2 18 19 31 27 28
  22271519.544     4496205.305 7   3460506.918 9  22271523.798
  24065639.567    -2870944.356 5  -2132160.501 9  24065647.599
  20637545.489     1189358.077 8    926119.806 9  20637548.442
  21118201.106    -1292226.602 8   -985965.493 9  21118204.329
  22209964.661    -2668209.927 7  -2033740.049 9  22209968.962
  22205242.083    -3888689.392 7  -2979610.173 9  22205246.056
  23618360.919     1080380.835 6    843940.998 9  23618365.806
 94  3 22 19 19  0.0010000  0  7 29  2 18 19 31 27 28
  22286975.028     4577425.376 7   3523795.179 9  22286979.212
  24050291.864    -2951596.376 5  -2195006.123 9  24050299.497
  20644312.685     1224920.418 8    953830.683 9  20644315.685
  21115770.544    -1304999.388 8   -995918.311 9  21115773.673
  22205812.208    -2690030.504 7  -2050743.081 9  22205816.228
  22194946.544    -3942791.452 7  -3021767.600 9  22194950.634
  23625106.567     1115828.073 6    871562.157 9  23625111.454
 94  3 22 19 19 30.0010000  0  7 29  2 18 19 31 27 28
  22302501.513     4659016.672 7   3587372.705 9  22302505.556
  24034990.114    -3032008.498 5  -2257664.792 9  24034997.876
  20651183.364     1261025.984 8    981964.846 9  20651186.423
  21113381.255    -1317553.320 8  -1005700.597 9  21113384.407
  22201774.747    -2711249.363 7  -2067277.243 9  22201778.860
  22184678.036    -3996753.399 7  -3063815.836 9  22184681.985
  23631959.099     1151838.030 6    899621.832 9  23631964.524
 94  3 22 19 20  0.0010000  0  7 29  2 18 19 31 27 28
  22318100.083     4740987.269 7   3651245.787 9  22318104.161
  24019734.364    -3112176.832 5  -2320133.500 9  24019742.372
  20658157.075     1297672.102 8   1010520.225 9  20658160.356
  21111031.442    -1329904.060 8  -1015324.555 9  21111034.618
  22197848.958    -2731878.416 7  -2083351.819 9  22197853.024
  22174442.013    -4050545.128 7  -3105731.458 9  22174446.091
  23638916.864     1188400.018 6    928111.652 9  23638922.981
 94  3 22 19 20 30.0010000  0  7 29  2 18 19 31 27 28
  22333772.794     4823348.238 7   3715423.060 9  22333777.060
  24004526.200    -3192095.533 5  -2382407.679 9  24004533.997
  20665233.349     1334858.200 8   1039496.361 9  20665236.560
  21108721.638    -1342041.352 8  -1024782.189 9  21108724.813
  22194034.552    -2751924.330 7  -2098972.001 9  22194038.712
  22164240.833    -4104150.981 7  -3147502.222 9  22164244.864
  23645978.099     1225509.156 6    957027.792 9  23645985.017
 94  3 22 19 21  0.0010000  0  7 29  2 18 19 31 27 28
  22349521.646     4906107.389 7   3779910.599 9  22349525.747
  23989366.520    -3271761.575 5  -2444484.975 9  23989374.552
  20672412.888     1372586.008 8   1068894.612 9  20672416.110
  21106454.606    -1353954.538 8  -1034065.199 9  21106457.712
  22190332.177    -2771379.543 7  -2114131.900 9  22190336.325
  22154074.325    -4157576.065 7  -3189132.132 9  22154078.427
  23653146.083     1263178.463 6    986380.312 9  23653150.606
 94  3 22 19 21 30.0010000  0  7 29  2 18 19 31 27 28
  22365345.185     4989259.878 7   3844704.636 9  22365349.532
  23974254.185    -3351177.054 6  -2506367.042 9  23974261.841
  20679693.450     1410846.743 8   1098708.128 9  20679696.591
  21104228.646    -1365651.957 8  -1043180.082 9  21104231.845
  22186743.325    -2790238.667 7  -2128827.312 9  22186747.509
  22143938.927    -4210836.901 7  -3230634.062 9  22143942.958
  23660422.364     1301413.637 6   1016174.199 9  23660426.817
 94  3 22 19 22  0.0010000  0  7 29  2 18 19 31 27 28
  22381237.700     5072775.861 7   3909781.910 9  22381241.919
  23959184.856    -3430364.063 6  -2568071.071 9  23959192.759
  20687075.099     1449637.502 8   1128934.684 9  20687078.321
  21102042.114    -1377142.550 8  -1052133.799 9  21102045.372
  22183268.716    -2808497.571 7  -2143055.029 9  22183272.700
  22133829.130    -4263964.984 7  -3272032.545 9  22133833.126
  23667803.044     1340199.474 6
 94  3 22 19 22 30.0010000  0  7 29  2 18 19 31 27 28
  22397199.466     5156655.521 7   3975142.573 9  22397203.579
  23944161.239    -3509314.505 6  -2629590.759 9  23944168.556
  20694560.075     1488970.841 8   1159583.974 9  20694563.485
  21099899.364    -1388403.073 8  -1060908.241 9  21099902.599
  22179912.950    -2826132.732 7  -2156796.706 9  22179917.005
  22123741.536    -4316974.163 7  -3313338.379 9  22123745.603
  23675293.536     1379562.693 6
 94  3 22 19 23  0.0010000  0  7 29  2 18 19 31 27 28
  22413230.380     5240896.978 7   4040785.154 9  22413234.774
  23929184.364    -3588017.733 6  -2690917.810 9  23929192.032
  20702150.419     1528858.421 8   1190665.164 9  20702153.782
  21097798.802    -1399440.395 8  -1069508.757 9  21097802.142
  22176677.911    -2843133.903 7  -2170044.365 9  22176681.954
  22113676.013    -4369869.959 7  -3354555.860 9  22113679.927
  23682896.356     1419515.849 6     23907.63419  23682901.700
 94  3 22 19 23 30.0010000  0  7 29  2 18 19 31 27 28
  22429329.888     5325500.980 7   4106710.231 9  22429334.259
  23914256.138    -3666465.454 6  -2752045.781 9  23914263.806
  20709844.349     1569290.203 8   1222170.411 9  20709847.841
  21095738.856    -1410265.944 8  -1077944.259 9  21095742.126
  22173560.653    -2859514.715 7  -2182808.629 9  22173564.743
  22103633.739    -4422642.242 7  -3395677.104 9  22103637.642
  23690611.599     1460057.969 6     55498.831 9  23690617.083
 94  3 22 19 24  0.0010000  0  7 29  2 18 19 31 27 28
  22445501.778     5410483.164 7   4172929.995 9  22445506.173
  23899377.325    -3744652.260 6  -2812970.429 9  23899384.724
  20717639.114     1610252.575 8   1254089.099 9  20717642.630
  21093718.841    -1420882.661 8  -1086217.035 9  21093722.204
  22170559.341    -2875286.332 7  -2195098.195 9  22170563.478
  22093618.231    -4475273.534 7  -3436688.484 9  22093622.239
  23698438.099     1501185.043 6     87545.858 9  23698443.349
 94  3 22 19 24 30.0010000  0  7 29  2 18 19 31 27 28
  22461750.271     5495870.273 7   4239465.279 9  22461754.688
  23884551.599    -3822563.514 6  -2873680.381 9  23884558.927
  20725536.036     1651751.225 8   1286425.664 9  20725539.599
  21091738.653    -1431287.861 8  -1094324.992 9  21091741.970
  22167673.302    -2890454.067 7  -2206917.211 9  22167677.192
  22083634.528    -4527740.417 7  -3477571.757 9  22083638.454
  23706373.591     1542887.471 6    120041.221 9  23706378.700
 94  3 22 19 25  0.0010000  0  7 29  2 18 19 31 27 28
  22478075.083     5581656.993 6   4306311.951 9  22478079.384
  23869776.419    -3900207.905 6  -2934182.404 9  23869783.618
  20733533.325     1693776.884 8   1319172.888 9  20733536.888
  21089796.802    -1441491.189 8  -1102275.642 9  21089800.153
  22164898.567    -2905033.925 7  -2218278.139 9  22164902.692
  22073683.271    -4580032.536 7  -3518318.849 9  22073687.384
  23714415.083     1585144.282 6    152968.563 9  23714419.782
 94  3 22 19 25 30.0010000  0  7 29  2 18 19 31 27 28
  22494475.521     5667841.527 6   4373468.605 9  22494480.138
  23855050.849    -3977589.353 6  -2994479.540 9  23855058.153
  20741630.856     1736328.926 8   1352330.277 9  20741634.360
  21087893.435    -1451493.539 8  -1110069.682 9  21087896.739
  22162234.458    -2919033.963 7  -2229187.263 9  22162238.571
  22063766.310    -4632148.090 7  -3558928.354 9  22063770.388
  23722560.075     1627950.030 6    186323.650 9  23722565.114
 94  3 22 19 26  0.0010000  0  7 29  2 18 19 31 27 28
  22510949.770     5754413.356 6   4440927.054 9  22510954.376
  23840374.802    -4054711.541 6  -3054574.666 9  23840382.376
  20749829.935     1779415.488 8   1385904.185 9  20749833.474
  21086027.997    -1461297.089 8  -1117708.813 9  21086031.325
  22159679.349    -2932460.814 7  -2239649.743 9  22159683.368
  22053879.450    -4684103.388 7  -3599412.982 9  22053883.552
  23730806.450     1671284.765 6    220090.938 9  23730811.478
 94  3 22 19 26 30.0010000  0  7 29  2 18 19 31 27 28
  22527494.310     5841354.870 6   4508673.560 9  22527499.044
  23825747.396    -4131580.837 6  -3114472.718 9  23825754.841
  20758132.458     1823045.714 8   1419901.723 9  20758135.950
  21084202.271    -1470891.497 8  -1125184.976 9  21084205.528
  22157234.364    -2945309.042 7  -2249661.345 9  22157238.677
  22044021.997    -4735905.786 7  -3639778.473 9  22044026.005
  23739153.325     1715145.373 6    254268.000 9  23739158.540
 94  3 22 19 27  0.0010000  0  7 29  2 18 19 31 27 28
  22544104.286     5928641.014 6   4576688.614 9  22544108.903
  23811164.622    -4208212.645 6  -3174185.749 9  23811171.646
  20766534.489     1867199.161 8   1454306.967 9  20766537.970
  21082414.372    -1480287.478 8  -1132506.519 9  21082417.665
  22154899.646    -2957577.430 7  -2259221.130 9  22154903.771
  22034187.958    -4787582.057 7  -3680045.686 9  22034192.060
  23747601.622     1759543.843 6    288864.178 9  23747606.661
 94  3 22 19 27 30.0010000  0  7 29  2 18 19 31 27 28
  22560779.981     6016272.731 6   4644972.950 9  22560784.610
  23796631.239    -4284585.121 6  -3233696.689 9  23796638.755
  20775035.763     1911873.012 8   1489117.715 9  20775039.313
  21080665.880    -1489475.650 8  -1139666.137 9  21080669.220
  22152678.114    -2969251.955 7  -2268318.161 9  22152682.345
  22024376.325    -4839143.065 7  -3720223.080 9  22024380.380
  23756153.638     1804483.227 6    323881.836 9  23756158.630
 94  3 22 19 28  0.0010000  0  7 29  2 18 19 31 27 28
  22577521.302     6104247.466 6   4713524.563 9  22577525.966
  23782147.716    -4360696.789 6  -3293004.412 9  23782154.915
  20783633.161     1957052.275 8   1524322.295 9  20783636.677
  21078960.349    -1498437.514 8  -1146649.407 9  21078963.700
  22150573.177    -2980313.629 7  -2276937.644 9  22150577.278
  22014587.528    -4890582.087 7  -3760305.419 9  22014591.571
  23764806.396     1849951.187 6    359311.387 9  23764811.599
 94  3 22 19 28 30.0010000  0  7 29  2 18 19 31 27 28
  22594328.278     6192567.081 6   4782344.915 9  22594332.989
  23767713.060    -4436552.725 6  -3352112.901 9  23767720.634
  20792327.622     2002740.581 8   1559923.527 9  20792331.032
  21077298.724    -1507170.003 8  -1153453.944 9  21077302.122
  22148590.114    -2990734.815 7  -2285058.041 9  22148594.181
  22004825.708    -4941881.539 7  -3800278.997 9  22004829.669
  23773564.036     1895975.725 6    395174.623 9  23773569.052
 94  3 22 19 29  0.0010000  0  7 29  2 18 19 31 27 28
  22611200.575     6281232.373 6   4851434.624 9  22611205.333
  23753328.192    -4512146.653 6  -3411017.215 9  23753335.544
  20801116.989     2048929.294 8   1595914.688 9  20801120.294
  21075677.310    -1515690.325 8  -1160093.161 9  21075680.743
  22146727.521    -3000523.095 7  -2292685.267 9  22146731.692
  21995089.396    -4993046.991 7  -3840148.160 9  21995093.485
  23782427.755     1942552.852 6    431468.449 9  23782432.993
 94  3 22 19 29 30.0010000  0  7 29  2 18 19 31 27 28
  22628142.317     6370262.421 6   4920808.573 9  22628146.853
  23738994.771    -4587464.502 6  -3469706.374 9  23739002.368
  20810004.755     2095634.857 8   1632308.592 9  20810007.954
  21074097.450    -1523993.642 8  -1166563.276 9  21074100.837
  22144988.505    -3009662.391 7  -2299806.781 9  22144992.677
  21985383.724    -5044049.579 7  -3879890.416 9  21985387.673
  23791394.661     1989674.995 6    468186.956 9  23791399.935
 94  3 22 19 30  0.0010000  0  7 29  2 18 19 31 27 28
  22645152.927     6459652.757 6   4990463.253 9  22645157.485
  23724708.372    -4662541.942 6  -3528208.227 9  23724715.841
  20818990.638     2142854.577 8   1669103.135 9  20818994.048
  21072552.872    -1532108.366 8  -1172886.431 9  21072556.376
  22143370.044    -3018166.037 7  -2306432.987 9  22143374.380
  21975710.083    -5094885.006 7  -3919502.415 9  21975714.044
  23800464.919     2037339.191 6    505327.847 9  23800469.724
 94  3 22 19 30 30.0010000  0  7 29  2 18 19 31 27 28
  22662231.231     6549398.197 6   5060394.645 9  22662236.071
  23710466.466    -4737381.473 6  -3586524.692 9  23710473.571
  20828075.122     2190595.174 8   1706303.555 9  20828078.462
  21071041.067    -1540052.659 8  -1179076.785 9  21071044.489
  22141868.825    -3026055.651 7  -2312580.727 9  22141872.974
  21966065.153    -5145570.309 7  -3958997.423 9  21966069.126
  23809640.747     2085558.808 6    542901.530 9  23809645.833
 94  3 22 19 31  0.0010000  0  7 29  2 18 19 31 27 28
  22679377.833     6639504.816 6   5130607.473 9  22679382.603
  23696273.856    -4811964.415 6  -3644641.236 9  23696281.149
  20837260.294     2238863.387 8   1743915.103 9  20837263.646
  21069563.411    -1547818.923 8  -1185128.417 9  21069566.938
  22140482.856    -3033337.451 7  -2318254.830 9  22140487.157
  21956450.231    -5196096.252 7  -3998368.256 9  21956454.157
  23818918.349     2134314.470 6    580892.910 9  23818923.634
 94  3 22 19 31 30.0010000  0  7 29  2 18 19 31 27 28
  22696591.466     6729962.287 6   5201093.690 9  22696596.247
  23682127.653    -4886301.058 6  -3702565.839 9  23682135.099
  20846547.505     2287668.433 8   1781944.965 9  20846550.833
  21068122.419    -1555392.025 8  -1191029.535 9  21068126.017
  22139211.989    -3040015.984 7  -2323458.861 9  22139216.267
  21946866.833    -5246455.866 7  -4037609.479 9  21946870.806
  23828299.622     2183611.898 6    619306.451 9  23828304.673
 94  3 22 19 32  0.0010000  0  7 29  2 18 19 31 27 28
  22713868.458     6820753.128 6   5271839.676 9  22713873.239
  23668029.505    -4960388.951 6  -3760296.606 9  23668036.505
  20855935.622     2337002.657 8   1820387.176 9  20855938.856
  21066720.255    -1562759.741 8  -1196770.611 9  21066723.782
  22138052.622    -3046108.059 7  -2328205.913 9  22138056.817
  21937312.177    -5296666.473 7  -4076734.592 9  21937315.950
  23837783.200     2233448.539 6    658140.165 9  23837788.122
 94  3 22 19 32 30.0010000  0  7 29  2 18 19 31 27 28
  22731207.560     6911869.047 6   5342838.964 9  22731212.411
  23653983.614    -5034199.765 6  -3817811.473 9  23653990.423
  20865425.192     2386869.742 8   1859244.600 9  20865428.626
  21065364.606    -1569883.668 8  -1202321.716 9  21065368.134
  22137008.153    -3051597.854 7  -2332483.653 9  22137012.255
  21927787.130    -5346720.155 7  -4115737.432 9  21927791.103
  23847369.880     2283825.781 6    697395.119 9  23847374.685
 94  3 22 19 33  0.0010000  0  7 29  2 18 19 31 27 28
  22748607.997     7003309.291 6   5414090.984 9  22748612.849
  23639988.771    -5107744.338 6  -3875118.883 9  23639996.169
  20875012.770     2437252.871 8   1898504.134 9  20875016.110
  21064053.849    -1576771.214 8  -1207688.630 9  21064057.341
  22136079.044    -3056481.279 7  -2336288.902 9  22136083.216
  21918293.450    -5396611.046 7  -4154613.416 9  21918297.411
  23857056.661     2334730.161 6    737060.835 9  23857061.489
 94  3 22 19 33 30.0010000  0  7 29  2 18 19 31 27 28
  22766072.802     7095086.631 6   5485605.668 9  22766077.606
  23626045.185    -5181017.002 6  -3932214.401 9  23626051.935
  20884697.028     2488144.071 8   1938159.568 9  20884700.403
  21062789.067    -1583418.280 8  -1212868.162 9  21062792.595
  22135268.114    -3060741.891 7  -2339608.843 9  22135272.310
  21908828.231    -5446349.963 7  -4193370.982 9  21908832.263
  23866846.880     2386179.525 6    777151.223 9  23866852.271
 94  3 22 19 34  0.0010000  0  7 29  2 18 19 31 27 28
  22783602.794     7187208.630 6   5557388.914 9  22783607.798
  23612154.130    -5254015.869 6  -3989096.568 9  23612161.118
  20894477.396     2539539.691 8   1978208.058 9  20894480.806
  21061567.841    -1589835.978 8  -1217868.961 9  21061571.368
  22134580.810    -3064354.033 7  -2342423.490 9  22134585.063
  21899390.247    -5495947.038 7  -4232018.021 9  21899394.290
  23876740.544     2438170.454 6    817663.616 9  23876745.396
 94  3 22 19 34 30.0010000  0  7 29  2 18 19 31 27 28
  22801200.466     7279683.797 6   5629447.357 9  22801205.329
  23598312.505    -5326754.231 6  -4045775.732 9  23598320.021
  20904354.716     2591445.323 8   2018653.957 9  20904358.126
  21060387.146    -1596041.062 8  -1222704.086 9  21060390.603
  22134019.528    -3067303.410 7  -2344721.694 9  22134023.735
  21889978.270    -5545406.909 7  -4270558.153 9  21889982.267
  23886738.325     2490709.499 6    858603.108 9  23886743.224
 94  3 22 19 35  0.0010000  0  7 29  2 18 19 31 27 28
  22818868.231     7372526.850 6   5701792.463 9  22818873.294
  23584518.950    -5399239.853 6  -4102257.967 9  23584525.372
  20914329.716     2643864.173 8   2059499.762 9  20914333.173
  21059243.083    -1602053.065 8  -1227388.757 9  21059246.376
  22133585.380    -3069585.520 7  -2346499.955 9  22133589.587
  21880590.372    -5594741.154 7  -4309000.394 9  21880594.392
  23896840.208     2543792.624 6    899966.557 9  23896844.896
 94  3 22 19 35 30.0010000  0  7 29  2 18 19 31 27 28
  22836602.981     7465721.541 6   5774411.577 9  22836607.974
  23570773.872    -5471469.940 6  -4158541.071 9  23570781.036
  20924405.052     2696810.442 8   2100756.548 9  20924408.544
  21058137.841    -1607861.308 8  -1231914.657 9  21058141.286
  22133277.919    -3071199.940 7  -2347757.938 9  22133282.079
  21871225.513    -5643954.294 7  -4347348.270 9  21871229.638
  23907044.263     2597414.437 6    941749.771 9  23907049.009
 94  3 22 19 36  0.0010000  0  7 29  2 18 19 31 27 28
  22854402.606     7559259.563 6   5847298.216 9  22854407.481
  23557077.380    -5543444.555 6  -4214625.089 9  23557084.368
  20934582.177     2750292.202 8   2142430.596 9  20934585.739
  21057073.411    -1613455.177 8  -1236273.513 9  21057076.763
  22133096.231    -3072156.064 7  -2348502.969 9  22133100.532
  21861886.817    -5693028.676 7  -4385588.020 9  21861890.755
  23917350.380     2651574.244 6    983952.192 9  23917354.974
 94  3 22 19 36 30.0010000  0  7 29  2 18 19 31 27 28
  22872267.208     7653138.695 6   5920450.658 9  22872272.130
  23543431.481    -5615153.145 6  -4270501.830 9  23543438.821
  20944858.864     2804295.813 8   2184511.283 9  20944862.438
  21056048.521    -1618840.640 8  -1240469.966 9  21056051.954
  22133034.622    -3072479.938 7  -2348755.339 9  22133038.735
  21852578.677    -5741943.723 7  -4423703.622 9  21852582.532
  23927757.388     2706265.089 6   1026568.427 9  23927762.005
 94  3 22 19 37  0.0010000  0  7 29  2 18 19 31 27 28
  22890195.481     7747351.307 6   5993862.953 9  22890200.474
  23529836.911    -5686592.597 6  -4326168.842 9  23529843.755
  20955232.614     2858810.435 8   2226990.156 9  20955236.212
  21055064.927    -1624009.682 8  -1244497.786 9  21055068.267
  22133090.224    -3072186.632 7  -2348526.785 9  22133094.513
  21843304.864    -5790677.252 7  -4461677.777 9  21843308.603
  23938262.911     2761471.768 6   1069586.589 9  23938267.704
 94  3 22 19 37 30.0010000  0  7 29  2 18 19 31 27 28
  22908185.239     7841887.753 6   6067527.587 9  22908190.513
  23516295.388    -5757754.500 6  -4381619.577 9  23516302.185
  20965705.271     2913842.897 8   2269872.543 9  20965708.915
  21054124.942    -1628948.957 8  -1248346.567 9  21054128.364
  22133259.731    -3071296.512 7  -2347833.183 9  22133263.903
  21834069.028    -5839212.695 7  -4499497.581 9  21834072.849
  23948867.185     2817197.478 6   1113009.196 9  23948872.013
 94  3 22 19 38  0.0010000  0  7 29  2 18 19 31 27 28
  22926238.739     7936759.131 6   6141453.204 9  22926244.013
  23502806.403    -5828638.091 6  -4436853.450 9  23502813.614
  20976273.583     2969379.725 8   2313147.939 9  20976277.228
  21053226.716    -1633669.762 8  -1252025.116 9  21053229.974
  22133540.380    -3069820.930 7  -2346683.384 9  22133544.728
  21824871.122    -5887547.485 7  -4537161.031 9  21824874.872
  23959567.958     2873430.319 6   1156826.947 9  23959573.126
 94  3 22 19 38 30.0010000  0  7 29  2 18 19 31 27 28
  22944354.403     8031956.851 6   6215633.112 9  22944359.524
  23489370.677    -5899243.174 6  -4491870.294 9  23489378.028
  20986938.075     3025422.332 8   2356817.457 9  20986941.673
  21052370.091    -1638171.031 8  -1255532.592 9  21052373.349
  22133933.138    -3067757.127 7  -2345075.226 9  22133937.474
  21815708.903    -5935695.627 7  -4574679.048 9  21815712.724
  23970364.747     2930165.919 6   1201036.454 9  23970369.446
 94  3 22 19 39  0.0010000  0  7 29  2 18 19 31 27 28
  22962534.028     8127490.817 6   6290075.025 9  22962539.302
  23475989.747    -5969562.353 6  -4546664.366 9  23475996.935
  20997703.692     3081996.186 8   2400900.931 9  20997707.267
  21051559.786    -1642428.915 8  -1258850.419 9  21051563.149
  22134441.161    -3065087.719 7  -2342995.171 9  22134445.438
  21806580.044    -5983667.094 7  -4612059.398 9  21806583.782
  23981260.013     2987419.857 6   1245649.859 9  23981264.770
 94  3 22 19 39 30.0010000  0  7 29  2 18 19 31 27 28
  22980773.677     8223340.629 6   6364763.065 9  22980778.704
  23462662.966    -6039593.718 6  -4601234.162 9  23462670.411
  21008569.153     3139095.263 8   2445393.668 9  21008572.798
  21050790.849    -1646470.724 8  -1261999.873 9  21050794.188
  22135065.927    -3061804.246 7  -2340436.622 9  22135070.204
  21797479.341    -6031491.881 7  -4649325.445 9  21797482.845
  23992253.575     3045191.473 6   1290666.655 9  23992258.438
 94  3 22 19 40  0.0010000  0  7 29  2 18 19 31 27 28
  22999075.903     8319518.694 6   6439706.877 9  22999081.153
  23449392.552    -6109329.217 6  -4655573.421 9  23449399.774
  21019534.036     3196714.556 8   2490291.764 9  21019537.599
  21050061.395    -1650304.287 8  -1264987.068 9  21050064.466
  22135815.185    -3057867.062 7  -2337368.691 9  22135819.474
  21788407.310    -6079164.712 7  -4686473.087 9  21788410.931
  24003348.630     3103496.596 6   1336099.158 9  24003353.470
 94  3 22 19 40 30.0010000  0  7 29  2 18 19 31 27 28
  23017439.396     8416018.556 6   6514901.444 9  23017444.563
  23436176.919    -6178775.472 6  -4709687.297 9  23436184.001
  21030595.825     3254844.826 8   2535588.026 9  21030599.399
  21049372.208    -1653925.967 8  -1267809.159 9  21049375.407
  22136689.888    -3053271.148 7  -2333787.459 9  22136694.329
  21779365.185    -6126683.052 7  -4723500.347 9  21779368.864
  24014546.231     3162338.084 6   1381949.599 9  24014551.329
 94  3 22 19 41  0.0010000  0  7 29  2 18 19 31 27 28
  23035863.388     8512837.122 6   6590344.353 9  23035868.708
  23423017.638    -6247928.974 6  -4763573.045 9  23423025.048
  21041753.583     3313479.787 8   2581277.554 9  21041757.251
  21048721.231    -1657346.185 8  -1270474.260 9  21048724.513
  22137691.927    -3048005.503 7  -2329684.358 9  22137695.923
  21770353.685    -6174038.393 7  -4760400.589 9  21770357.388
  24025842.888     3221705.000 6   1428209.451 9  24025848.185
 94  3 22 19 41 30.0010000  0  7 29  2 18 19 31 27 28
  23054345.981     8609963.948 6   6666027.459 9  23054351.372
  23409913.013    -6316796.882 6  -4817236.266 9  23409920.130
  21053003.161     3372596.441 8   2627342.432 9  21053006.677
  21048107.099    -1660573.947 8  -1272989.409 9  21048110.310
  22138819.895    -3042076.951 7  -2325064.716 9  22138824.091
  21761373.278    -6221229.772 7  -4797173.068 9  21761376.864
  24037237.224     3281580.311 6   1474865.468 9  24037242.474
 94  3 22 19 42  0.0010000  0  7 29  2 18 19 31 27 28
  23072889.935     8707411.992 6   6741960.858 9  23072895.501
  23396862.005    -6385378.419 6  -4870676.338 9  23396869.368
  21064344.161     3432193.079 8   2673781.319 9  21064347.841
  21047535.903    -1663574.413 8  -1275327.440 9  21047539.138
  22140070.294    -3035506.517 7  -2319944.900 9  22140074.372
  21752425.966    -6268248.126 7  -4833810.721 9  21752429.657
  24048725.552     3341952.487 6   1521908.648 9  24048730.673
 94  3 22 19 42 30.0010000  0  7 29  2 18 19 31 27 28
  23091492.161     8805166.993 6   6818133.445 9  23091497.833
  23383865.396    -6453673.154 6  -4923892.943 9  23383872.501
  21075779.106     3492283.247 8   2720604.779 9  21075782.739
  21047011.356    -1666330.295 8  -1277474.884 9  21047014.720
  22141438.263    -3028318.102 7  -2314343.541 9  22141442.306
  21743507.935    -6315111.921 7  -4870327.944 9  21743511.685
  24060307.005     3402814.549 6   1569333.565 9  24060312.161
 94  3 22 19 43  0.0010000  0  7 29  2 18 19 31 27 28
  23110149.114     8903208.284 6   6894529.108 9  23110154.927
  23370923.935    -6521682.834 6  -4976887.425 9  23370931.157
  21087308.841     3552872.102 8   2767816.826 9  21087312.345
  21046529.122    -1668865.453 8  -1279450.335 9  21046532.438
  22142921.528    -3020524.153 7  -2308270.341 9  22142925.688
  21734615.317    -6361843.845 7  -4906742.405 9  21734618.903
  24071981.138     3464162.179 6   1617136.851 9  24071985.849
 94  3 22 19 43 30.0010000  0  7 29  2 18 19 31 27 28
  23128862.075     9001547.100 6   6971156.621 9  23128868.708
  23358035.786    -6589412.389 6  -5029663.628 9  23358042.927
  21098934.114     3613963.508 7   2815420.469 9  21098937.665
  21046091.427    -1671166.227 8  -1281243.155 9  21046094.638
  22144517.208    -3012138.614 7  -2301736.162 9  22144521.122
  21725749.981    -6408431.494 7  -4943044.447 9  21725753.638
  24083750.536     3526010.421 6   1665330.226 9  24083755.821
 94  3 22 19 44  0.0010000  0  7 29  2 18 19 31 27 28
  23147632.786     9100187.589 6   7048019.197 9  23147639.669
  23345199.747    -6656863.042 6  -5082222.517 9  23345206.794
  21110660.341     3675585.394 7   2863437.468 9  21110664.021
  21045700.489    -1673220.009 8  -1282843.506 9  21045703.712
  22146229.255    -3003141.875 7  -2294725.727 9  22146233.298
  21716914.083    -6454863.917 7  -4979225.531 9  21716917.798
  24095619.505     3588378.878 6   1713928.976 9  24095624.450
 94  3 22 19 44 30.0010000  0  7 29  2 18 19 31 27 28
  23166460.872     9199129.063 6   7125116.301 9  23166467.505
  23332415.958    -6724044.295 6  -5134571.488 9  23332422.935
  21122487.630     3737737.506 7   2911867.635 9  21122491.286
  21045354.505    -1675039.327 8  -1284261.160 9  21045357.810
  22148063.927    -2993499.978 7  -2287212.571 9  22148067.935
  21708110.895    -6501125.233 7  -5015273.290 9  21708114.751
  24107587.208     3651272.200 6   1762936.701 9  24107592.622
 94  3 22 19 45  0.0010000  0  7 29  2 18 19 31 27 28
  23185348.317     9298381.761 6   7202455.912 9  23185355.021
  23319681.544    -6790963.095 6  -5186715.952 9  23319688.825
  21134411.974     3800400.770 8   2960696.105 9  21134415.595
  21045053.122    -1676622.669 8  -1285494.942 9  21045056.427
  22150023.599    -2983202.348 7  -2279188.449 9  22150027.489
  21699345.497    -6547188.129 7  -5051166.426 9  21699349.353
  24119654.302     3714686.302 6   1812350.247 9  24119659.306
 94  3 22 19 45 30.0010000  0  7 29  2 18 19 31 27 28
  23204297.388     9397959.625 6   7280048.919 9  23204303.985
  23306997.638    -6857617.417 6  -5238654.323 9  23307004.696
  21146433.778     3863575.538 7   3009923.151 9  21146437.505
  21044802.021    -1677941.492 8  -1286522.602 9  21044805.313
  22152111.724    -2972230.443 7  -2270638.922 9  22152115.661
  21690620.286    -6593039.485 7  -5086894.733 9  21690624.153
  24131820.669     3778618.489 6   1862167.481 9  24131825.860
 94  3 22 19 46  0.0010000  0  7 29  2 18 19 31 27 28
  23223304.849     9497843.939 6   7357880.691 9  23223311.306
  23294364.606    -6924004.098 6  -5290384.165 9  23294371.817
  21158550.052     3927246.401 7   3059536.761 9  21158553.896
  21044597.036    -1679018.550 8  -1287361.871 9  21044600.423
  22154326.536    -2960590.046 7  -2261568.485 9  22154330.603
  21681929.083    -6638710.918 7  -5122482.848 9  21681932.833
  24144080.013     3843042.227 6   1912367.764 9  24144085.532
 94  3 22 19 46 30.0010000  0  7 29  2 18 19 31 27 28
  23242372.739     9598044.937 6   7435959.239 9  23242379.548
  23281788.021    -6990096.372 6  -5341884.584 9  23281795.302
  21170760.255     3991411.426 8   3109535.434 9  21170763.958
  21044437.302    -1679857.877 8  -1288015.896 9  21044440.747
  22156668.153    -2948284.474 7  -2251979.726 9  22156672.267
  21673273.505    -6684195.291 7  -5157925.194 9  21673277.267
  24156433.481     3907958.993 6   1962952.203 9  24156439.235
 94  3 22 19 47  0.0010000  0  7 29  2 18 19 31 27 28
  23261499.567     9698556.591 6   7514279.877 9  23261506.399
  23269267.544    -7055890.725 6  -5393152.849 9  23269274.673
  21183064.599     4056070.559 8   3159919.124 9  21183068.372
  21044319.411    -1680476.677 8  -1288498.084 9  21044322.856
  22159131.271    -2935342.530 7  -2241895.094 9  22159135.220
  21664650.536    -6729511.060 7  -5193236.167 9  21664654.263
  24168879.536     3973363.681 6   2013916.859 9  24168884.997
 94  3 22 19 47 30.0010000  0  7 29  2 18 19 31 27 28
  23280684.677     9799374.470 6   7592839.107 9  23280691.169
  23256804.138    -7121384.759 6  -5444187.126 9  23256810.653
  21195464.427     4121232.325 8   3210694.479 9  21195468.188
  21044239.114    -1680900.065 8  -1288828.004 9  21044242.466
  22161712.552    -2921776.262 7  -2231323.973 9  22161716.817
  21656056.036    -6774674.686 7  -5228428.584 9  21656059.786
  24181414.333     4039236.451 6   2065246.256 9  24181419.841
 94  3 22 19 48  0.0010000  0  7 29  2 18 19 31 27 28
  23299928.286     9900500.173 6   7671638.217 9  23299934.954
  23244398.427    -7186578.076 6  -5494987.057 9  23244405.368
  21207959.106     4186892.460 8   3261858.171 9  21207962.798
  21044193.403    -1681140.083 8  -1289015.039 9  21044196.907
  22164410.950    -2907597.116 7  -2220275.278 9  22164415.063
  21647492.255    -6819679.073 7  -5263496.923 9  21647495.981
  24194040.317     4105587.333 5   2116948.217 9  24194045.954
 94  3 22 19 48 30.0010000  0  7 29  2 18 19 31 27 28
  23319231.661    10001939.607 6   7750681.772 9  23319238.849
  23232046.005    -7251490.625 6  -5545568.214 9  23232052.958
  21220548.349     4253049.661 8   3313409.183 9  21220552.134
  21044186.060    -1681178.057 8  -1289044.634 9  21044189.481
  22167228.278    -2892790.553 7  -2208737.686 9  22167232.321
  21638963.200    -6864499.087 7  -5298421.592 9  21638966.892
  24206760.653     4172429.560 5   2169033.016 9  24206767.005
 94  3 22 19 49  0.0010000  0  7 29  2 18 19 31 27 28
  23338593.270    10103684.121 6   7829963.055 9  23338600.270
  23219745.356    -7316130.287 6  -5595936.729 9  23219751.896
  21233230.771     4319694.460 8   3365340.144 9  21233234.614
  21044221.052    -1680994.495 8  -1288901.610 9  21044224.485
  22170165.622    -2877354.371 7  -2196709.479 9  22170169.653
  21630468.817    -6909136.819 7  -5333204.226 9  21630472.450
  24219573.270     4239760.651 5   2221498.761 9  24219579.938
 94  3 22 19 49 30.0010000  0  8 29  2 18 16 19 31 27 28
  23358008.763    10205712.664 6   7909465.669 9  23358015.821
  23207495.466    -7380505.309 6  -5646099.024 9  23207502.536
  21246001.903     4386807.602 8   3417636.044 9  21246005.759
  24579358.020       -4151.20114
  21044298.974    -1680585.086 8  -1288582.581 9  21044302.466
  22173221.060    -2861299.000 7  -2184198.788 9  22173225.032
  21622007.497    -6953601.138 7  -5367851.733 9  21622011.212
  24232478.356     4307579.196 5   2274344.350 9  24232484.989
 94  3 22 19 50  0.0010000  0  8 29  2 18 16 19 31 27 28
  23377478.591    10308027.072 6   7989191.010 9  23377485.474
  23195297.091    -7444606.544 6  -5696047.983 9  23195304.009
  21258863.106     4454392.706 8   3470299.707 9  21258866.974
  24574679.583      -28736.727 4
  21044427.981    -1679907.635 8  -1288054.699 9  21044431.450
  22176398.849    -2844600.751 7  -2171187.156 9  22176402.845
  21613582.013    -6997877.630 7  -5402352.881 9  21613585.634
  24245482.872     4375918.550 5   2327595.755 9  24245489.294
 94  3 22 19 50 30.0010000  0  8 29  2 18 16 19 31 27 28
  23397001.474    10410619.105 6   8069132.703 9  23397008.661
  23183153.122    -7508422.785 6  -5745774.870 9  23183160.017
  21271813.528     4522448.679 8   3523330.279 9  21271817.349
  24570106.872      -52770.208 5    -11812.14418  24570114.856
  21044608.950    -1678957.229 8  -1287314.128 9  21044612.349
  22179700.630    -2827248.129 7  -2157665.616 9  22179704.661
  21605191.372    -7041970.644 7  -5436711.048 9  21605195.075
  24258583.544     4444759.948 5   2381238.362 9  24258590.521
 94  3 22 19 51  0.0010000  0  8 29  2 18 16 19 31 27 28
  23416574.849    10513478.144 6   8149282.445 9  23416581.118
  23171067.310    -7571934.410 6  -5795264.390 9  23171074.142
  21284855.028     4590981.280 8   3576732.253 9  21284858.966
  24565638.450      -76250.715 5    -30108.624 9  24565646.446
  21044837.474    -1677756.344 8  -1286378.380 9  21044840.813
  22183125.825    -2809248.724 7  -2143640.093 9  22183129.728
  21596833.778    -7085888.178 7  -5470932.481 9  21596837.446
  24271774.880     4514082.850 5   2435256.172 9  24271781.185
 94  3 22 19 51 30.0010000  0  8 29  2 18 16 19 31 27 28
  23436201.114    10616614.027 6   8229647.913 9  23436207.595
  23159039.099    -7635143.226 6  -5844517.953 9  23159045.614
  21297990.185     4660007.568 7   3630518.913 9  21297994.239
  24561280.685      -99153.595 5    -47955.026 9  24561287.353
  21045111.591    -1676316.083 8  -1285256.096 9  21045115.013
  22186679.067    -2790576.198 7  -2129090.058 9  22186682.993
  21588513.052    -7129615.481 7  -5505005.690 9  21588516.790
  24285058.856     4583889.886 5   2489651.242 9  24285064.610
 94  3 22 19 52  0.0010000  0  8 29  2 18 16 19 31 27 28
  23455876.724    10720009.984 6   8310216.033 9  23455883.427
  23147066.145    -7698059.721 6  -5893543.730 9  23147072.802
  21311217.981     4729518.528 7   3684683.245 9  21311221.931
  24557029.794     -121491.164 5    -65360.930 9  24557036.970
  21045426.872    -1674658.731 8  -1283964.649 9  21045430.271
  22190360.419    -2771229.845 7  -2114014.965 9  22190364.497
  21580225.427    -7173165.617 7  -5538940.846 9  21580228.954
  24298428.700     4654147.385 5   2544397.318 9  24298435.146
 94  3 22 19 52 30.0010000  0  8 29  2 18 16 19 31 27 28
  23475601.653    10823665.364 6   8390986.283 9  23475608.427
  23135150.153    -7760679.311 6  -5942338.160 9  23135156.880
  21324538.395     4799518.805 7   3739228.863 9  21324542.392
  24552882.138     -143283.777 5    -82342.203 9  24552889.009
  21045779.997    -1672801.742 8  -1282517.642 9  21045783.442
  22194169.278    -2751214.356 7  -2098418.476 9  22194173.356
  21571970.661    -7216545.589 7  -5572743.401 9  21571974.341
  24311880.958     4724840.711 5   2599482.991 9  24311887.743
 94  3 22 19 53  0.0010000  0  8 29  2 18 16 19 31 27 28
  23495375.552    10927576.052 6   8471955.482 9  23495382.243
  23123286.450    -7823023.344 6  -5990917.864 9  23123292.942
  21337952.497     4870010.036 7   3794157.042 9  21337956.528
  24548837.458     -164540.494 5    -98905.868 9  24548844.470
  21046171.380    -1670745.730 8  -1280915.553 9  21046174.860
  22198101.622    -2730549.782 7  -2082316.207 9  22198105.712
  21563747.716    -7259758.150 7  -5606415.502 9  21563751.501
  24325417.927     4795980.274 5   2654916.393 9  24325424.396
 94  3 22 19 53 30.0010000  0  8 29  2 18 16 19 31 27 28
  23515196.927    11031736.689 6   8553119.450 9  23515204.044
  23111474.497    -7885094.865 6  -6039285.219 9  23111481.106
  21351459.075     4940987.029 7   3849463.739 9  21351463.001
  24544891.481     -185270.176 4   -115058.858 9  24544900.310
  21046602.638    -1668479.649 8  -1279149.771 9  21046605.954
  22202154.497    -2709251.430 7  -2065720.085 9  22202158.470
  21555555.692    -7302806.930 7  -5639959.982 9  21555559.419
  24339042.302     4867576.792 5   2710705.857 9  24339049.489
 94  3 22 19 54  0.0010000  0  8 29  2 18 16 19 31 27 28
  23535067.458    11136156.860 6   8634485.634 9  23535074.290
  23099718.489    -7946873.651 6  -6087424.465 9  23099724.946
  21365056.349     5012441.159 7   3905142.223 9  21365060.380
  24541046.630     -205478.607 4   -130805.699 9  24541053.630
  21047078.169    -1665980.836 8  -1277202.639 9  21047081.603
  22206324.013    -2687340.715 7  -2048646.803 9  22206328.290
  21547395.356    -7345689.432 7  -5673374.899 9  21547399.071
  24352755.880     4939638.438 5   2766857.741 9  24352761.997
 94  3 22 19 54 30.0010000  0  8 29  2 18 16 19 31 27 28
  23554989.310    11240845.924 6   8716061.362 9  23554996.521
  23088016.856    -8008364.710 6  -6135339.513 9  23088023.571
  21378743.606     5084368.911 7   3961189.770 9  21378747.532
  24537303.481     -225152.000 5   -146135.625 8  24537310.138
  21047599.302    -1663242.850 7  -1275069.140 9  21047602.536
  22210607.294    -2664831.319 7  -2031107.009 9  22210611.501
  21539269.872    -7388389.139 7  -5706647.380 9  21539273.528
  24366560.692     5012184.250 5   2823386.915 9  24366567.634
 94  3 22 19 55  0.0010000  0  8 29  2 18 16 19 31 27 28
  23574962.403    11345803.933 6   8797846.643 9  23574969.368
  23076371.700    -8069560.445 6  -6183024.432 9  23076378.286
  21392519.692     5156762.253 7   4017600.112 9  21392523.677
  24533664.372     -244273.964 5   -161035.857 9  24533670.138
  21048164.708    -1660270.123 7  -1272752.730 9  21048168.118
  22215003.896    -2641728.032 7  -2013104.443 9  22215007.997
  21531182.708    -7430886.595 7  -5739762.260 9  21531186.388
  24380459.731     5085224.419 5   2880301.327 9  24380466.638
 94  3 22 19 55 30.0010000  0  8 29  2 18 16 19 31 27 28
  23594985.200    11451022.857 6   8879835.247 9  23594992.317
  23064783.950    -8130454.081 6  -6230473.951 9  23064790.595
  21406380.700     5229601.393 7   4074357.829 9  21406384.731
  24530131.153     -262844.191 5   -175506.157 9  24530138.481
  21048774.474    -1657066.409 7  -1270256.330 9  21048777.931
  22219515.419    -2618019.202 7  -1994630.029 9  22219519.626
  21523133.372    -7473186.940 7  -5772723.550 9  21523136.899
  24394451.638     5158753.754 5   2937596.869 9  24394457.649
 94  3 22 19 56  0.0010000  0  8 29  2 18 16 19 31 27 28
  23615057.450    11556504.300 6   8962028.392 9  23615064.310
  23053251.224    -8191058.511 6  -6277698.109 9  23053257.681
  21420324.716     5302876.779 7   4131455.480 9  21420328.688
  24526705.036     -280851.799 5   -189538.102 9  24526711.001
  21049428.708    -1653627.676 7  -1267576.798 9  21049432.153
  22224143.364    -2593699.794 7  -1975679.843 9  22224147.560
  21515120.841    -7515292.626 7  -5805533.156 9  21515124.356
  24408535.700     5232766.768 5   2995269.324 9  24408541.149
 94  3 22 19 56 30.0010000  0  8 29  2 18 16 19 31 27 28
  23635180.169    11662248.085 6   9044425.981 9  23635187.134
  23041774.997    -8251366.399 6  -6324691.193 9  23041781.606
  21434356.935     5376617.628 7   4188915.823 9  21434360.919
  24523387.349     -298283.844 5   -203121.482 9  24523393.630
  21050127.169    -1649958.206 7  -1264717.474 9  21050130.603
  22228892.356    -2568743.654 7  -1956233.498 9  22228896.399
  21507145.716    -7557201.184 7  -5838189.160 9  21507149.489
  24422711.396     5307258.944 5   3053315.141 9  24422717.231
 94  3 22 19 57  0.0010000  0  8 29  2 18 16 19 31 27 28
  23655352.544    11768254.459 6   9127028.169 9  23655359.837
  23030355.552    -8311376.426 6  -6371452.171 9  23030362.278
  21448477.216     5450819.583 7   4246735.473 9  21448481.212
  24520175.833     -315158.345 5   -216270.457 9  24520182.067
  21050868.950    -1646059.561 7  -1261679.568 9  21050872.501
  22233763.997    -2543143.300 7  -1936285.167 9  22233768.286
  21499204.224    -7598935.611 7  -5870709.463 9  21499207.927
  24436973.981     5382211.163 5   3111719.431 9  24436981.028
 94  3 22 19 57 30.0010000  0  8 29  2 18 16 19 31 27 28
  23675576.067    11874530.334 6   9209840.356 9  23675583.208
  23018992.583    -8371088.194 6  -6417980.748 9  23018999.345
  21462688.099     5525496.089 7   4304924.899 9  21462692.106
  24517069.161     -331484.140 5   -228991.868 9  24517076.243
  21051656.536    -1641920.654 7  -1258454.449 9  21051660.087
  22238759.278    -2516893.052 7  -1915830.426 9  22238763.427
  21491294.146    -7640502.932 7  -5903099.566 9  21491297.849
  24451321.646     5457603.237 5   3170466.440 9  24451328.575
 94  3 22 19 58  0.0010000  0  8 29  2 18 16 19 31 27 28
  23695851.021    11981075.860 6   9292862.655 9  23695858.478
  23007685.856    -8430505.349 6  -6464279.750 9  23007692.489
  21476990.888     5600659.660 7   4363493.861 9  21476994.802
  24514064.396     -347276.155 5   -241297.348 9  24514071.360
  21052486.755    -1637557.578 7  -1255054.650 9  21052490.235
  22243874.239    -2490013.808 7  -1894885.556 9  22243878.306
  21483414.247    -7681912.217 7  -5935366.529 9  21483417.892
  24465747.544     5533413.073 5   3229538.990 9  24465753.192
 94  3 22 19 58 30.0010000  0  8 29  2 18 16 19 31 27 28
  23716176.974    12087889.265 6   9376093.691 9  23716183.892
  22996434.591    -8489630.203 6  -6510350.986 9  22996441.188
  21491384.716     5676298.136 8   4422432.871 9  21491388.724
  24511158.427     -362547.485 5   -253197.088 9  24511165.802
  21053356.927    -1632984.967 7  -1251491.582 9  21053360.407
  22249107.505    -2462512.710 7  -1873456.119 9  22249111.630
  21475561.622    -7723176.357 7  -5967520.389 9  21475565.185
  24480252.130     5609636.931 5   3288934.186 9  24480257.450
 94  3 22 19 59  0.0010000  0  8 29  2 18 16 19 31 27 28
  23736553.935    12194969.516 6   9459532.650 9  23736561.813
  22985237.239    -8548473.171 6  -6556202.571 9  22985243.743
  21505865.380     5752394.378 8   4481728.586 9  21505869.294
  24508351.450     -377297.207 5   -264690.368 9  24508358.954
  21054271.169    -1628180.452 7  -1247747.804 9  21054274.603
  22254456.021    -2434406.200 7  -1851554.934 9  22254460.017
  21467740.771    -7764276.415 7  -5999546.387 9  21467744.298
  24494838.528     5686285.490 5   3348660.300 9  24494844.048
 94  3 22 19 59 30.0010000  0  8 29  2 18 16 19 31 27 28
  23756978.411    12302299.427 5   9543166.156 9  23756986.231
  22974091.966    -8607040.981 6  -6601839.750 9  22974098.587
  21520435.114     5828958.884 8   4541389.178 9  21520439.087
  24505646.974     -391508.569 5   -275764.183 9  24505653.642
  21055231.841    -1623131.593 7  -1243813.627 9  21055235.239
  22259920.505    -2405689.259 7  -1829178.089 9  22259924.548
  21459954.271    -7805195.470 7  -6031431.345 9  21459957.950
  24509505.802     5763364.284 5   3408721.641 9  24509511.333
 94  3 22 20  0  0.0010000  0  8 29  2 18 16 19 31 27 28
  23777450.356    12409877.186 5   9626992.785 9  23777458.165
  22962998.864    -8665336.881 6  -6647265.043 9  22963005.321
  21535092.294     5905983.278 8   4601408.126 9  21535096.313
  24503047.935     -405169.007 5   -286408.687 9  24503054.923
  21056242.739    -1617820.783 7  -1239675.335 9  21056246.313
  22265502.896    -2376353.306 7  -1806318.904 9  22265507.138
  21452204.481    -7845920.133 7  -6063164.828 9  21452208.021
  24524258.474     5840893.008 5   3469133.577 9  24524263.571
 94  3 22 20  0 30.0010000  0  7 29  2 18 16 19 31 27
  23797964.599    12517680.117 5   9710994.858 9  23797972.442
  22951957.810    -8723357.532 6  -6692475.871 9  22951964.384
  21549833.310     5983447.841 8   4661770.064 9  21549837.235
  24500551.927     -418284.266 5   -296628.392 9  24500558.126
  21057303.763    -1612243.832 7  -1235329.660 9  21057307.407
  22271206.966    -2346378.241 7  -1782961.704 9  22271211.103
  21444494.864    -7886435.642 7  -6094735.330 9  21444498.286
 94  3 22 20  1  0.0010000  0  7 29  2 18 16 19 31 27
  23818517.341    12625682.755 5   9795152.555 9  23818524.915
  22940968.497    -8781106.081 6  -6737474.653 9  22940975.153
  21564658.872     6061355.639 8   4722477.374 9  21564662.892
  24498158.005     -430866.418 5   -306432.664 9  24498166.153
  21058414.778    -1606405.934 7  -1230780.649 9  21058418.376
  22277033.864    -2315757.742 7  -1759101.574 9  22277038.024
  21436827.505    -7926728.590 7  -6126132.416 9  21436830.892
 94  3 22 20  1 30.0010000  0  7 29  2 18 16 19 31 27
  23839107.169    12733882.975 5   9879464.212 9  23839114.767
  22930033.653    -8838567.996 6  -6782250.097 9  22930040.052
  21579569.325     6139711.225 8   4783533.614 9  21579573.356
  24495863.521     -442920.605 5   -315825.565 9  24495870.579
  21059571.310    -1600327.638 7  -1226044.315 9  21059575.024
  22282982.825    -2284495.085 7  -1734741.063 9  22282987.114
  21429200.974    -7966803.805 7  -6157359.832 9  21429204.442
 94  3 22 20  2  0.0010000  0  7 29  2 18 16 19 31 27
  23859738.591    12842304.177 5   9963948.050 9  23859746.036
  22919158.755    -8895717.006 6  -6826781.723 9  22919165.212
  21594564.950     6218513.120 8   4844937.628 9  21594569.134
  24493672.950     -454434.886 5   -324797.778 9  24493680.724
  21060774.169    -1594006.915 7  -1221119.072 9  21060777.813
  22289055.317    -2252583.994 7  -1709875.273 9  22289059.501
  21421619.216    -8006647.539 7  -6188406.877 9  21421622.685
 94  3 22 20  2 30.0010000  0  7 29  2 18 16 19 31 27
  23880416.849    12950967.317 5  10048620.430 9  23880424.271
  22908348.153    -8952525.835 6  -6871048.266 9  22908354.610
  21609648.380     6297775.840 8   4906700.722 9  21609652.411
  24491589.021     -465387.541 5   -333332.311 9  24491596.396
  21062025.685    -1587431.343 7  -1215995.239 9  21062029.247
  22295253.716    -2220011.546 7  -1684494.140 9  22295257.794
  21414083.771    -8046246.012 7  -6219262.811 9  21414087.099
 94  3 22 20  3  0.0010000  0  7 29  2 18 16 19 31 27
  23901147.255    13059904.319 5  10133506.196 9  23901155.333
  22897605.106    -9008981.778 7  -6915039.844 9  22897611.435
  21624826.294     6377535.965 8   4968851.407 9  21624830.372
  24489618.442     -475741.289 5   -341400.199 9  24489625.325
  21063331.114    -1580570.885 7  -1210649.428 9  21063334.642
  22301576.122    -2186787.558 7  -1658605.323 9  22301580.247
  21406597.317    -8085588.257 7  -6249919.081 9  21406600.610
 94  3 22 20  3 30.0010000  0  7 29  2 18 16 19 31 27
  23921935.263    13169147.155 5  10218630.253 9  23921943.048
  22886934.388    -9065055.397 6  -6958733.501 9  22886940.728
  21640101.450     6457808.156 8   5031401.104 9  21640105.575
  24487766.638     -485469.047 5   -348980.312 9  24487774.505
  21064694.169    -1573407.540 7  -1205067.598 9  21064697.755
  22308025.341    -2152896.568 7  -1632196.758 9  22308029.454
  21399160.700    -8124668.242 7  -6280370.987 9  21399164.122
 94  3 22 20  4  0.0010000  0  7 29  2 18 16 19 31 27
  23942787.700    13278728.545 5  10304018.145 9  23942795.403
  22876339.700    -9120730.138 7  -7002116.353 9  22876346.017
  21655477.005     6538607.432 8   5094361.519 9  21655481.095
  24486039.630     -494547.226 5   -356054.213 9  24486047.638
  21066120.661    -1565910.651 7  -1199225.860 9  21066124.341
  22314609.685    -2118295.783 7  -1605235.103 9  22314613.716
  21391775.778    -8163475.262 7  -6310610.198 9  21391779.130
 94  3 22 20  4 30.0010000  0  7 29  2 18 16 19 31 27
  23963704.802    13388647.331 5  10389668.934 9  23963712.786
  22865820.778    -9176008.685 7  -7045190.487 9  22865827.212
  21670957.419     6619956.774 8   5157750.552 9  21670961.474
  24484434.231     -502983.139 5   -362627.678 9  24484442.720
  21067612.724    -1558070.531 7  -1193116.676 9  21067616.474
  22321330.825    -2082975.957 7  -1577713.152 9  22321334.903
  21384441.856    -8202015.635 7  -6340641.633 9  21384445.231
 94  3 22 20  5  0.0010000  0  7 29  2 18 16 19 31 27
  23984684.942    13498896.153 5  10475576.882 9  23984692.927
  22855375.185    -9230899.545 7  -7087962.529 9  22855381.524
  21686544.052     6701865.041 8   5221575.113 9  21686548.411
  24482947.106     -510798.820 5   -368717.834 9  24482954.681
  21069167.895    -1549898.375 7  -1186748.758 9  21069171.540
  22328186.544    -2046948.157 7  -1549639.536 9  22328190.681
  21377157.247    -8240294.951 7  -6370469.641 9  21377160.587
 94  3 22 20  5 30.0010000  0  7 29  2 18 16 19 31 27
  24005724.083    13609455.477 5  10561726.784 9  24005732.243
  22844999.724    -9285422.967 7  -7130448.249 9  22845006.052
  21702230.177     6784296.278 8   5285807.178 9  21702234.571
  24481573.442     -518016.991 5   -374342.433 9  24481580.735
  21070782.903    -1541411.252 7  -1180135.411 9  21070786.747
  22335178.450    -2010206.493 7  -1521009.663 9  22335182.552
  21369919.911    -8278327.720 7  -6400105.537 9  21369923.310
 94  3 22 20  6  0.0010000  0  7 29  2 18 16 19 31 27
  24026818.161    13720306.274 5  10648103.812 9  24026826.462
  22834690.747    -9339595.626 7  -7172660.656 9  22834697.146
  21718013.106     6867235.715 7   5350435.250 9  21718017.466
  24480315.130     -524631.138 5   -379496.344 9  24480322.153
  21072458.130    -1532606.781 7  -1173274.782 9  21072461.903
  22342302.974    -1972767.653 7  -1491836.538 9  22342307.099
  21362729.114    -8316115.368 7  -6429550.430 9  21362732.724
 94  3 22 20  6 30.0010000  0  7 29  2 18 16 19 31 27
  24047960.927    13831412.111 5  10734679.577 9  24047969.649
  22824445.763    -9393433.825 7  -7214612.442 9  22824452.161
  21733887.310     6950655.914 8   5415437.934 9  21733891.833
  24479169.599     -530647.995 5   -384184.824 9  24479176.255
  21074190.614    -1523503.030 7  -1166180.936 9  21074194.306
  22349550.755    -1934678.367 7  -1462156.570 9  22349554.962
  21355585.177    -8353655.947 7  -6458802.799 9  21355588.763
 94  3 22 20  7  0.0010000  0  7 29  2 18 16 19 31 27
  24069149.138    13942754.058 5  10821439.314 9  24069157.192
  22814263.911    -9446938.457 7  -7256304.302 9  22814270.239
  21749846.442     7034520.893 7   5480787.201 9  21749850.837
  24478140.208     -536059.736 5   -388401.792 9  24478146.677
  21075977.185    -1514114.465 7  -1158865.165 9  21075980.841
  22356920.989    -1895946.821 7  -1431976.138 9  22356925.032
  21348489.646    -8390944.605 7  -6487858.868 9  21348493.126
 94  3 22 20  7 30.0010000  0  7 29  2 18 16 19 31 27
  24090377.161    14054307.947 5  10908364.189 9  24090385.696
  22804141.833    -9500132.711 7  -7297754.314 9  22804148.044
  21765884.231     7118799.369 8   5546458.670 9  21765888.661
  24477226.919     -540857.594 5   -392140.433 9  24477233.212
  21077815.536    -1504454.090 7  -1151337.601 9  21077819.251
  22364412.872    -1856577.755 7  -1401298.938 9  22364417.021
  21341439.646    -8427991.498 7  -6516726.545 9  21341443.149
 94  3 22 20  8  0.0010000  0  7 29  2 18 16 19 31 27
  24111642.481    14166055.211 5  10995439.740 9  24111650.853
  22794074.435    -9553035.480 7  -7338977.185 9  22794080.903
  21782001.356     7203493.560 7   5612454.079 9  21782005.833
  24476426.067     -545068.514 5   -395421.706 9  24476434.438
  21079701.513    -1494543.029 7  -1143614.696 9  21079705.181
  22372020.802    -1816597.613 7  -1370145.577 9  22372024.997
  21334433.427    -8464808.676 7  -6545415.229 9  21334436.837
 94  3 22 20  8 30.0010000  0  7 29  2 18 16 19 31 27
  24132940.153    14277976.887 5  11082651.196 9  24132948.044
  22784057.146    -9605676.554 7  -7379996.145 9  22784063.380
  21798193.966     7288587.412 7   5678760.909 9  21798198.454
  24475724.888     -548751.522 5   -398291.611 9  24475732.579
  21081627.708    -1484421.527 7  -1135727.809 9  21081631.341
  22379742.372    -1776020.387 7  -1338526.958 9  22379746.485
  21327465.067    -8501429.584 7  -6573950.973 9  21327468.454
 94  3 22 20  9  0.0010000  0  7 29  2 18 16 19 31 27
  24154274.153    14390086.013 5  11170008.725 9  24154282.806
  22774088.669    -9658061.654 7  -7420815.642 9  22774094.938
  21814467.450     7374103.983 7   5745397.130 9  21814471.938
  24475122.724     -551918.435 5   -400759.376 9  24475129.333
  21083595.646    -1474078.722 7  -1127668.488 9  21083599.302
  22387581.153    -1734826.268 7  -1306427.652 9  22387585.290
  21320532.864    -8537857.419 7  -6602336.278 9  21320536.368
 94  3 22 20  9 30.0010000  0  7 29  2 18 16 19 31 27
  24175644.481    14502389.596 5  11257517.778 9  24175653.403
  22764165.247    -9710208.750 7  -7461449.677 9  22764171.645
  21830822.138     7460048.917 7   5812367.136 9  21830826.438
  24474612.817     -554597.288 5   -402846.832 9  24474620.017
  21085605.091    -1463521.453 7  -1119442.047 9  21085608.700
  22395532.466    -1693043.732 7  -1273869.835 9  22395536.661
  21313635.044    -8574104.656 7  -6630580.860 9  21313638.513
 94  3 22 20 10  0.0010000  0  7 29  2 18 16 19 31 27
  24197052.489    14614884.800 5  11345176.137 9  24197061.024
  22754288.849    -9762109.625 7  -7501891.852 9  22754295.317
  21847257.458     7546417.093 7   5879666.946 9  21847261.853
  24474190.302     -556814.885 5   -404574.849 9  24474197.243
  21087652.966    -1452758.209 7  -1111055.114 9  21087656.692
  22403590.716    -1650696.568 7  -1240872.051 9  22403594.724
  21306768.841    -8610187.029 7  -6658696.976 9  21306772.427
 94  3 22 20 10 30.0010000  0  7 29  2 18 16 19 31 27
  24218494.872    14727563.800 5  11432977.733 9  24218503.278
  22744459.880    -9813761.274 7  -7542139.827 9  22744465.997
  21863767.505     7633176.404 7   5947271.530 9  21863771.911
  24473857.638     -558565.865 5   -405939.308 9  24473865.294
  21089740.513    -1441787.989 7  -1102506.890 9  21089744.110
  22411754.599    -1607794.989 7  -1207442.259 9  22411758.700
  21299934.036    -8646104.172 7  -6686684.347 9  21299937.645
 94  3 22 20 11  0.0010000  0  7 29  2 18 16 19 31 27
  24239971.247    14840421.842 5  11520918.842 9  24239979.478
  22734680.810    -9865149.568 7  -7582182.594 9  22734687.114
  21880350.270     7720319.574 7   6015175.226 9  21880354.876
  24473620.497     -559813.041 5   -406911.150 9  24473627.954
  21091871.653    -1430589.183 7  -1093780.556 9  21091875.157
  22420024.333    -1564336.852 7  -1173578.783 9  22420028.540
  21293132.161    -8681847.986 7  -6714536.656 9  21293135.665
 94  3 22 20 11 30.0010000  0  7 29  2 18 16 19 31 27
  24261480.974    14953456.161 5  11608997.308 9  24261489.392
  22724956.005    -9916253.286 7  -7622003.607 9  22724962.474
  21897003.286     7807832.722 7   6083367.219 9  21897007.856
  24473483.060     -560534.808 5   -407473.600 9  24473489.966
  21094044.786    -1419169.507 7  -1084882.116 9  21094048.431
  22428402.739    -1520308.800 7  -1139271.219 9  22428406.817
  21286362.091    -8717424.930 7  -6742258.935 9  21286365.700
 94  3 22 20 12  0.0010000  0  7 29  2 18 16 19 31 27
  24283018.599    15066636.606 5  11697189.620 9  24283028.036
  22715282.763    -9967086.075 7  -7661613.514 9  22715289.079
  21913719.880     7895678.593 7   6151818.472 9  21913724.661
  24473444.356     -560738.629 5   -407632.468 9  24473450.591
  21096257.685    -1407539.983 7  -1075820.162 9  21096261.458
  22436889.942    -1475707.883 7  -1104517.270 9  22436894.067
  21279622.622    -8752840.658 7  -6769855.594 9  21279626.126
 94  3 22 20 12 30.0010000  0  7 29  2 18 16 19 31 27
  24304583.481    15179958.336 5  11785492.016 9  24304592.427
  22705660.052   -10017654.492 7  -7701017.410 9  22705666.333
  21930497.755     7983847.812 7   6220521.687 9  21930502.489
  24473506.091     -560412.313 5   -407378.244 9  24473514.192
  21098510.646    -1395699.720 7  -1066593.997 9  21098514.384
  22445488.333    -1430523.512 7  -1069308.676 9  22445492.458
  21272916.020    -8788083.332 7  -6797317.407 9  21272919.431
 94  3 22 20 13  0.0010000  0  7 29  2 18 16 19 31 27
  24326169.372    15293389.608 5  11873879.755 9  24326179.267
  22696081.630   -10067987.759 7  -7740238.076 9  22696088.075
  21947335.356     8072328.207 7   6289467.378 9  21947340.103
  24473663.544     -559584.915 5   -406733.563 9  24473670.294
  21100798.271    -1383679.249 7  -1057227.401 9  21100801.880
  22454192.192    -1384783.440 7  -1033667.066 9  22454196.493
  21266237.880    -8823178.444 7  -6824664.236 9  21266241.325
 94  3 22 20 13 30.0010000  0  7 29  2 18 16 19 31 27
  24347773.817    15406926.063 5  11962349.437 9  24347784.204
  22686544.341   -10118105.922 7  -7779291.124 9  22686550.599
  21964230.646     8161113.687 7   6358650.800 9  21964235.228
  24473908.911     -558294.947 5   -405728.392 8  24473916.087
  21103117.474    -1371491.307 7  -1047730.316 9  21103121.247
  22462997.388    -1338511.407 7   -997610.939 9  22463001.794
  21259591.356    -8858106.619 7  -6851880.986 9  21259594.731
 94  3 22 20 14  0.0010000  0  7 29  2 18 16 19 31 27
  24369399.138    15520568.041 5  12050901.377 9  24369409.313
  22677047.802   -10168010.294 7  -7818177.592 9  22677054.200
  21981187.888     8250223.006 7   6428086.562 9  21981192.552
  24474240.614     -556553.088 5   -404371.160 9  24474248.024
  21105471.185    -1359122.843 7  -1038092.565 9  21105474.981
  22471901.552    -1291720.331 7   -961150.360 9  22471905.864
  21252980.981    -8892844.170 8  -6878949.205 9  21252984.204
 94  3 22 20 14 30.0010000  0  7 29  2 18 16 19 31 27
  24391039.981    15634288.011 5  12139514.068 9  24391050.638
  22667586.841   -10217727.971 7  -7856918.572 9  22667593.356
  21998204.692     8339647.804 7   6497768.148 9  21998209.368
  24474654.216     -554382.474 5   -402679.799 9  24474662.610
  21107855.153    -1346594.680 7  -1028330.370 9  21107858.938
  22480896.661    -1244452.003 7   -924317.902 9  22480900.892
  21246399.060    -8927433.028 8  -6905901.559 9  21246402.235
 94  3 22 20 15  0.0010000  0  7 29  2 18 16 19 31 27
  24412694.208    15748079.182 5  12228182.240 9  24412702.954
  22658160.153   -10267264.823 7  -7895518.649 9  22658166.575
  22015282.794     8429394.408 7   6567700.498 9  22015287.540
  24475145.927     -551797.004 5   -400665.209 9  24475153.876
  21110270.536    -1333902.905 7  -1018440.683 9  21110274.286
  22489981.935    -1196708.965 7   -887115.532 9  22489986.153
  21239843.130    -8961884.629 8  -6932746.956 9  21239846.247
 94  3 22 20 15 30.0010000  0  7 29  2 18 16 19 31 27
  24434363.419    15861954.179 5  12316915.746 9  24434372.950
  22648773.364   -10316593.280 7  -7933956.349 9  22648779.763
  22032423.661     8519468.550 7   6637888.069 9  22032428.220
  24475720.146     -548781.801 5   -398315.744 9  24475726.872
  21112719.950    -1321030.990 7  -1008410.628 9  21112723.606
  22499161.942    -1148465.698 7   -849523.376 9  22499165.985
  21233314.833    -8996190.661 8  -6959478.914 9  21233317.997
 94  3 22 20 16  0.0010000  0  7 29  2 18 16 19 31 27
  24456047.841    15975904.085 5  12405707.630 9  24456057.290
  22639429.216   -10365696.506 7  -7972218.542 9  22639435.696
  22049626.466     8609868.530 7   6708329.540 9  22049630.978
  24476380.911     -545307.047 5   -395608.188 9  24476388.649
  21115204.208    -1307975.727 7   -998237.699 9  21115207.853
  22508440.864    -1099705.136 7   -811528.127 9  22508444.978
  21226808.903    -9030380.614 8  -6986120.425 9  21226812.044
 94  3 22 20 16 30.0010000  0  7 29  2 18 16 19 31 27
  24477747.911    16089935.329 5  12494562.901 8  24477756.200
  22630129.622   -10414565.252 7  -8010298.024 9  22630135.985
  22066892.021     8700600.359 7   6779029.596 9  22066896.649
  24477132.692     -541356.510 5   -392529.866 9  24477139.950
  21117724.935    -1294729.712 7   -987916.137 9  21117728.544
  22517821.630    -1050408.939 7   -773115.506 9  22517825.661
  21220324.091    -9064457.500 8  -7012673.837 9  21220327.161
 94  3 22 20 17  0.0010000  0  6  2 18 16 19 31 27
  22620877.497   -10463186.340 7  -8048184.523 9  22620883.708
  22084220.411     8791662.143 7   6849986.761 9  22084225.087
  24477972.333     -536943.432 5   -389091.144 9  24477979.966
  21120277.700    -1281314.186 7   -977462.486 9  21120281.321
  22527304.786    -1000574.001 7   -734283.082 9  22527308.876
  21213864.185    -9098404.994 8  -7039126.419 9  21213867.290
 94  3 22 20 17 30.0010000  0  6  2 18 16 19 31 27
  22611672.833   -10511556.111 7  -8085875.191 9  22611678.892
  22101612.122     8883055.474 7   6921202.269 9  22101616.868
  24478901.888     -532062.104 5   -385287.547 9  24478908.946
  21122861.583    -1267736.700 8   -966882.628 9  21122865.134
  22536888.302     -950213.954 7   -695041.488 9  22536892.438
  21207430.591    -9132213.057 8  -7065470.352 9  21207433.767
 94  3 22 20 18  0.0010000  0  6  2 18 16 19 31 27
  22602511.513   -10559699.690 7  -8123389.602 9  22602517.771
  22119068.435     8974790.779 7   6992684.249 9  22119073.204
  24479919.216     -526713.852 5   -381120.117 9  24479927.540
  21125476.747    -1253992.817 8   -956173.109 9  21125480.298
  22546567.052     -899351.489 7   -655408.400 9  22546571.130
  21201023.091    -9165884.681 8  -7091707.967 9  21201026.255
 94  3 22 20 18 30.0010000  0  6  2 18 16 19 31 27
  22593391.825   -10607624.807 7  -8160733.789 9  22593397.157
  22136590.364     9066867.923 7   7064432.599 9  22136595.122
  24481023.950     -520911.012 5   -376598.476 9  24481031.325
  21128125.099    -1240076.385 8   -945329.132 9  21128128.614
  22556338.888     -848000.582 7   -615394.704 9  22556342.978
  21194644.528    -9199403.139 8  -7117826.233 9  21194647.751
 94  3 22 20 19  0.0010000  0  6  2 18 16 19 31 27
  22584313.872   -10655329.276 7  -8197906.034 9  22584319.146
  22154173.778     9159268.806 7   7136433.208 9  22154178.583
  24482215.575     -514647.249 5   -371717.649 9  24482223.138
  21130811.052    -1225962.277 8   -934331.124 9  21130814.497
  22566205.669     -796150.542 7   -574992.079 9  22566209.853
  21188297.481    -9232758.491 8  -7143817.405 9  21188300.563
 94  3 22 20 19 30.0010000  0  6  2 18 16 19 31 27
  22575273.060   -10702836.971 7  -8234924.955 9  22575278.427
  22171815.435     9251976.358 7   7208672.777 9  22171820.228
  24483497.271     -507912.738 5   -366470.047 9  24483504.927
  21133538.692    -1211628.554 8   -923161.986 9  21133542.032
  22576166.536     -743805.124 7   -534203.447 9  22576170.720
  21181977.810    -9265968.982 8  -7169695.689 9  21181981.009
 94  3 22 20 20  0.0010000  0  6  2 18 16 19 31 27
  22566271.646   -10750141.317 7  -8271785.415 9  22566276.790
  22189512.388     9344974.393 7   7281138.694 9  22189517.403
  24484868.278     -500708.265 5   -360856.203 9  24484875.325
  21136310.810    -1197061.673 8   -911811.165 9  21136314.149
  22586225.013     -690946.594 7   -493014.993 9  22586229.149
  21175684.794    -9299038.327 8  -7195463.991 9  21175687.981
 94  3 22 20 20 30.0010000  0  6  2 18 16 19 31 27
  22557314.450   -10797210.897 7  -8308462.942 9  22557319.618
  22207261.841     9438247.454 7   7353818.921 9  22207266.692
  24486327.341     -493042.202 5   -354882.715 9  24486334.032
  21139126.872    -1182263.697 8   -900280.269 9  21139130.060
  22596386.497     -637547.152 7   -451405.052 9  22596390.657
  21169420.575    -9331957.508 8  -7221115.277 9  21169423.610
 94  3 22 20 21  0.0010000  0  6  2 18 16 19 31 27
  22548404.974   -10844031.421 7  -8344946.403 9  22548409.978
  22225064.325     9531799.011 7   7426716.152 9  22225069.364
  24487874.645     -484908.766 5   -348545.017 9  24487882.384
  21141986.106    -1167237.177 8   -888571.291 9  21141989.399
  22606652.044     -583603.010 7   -409370.666 9  22606656.228
  21163185.560    -9364722.214 8  -7246646.197 9  21163188.712
 94  3 22 20 21 30.0010000  0  6  2 18 16 19 31 27
  22539543.294   -10890598.852 7  -8381232.639 9  22539548.509
  22242923.802     9625652.358 7   7499848.544 9  22242928.829
  24489510.669     -476315.648 5   -341849.125 9  24489518.642
  21144885.622    -1151999.865 8   -876698.062 9  21144888.950
  22617017.966     -529129.690 7   -366923.937 9  22617022.056
  21156982.489    -9397319.029 8  -7272046.295 9  21156985.524
 94  3 22 20 22  0.0010000  0  6  2 18 16 19 31 27
  22530733.942   -10936892.582 7  -8417305.605 9  22530738.899
  22260844.614     9719825.601 7   7573230.207 9  22260849.618
  24491232.888     -467262.392 5   -334794.671 9  24491241.013
  21147824.786    -1136554.551 8   -864662.745 9  21147828.079
  22627486.020     -474118.118 7   -324057.795 9  22627489.899
  21150818.052    -9429714.006 8  -7297289.115 9  21150821.063
 94  3 22 20 22 30.0010000  0  6  2 18 16 19 31 27
  22521975.239   -10982919.131 7  -8453170.386 9  22521980.161
  22278826.474     9814320.866 7   7646862.799 9  22278831.325
  24493041.935     -457755.780 5   -327386.958 9  24493048.829
  21150800.802    -1120915.199 8   -852476.238 9  21150804.095
  22638052.872     -418589.948 7   -280789.102 9  22638056.997
  21144693.278    -9461899.176 8  -7322368.453 9  21144696.489
 94  3 22 20 23  0.0010000  0  6  2 18 16 19 31 27
  22513259.700   -11028719.028 7  -8488858.547 9  22513264.704
  22296870.544     9909143.404 7   7720750.401 9  22296875.489
  24494937.333     -447793.610 5   -319624.262 9  24494945.540
  21153812.185    -1105091.527 8   -840146.107 9  21153815.454
  22648712.716     -362571.801 7   -237138.614 9  22648716.806
  21138609.185    -9493871.021 8  -7347281.557 9  21138612.278
 94  3 22 20 23 30.0010000  0  6  2 18 16 19 31 27
  22504584.388   -11074307.265 7  -8524381.786 9  22504589.286
  22314975.981    10004286.345 7   7794887.674 9  22314981.056
  24496918.380     -437385.376 5   -311514.026 9  24496925.345
  21156857.997    -1089084.629 8   -827673.199 9  21156861.372
  22659468.333     -306050.707 7   -193096.215 9  22659472.423
  21132565.950    -9525627.940 7  -7372027.181 9  21132569.126
 94  3 22 20 24  0.0010000  0  6  2 18 16 19 31 27
  22495946.044   -11119702.551 7  -8559754.674 9  22495950.966
  22333135.888    10099718.372 7   7869250.205 9  22333140.903
  24498983.419     -426536.075 5   -303060.068 9  24498991.298
  21159937.419    -1072900.888 8   -815062.493 9  21159940.899
  22670317.622     -249036.664 7   -148669.697 9  22670321.606
  21126559.317    -9557193.086 7  -7396623.382 9  21126562.493
 94  3 22 20 24 30.0010000  0  6  2 18 16 19 31 27
  22487341.763   -11164919.068 7  -8594988.262 9  22487346.696
  22351348.872    10195426.502 7   7943827.883 9  22351353.688
  24501130.997     -415250.283 5   -294266.000 9  24501138.407
  21163050.247    -1056543.432 8   -802316.423 9  21163053.739
  22681258.403     -191542.837 7   -103869.328 9  22681262.681
  21120583.669    -9588595.784 7  -7421092.999 9  21120586.810
 94  3 22 20 25  0.0010000  0  6  2 18 16 19 31 27
  22478770.489   -11209960.863 7  -8630085.704 9  22478775.317
  22369615.419    10291418.812 7   8018626.998 9  22369620.493
  24503363.341     -403517.093 5   -285123.298 9  24503370.704
  21166199.520    -1039993.906 8   -789420.689 9  21166202.919
  22692293.614     -133552.108 7    -58681.762 9  22692297.681
  21114637.567    -9619841.744 7  -7445440.480 9  21114640.813
 94  3 22 20 25 30.0010000  0  6  2 18 16 19 31 27
  22470237.130   -11254803.075 7  -8665027.633 9  22470241.888
  22387932.630    10387675.829 7   8093632.376 9  22387937.716
  24505681.325     -391338.346 5   -275633.416 9  24505688.595
  21169387.521    -1023241.631 8   -776366.969 9  21169390.802
  22703422.489      -75069.263 7    -13110.718 9  22703426.591
  21108718.208    -9650948.591 7  -7469679.569 9  21108721.349
 94  3 22 20 26  0.0010000  0  6  2 18 16 19 31 27
  22461745.075   -11299429.819 7  -8699801.660 9  22461749.845
  22406301.778    10484205.400 7   8168850.135 9  22406306.712
  24508085.239     -378706.036 5   -265790.122 9  24508092.685
  21172615.099    -1006280.582 8   -763150.566 9  21172618.521
  22714642.606      -16106.998 7     32833.901 9  22714646.802
  21102824.872    -9681918.020 7  -7493811.573 9  21102828.165
 94  3 22 20 26 30.0010000  0  6  2 18 16 19 31 27
  22453297.685   -11343818.501 7  -8734390.192 9  22453302.524
  22424726.146    10581025.800 7   8244294.509 9  22424730.962
  24510576.364     -365615.900 5   -255590.068 9  24510583.974
  21175883.888     -989102.256 8   -749764.859 9  21175887.474
  22725955.060       43339.337 7     79155.710 9  22725959.454
  21096961.231    -9712731.475 7  -7517822.041 9  21096964.466
 94  3 22 20 27  0.0010000  0  6  2 18 16 19 31 27
  22444895.239   -11387975.387 7  -8768798.103 9  22444899.950
  22443201.997    10678116.562 7   8319949.558 9  22443206.649
  24513154.294     -352068.534 5   -245033.721 9  24513161.657
  21179190.755     -971724.585 7   -736223.819 9  21179194.505
  22737357.575      103260.085 7    125847.195 9  22737361.817
  21091126.060    -9743395.180 7  -7541715.821 9  21091129.341
 94  3 22 20 27 30.0010000  0  6  2 18 16 19 31 27
  22436538.231   -11431890.934 7  -8803017.956 9  22436543.071
  22461728.106    10775471.532 7   8395810.478 9  22461733.005
  24515820.958     -338055.080 5   -234114.208 9  24515828.403
  21182533.497     -954158.521 8   -722535.979 9  21182537.153
  22748847.427      163639.855 7    172896.370 9  22748851.411
  21085321.685    -9773898.325 7  -7565484.495 9  21085324.954
 94  3 22 20 28  0.0010000  0  6  2 18 16 19 31 27
  22428227.192   -11475564.930 7  -8837049.595 9  22428232.056
  22480307.747    10873107.945 7   8471890.705 9  22480312.622
  24518578.763     -323562.047 5   -222821.001 9  24518586.290
  21185911.161     -936409.595 7   -708705.655 9  21185914.665
  22760427.317      224491.680 7    220313.358 9  22760431.466
  21079551.544    -9804219.966 7  -7589111.735 9  21079554.802
 94  3 22 20 28 30.0010000  0  6  2 18 16 19 31 27
  22419960.263   -11519009.354 7  -8870902.342 9  22419965.220
  22498939.138    10971015.455 7   8548182.177 9  22498944.165
  24521429.067     -308586.319 5   -211151.660 9  24521436.817
  21189324.021     -918474.534 8   -694730.285 9  21189327.407
  22772097.286      285818.049 7    268100.133 9  22772101.329
  21073817.817    -9834351.473 7  -7612590.818 9  21073820.993
 94  3 22 20 29  0.0010000  0  6  2 18 16 19 31 27
  22411735.153   -11562230.768 7  -8904581.314 9  22411740.146
  22517622.685    11069197.918 7   8624687.895 9  22517627.700
  24524370.286     -293128.704 5   -199106.825 9  24524377.239
  21192774.325     -900342.023 8   -680601.060 9  21192777.759
  22783859.067      347626.792 7    316262.780 9  22783863.017
  21068120.778    -9864288.248 7  -7635918.167 9  21068124.001
 94  3 22 20 29 30.0010000  0  6  2 18 16 19 31 27
  22403555.067   -11605217.735 7  -8938077.598 9  22403559.966
  22536359.997    11167662.941 7   8701413.795 9  22536364.755
  24527399.200     -277210.936 5   -186703.446 9  24527406.997
  21196267.169     -881986.890 7   -666298.368 9  21196270.790
  22795712.708      409917.389 7    364800.897 9  22795716.505
  21062464.403    -9894013.183 7  -7659080.441 9  21062467.720
 94  3 22 20 30  0.0010000  0  6  2 18 16 19 31 27
  22395419.021   -11647973.247 7  -8971393.530 9  22395423.919
  22555152.692    11266418.581 7   8778366.144 9  22555157.638
  24530510.153     -260863.122 5   -173964.960 9  24530517.388
  21199805.442     -863392.633 7   -651809.345 9  21199809.122
  22807659.396      472698.626 7    413721.328 9  22807663.415
  21056848.567    -9923524.872 7  -7682076.547 9  21056851.825
 94  3 22 20 30 30.0010000  0  6  2 18 16 19 31 27
  22387328.817   -11690487.347 7  -9004521.349 9  22387333.657
  22573999.114    11365456.800 7   8855538.681 9  22574004.142
  24533698.677     -244105.497 5   -160907.138 9  24533707.153
  21203391.614     -844548.580 7   -637125.671 9  21203395.329
  22819698.028      535961.256 7    463016.868 9  22819702.165
  21051274.231    -9952818.467 7  -7704902.711 9  21051277.349
 94  3 22 20 31  0.0010000  0  6  2 18 16 19 31 27
  22379287.567   -11732743.964 7  -9037448.531 9  22379292.478
  22592899.528    11464778.222 7   8932931.890 9  22592904.438
  24536965.520     -226940.740 5   -147532.081 9  24536973.481
  21207024.849     -825455.296 7   -622247.792 9  21207028.575
  22831829.974      599714.223 7    512694.491 9  22831834.087
  21045741.427    -9981893.904 7  -7727558.886 9  21045744.474
 94  3 22 20 31 30.0010000  0  6  2 18 16 19 31 27
  22371296.247   -11774738.919 7  -9070171.822 9  22371301.251
  22611852.560    11564376.437 7   9010540.780 9  22611857.716
  24540310.286     -209365.753 5   -133837.357 9  24540317.872
  21210705.747     -806111.896 7   -607175.023 9  21210709.521
  22844056.903      663967.591 7    562762.027 9  22844061.146
  21040250.942   -10010747.009 7  -7750041.816 9  21040254.024
 94  3 22 20 32  0.0010000  0  7  7  2 18 16 19 31 27
  24622560.528      -37369.272 5
  22363350.864   -11816492.173 7  -9102706.773 9  22363355.716
  22630855.583    11664237.899 7   9088354.796 9  22630860.575
  24543734.060     -191370.735 5   -119815.330 9  24543741.962
  21214428.841     -786547.070 7   -591929.715 9  21214432.661
  22856379.927      728726.188 7    613223.242 9  22856384.052
  21034800.575   -10039388.465 8  -7772359.823 9  21034803.634
 94  3 22 20 32 30.0010000  0  7  7  2 18 16 19 31 27
  24603168.950     -139272.413 5
  22355453.083   -11857994.590 7  -9135046.270 9  22355458.040
  22649907.638    11764357.599 7   9166370.036 9  22649912.935
  24547247.896     -172910.447 5   -105430.754 9  24547255.540
  21218194.903     -766756.938 7   -576508.841 9  21218198.700
  22868804.716      794016.382 7    664098.694 9  22868808.712
  21029393.341   -10067804.222 8  -7794501.963 9  21029396.458
 94  3 22 20 33  0.0010000  0  7  7  2 18 16 19 31 27
  24583785.099     -241135.451 5    -66140.16719  24583796.177
  22347600.849   -11899258.488 7  -9167199.906 9  22347605.618
  22669010.630    11864744.403 7   9244593.407 9  22669015.669
  24550852.200     -153966.790 5    -90669.515 9  24550859.493
  21222005.802     -746730.421 7   -560903.774 9  21222009.599
  22881332.161      859850.037 7    715397.625 9  22881336.438
  21024027.911   -10095999.414 8  -7816472.228 9  21024030.923
 94  3 22 20 33 30.0010000  0  7  7  2 18 16 19 31 27
  24564411.583     -342943.750 5   -145471.082 9  24564422.825
  22339795.950   -11940274.332 7  -9199160.255 9  22339800.603
  22688168.739    11965419.198 7   9323041.184 9  22688174.083
  24554549.903     -134536.418 5    -75529.044 9  24554558.157
  21225863.989     -726454.901 7   -545104.675 9  21225867.540
  22893963.224      926226.798 7    767119.751 9  22893967.419
  21018708.497   -10123953.208 8  -7838254.390 9  21018711.497
 94  3 22 20 34  0.0010000  0  7  7  2 18 16 19 31 27
  24545049.231     -444694.249 5   -224756.962 9  24545060.181
  22332038.185   -11981039.494 7  -9230925.265 9  22332043.024
  22707380.833    12066379.360 7   9401711.328 9  22707386.095
  24558339.419     -114620.886 5    -60010.531 9  24558347.427
  21229767.606     -705941.386 7   -529120.123 9  21229771.321
  22906692.356      993118.474 7    819243.112 9  22906696.528
  21013434.169   -10151669.645 8  -7859851.604 9  21013437.228
 94  3 22 20 34 30.0010000  0  7  7  2 18 16 19 31 27
  24525698.700     -546377.200 5   -303990.190 9  24525709.872
  22324333.739   -12021526.520 7  -9262473.552 9  22324338.450
  22726651.505    12167646.438 7   9480620.623 9  22726656.603
  24562220.724      -94223.876 5    -44116.822 9  24562228.204
  21233721.239     -685164.651 7   -512930.466 9  21233724.942
  22919514.771     1060501.749 7    871749.535 9  22919518.919
  21008207.403   -10179136.417 8  -7881254.274 9  21008210.368
 94  3 22 20 35  0.0010000  0  7  7  2 18 16 19 31 27
  24506363.575     -647983.026 5   -383163.307 8  24506375.685
  22316684.544   -12061723.272 7  -9293795.649 9  22316689.466
  22745981.497    12269226.518 7   9559773.826 9  22745986.700
  24566190.286      -73367.092 5    -27864.982 9  24566198.411
  21237723.677     -664131.819 7   -496541.251 9  21237727.427
  22932426.231     1128351.673 7    924619.589 9  22932430.298
  21003028.481   -10206352.469 8  -7902461.577 9  21003031.341
 94  3 22 20 35 30.0010000  0  7  7  2 18 16 19 31 27
  24487045.060     -749501.902 5   -462268.676 9  24487055.060
  22309092.146   -12101621.527 7  -9324885.152 9  22309097.032
  22765371.692    12371121.623 7   9639172.495 9  22765377.013
  24570249.130      -52040.788 5    -11246.898 9  24570255.329
  21241775.161     -642841.297 7   -479951.242 9  21241779.028
  22945426.872     1196670.062 7    977854.677 9  22945431.044
  20997900.028   -10233302.446 8  -7923461.550 9  20997903.063
 94  3 22 20 36  0.0010000  0  7  7  2 18 16 19 31 27
  24467740.935     -850945.321 5   -541315.216 9  24467751.872
  22301553.778   -12141236.203 7  -9355753.682 9  22301558.630
  22784819.325    12473319.207 7   9718806.865 9  22784824.517
  24574398.052      -30233.392 5      5745.701 9  24574405.907
  21245875.692     -621292.562 7   -463160.024 9  21245879.571
  22958516.942     1265458.122 7   1031455.748 9  22958521.208
  20992817.864   -10260010.258 8  -7944272.820 9  20992820.911
 94  3 22 20 36 30.0010000  0  7  7  2 18 16 19 31 27
  24448452.052     -952309.168 5   -620299.772 9  24448462.052
  22294068.208   -12180573.721 7  -9386406.244 9  22294073.153
  22804324.739    12575820.559 7   9798677.934 9  22804330.118
  24578639.966       -7941.451 5     23115.970 9  24578648.431
  21250027.606     -599473.799 7   -446158.396 9  21250031.392
  22971700.966     1334738.862 7   1085440.722 9  22971704.985
  20987781.060   -10286477.627 8  -7964896.729 9  20987784.024
 94  3 22 20 37  0.0010000  0  7  7  2 18 16 19 31 27
  24429178.442    -1053590.612 5   -699220.098 9  24429188.618
  22286630.263   -12219659.444 7  -9416862.605 9  22286635.032
  22823885.708    12678613.050 7   9878775.863 9  22823891.063
  24582976.239       14843.089 5     40870.088 9  24582983.767
  21254230.981     -577386.482 7   -428947.500 9  21254234.813
  22984983.927     1404542.938 7   1139833.491 9  22984988.005
  20982788.302   -10312715.516 7  -7985341.820 9  20982791.431
 94  3 22 20 37 30.0010000  0  7  7  2 18 16 19 31 27
  24409916.950    -1154810.387 5   -778092.372 9  24409927.091
  22279237.825   -12258506.717 7  -9447133.165 9  22279242.571
  22843500.646    12781691.213 7   9959096.394 9  22843506.106
  24587405.778       38119.838 5     59007.733 9  24587413.599
  21258487.396     -555018.226 8   -411517.694 9  21258491.228
  22998369.724     1474884.661 7   1194645.201 9  22998373.907
  20977838.130   -10338727.499 7  -8005610.891 9  20977841.177
 94  3 22 20 38  0.0010000  0  7  7  2 18 16 19 31 27
  24390668.950    -1255957.361 5   -856907.911 9  24390679.138
  22271893.724   -12297099.761 7  -9477205.623 9  22271898.458
  22863169.349    12885049.741 7  10039635.391 9  22863174.833
  24591926.958       61877.560 5     77520.154 9  24591934.649
  21262798.255     -532365.056 8   -393865.873 9  21262801.899
  23011855.513     1545753.761 7   1249867.859 9  23011859.778
  20972929.856   -10364519.824 7  -8025708.793 9  20972932.927
 94  3 22 20 38 30.0010000  0  7  7  2 18 16 19 31 27
  24371437.442    -1357020.355 5   -935658.019 9  24371447.759
  22264598.755   -12335435.094 7  -9507077.271 9  22264603.466
  22882888.935    12988676.158 7  10120383.134 9  22882894.571
  24596534.567       86092.133 5     96388.590 9  24596542.235
  21267162.646     -509429.374 8   -375993.910 9  21267166.384
  23025440.810     1617144.968 7   1305497.347 9  23025444.782
  20968068.005   -10390070.437 7  -8045618.350 9  20968071.099
 94  3 22 20 39  0.0010000  0  7  7  2 18 16 19 31 27
  24352222.700    -1457991.082 5  -1014336.226 9  24352233.192
  22257353.403   -12373509.678 7  -9536745.725 9  22257358.161
  22902658.544    13092565.168 7  10201335.495 9  22902664.040
  24601228.021      110760.819 5    115610.866 9  24601237.106
  21271581.450     -486209.203 8   -357900.272 9  21271585.153
  23039122.427     1689042.677 7   1361521.506 9  23039126.728
  20963254.646   -10415364.191 7  -8065327.758 9  20963257.751
 94  3 22 20 39 30.0010000  0  7  7  2 18 16 19 31 27
  24333027.021    -1558866.087 5  -1092939.854 9  24333037.489
  22250160.950   -12411305.707 7  -9566197.130 9  22250165.579
  22922477.396    13196715.459 7  10282491.454 9  22922482.974
  24606009.411      135884.391 5    135187.604 8  24606018.017
  21276053.106     -462711.135 8   -339590.089 9  21276056.868
  23052894.919     1761418.550 7   1417918.269 9  23052899.067
  20958493.005   -10440387.405 7  -8084826.361 9  20958496.181
 94  3 22 20 40  0.0010000  0  7  7  2 18 16 19 31 27
  24313852.153    -1659629.461 5  -1171456.479 9  24313861.942
  22243022.724   -12448817.575 7  -9595427.112 9  22243027.481
  22942346.513    13301125.666 7  10363849.938 9  22942351.915
  24610879.880      161475.672 5    155128.768 9  24610887.911
  21280578.231     -438931.774 8   -321060.718 9  21280581.935
  23066757.271     1834264.253 7   1474681.117 9  23066761.454
  20953786.161   -10465121.617 7  -8104099.747 9  20953789.454
 94  3 22 20 40 30.0010000  0  7  7  2 18 16 19 31 27
  24294697.513    -1760287.301 5  -1249890.879 9  24294707.161
  22235937.114   -12486051.212 7  -9624440.293 9  22235941.755
  22962265.997    13405802.414 7  10445416.112 9  22962271.470
  24615840.700      187550.455 5    175446.741 7  24615848.403
  21285156.521     -414873.084 8   -302313.682 9  21285160.165
  23080710.192     1907586.464 7   1531815.289 9  23080714.118
  20949137.771   -10489548.655 7  -8123133.778 9  20949141.052
 94  3 22 20 41  0.0010000  0  7  7  2 18 16 19 31 27
  24275560.528    -1860849.615 5  -1328250.844 9  24275569.837
  22228904.849   -12523007.188 7  -9653237.116 9  22228909.653
  22982236.911    13510751.494 7  10527194.506 9  22982242.290
  24620897.325      214118.595 5    196149.129 9  24620904.017
  21289786.669     -390541.074 8   -283353.677 9  21289790.267
  23094750.356     1981368.807 7   1589307.986 9  23094754.528
  20944545.575   -10513679.659 7  -8141937.132 9  20944548.880
 94  3 22 20 41 30.0010000  0  7  7  2 18 16 19 31 27
  24256441.536    -1961317.924 5  -1406537.539 9  24256450.657
  22221928.786   -12559665.704 7  -9681802.150 9  22221933.591
  23002262.911    13615989.578 7  10609198.080 9  23002268.208
  24626048.778      241192.815 5    217245.872 8  24626054.462
  21294470.599     -365926.513 8   -264173.504 9  21294474.196
  23108881.005     2055625.913 6   1647170.631 9  23108885.294
  20940013.114   -10537497.963 7  -8160496.828 9  20940016.419
 94  3 22 20 42  0.0010000  0  7  7  2 18 16 19 31 27
  24237341.083    -2061692.088 5  -1484750.894 9  24237350.720
  22215008.770   -12596031.952 7  -9710139.449 9  22215013.517
  23022344.638    13721517.074 7  10691427.173 9  23022350.274
  24631295.989      268766.033 5    238731.409 9  24631302.446
  21299209.521     -341023.087 8   -244768.241 9  21299213.106
  23123103.021     2130361.908 7   1705406.425 9  23123107.134
  20935538.958   -10561010.199 7  -8178818.030 9  20935542.298
 94  3 22 20 42 30.0010000  0  7  7  2 18 16 19 31 27
  24218258.075    -2161970.889 5  -1562889.942 9  24218267.630
  22208142.544   -12632113.188 7  -9738254.665 9  22208147.231
  23042482.349    13827342.913 6  10773888.745 9  23042488.149
  24636634.950      296818.719 5    260590.592 8  24636643.567
  21304001.606     -315840.318 8   -225145.308 9  21304005.216
  23137414.989     2205571.847 7   1764011.538 9  23137419.196
  20931118.396   -10584240.290 7  -8196919.385 9  20931121.665
 94  3 22 20 43  0.0010000  0  7  7  2 18 16 19 31 27
  24199199.622    -2262125.231 5  -1640932.035 9  24199208.767
  22201333.231   -12667895.477 7  -9766136.926 9  22201337.919
  23062679.341    13933476.666 6  10856590.248 9  23062684.731
  24642062.817      325346.436 5    282819.921 8  24642071.915
  21308851.974     -290352.192 8   -205284.435 9  21308855.642
  23151821.638     2281280.771 6   1823005.483 9  23151825.856
  20926753.153   -10607180.504 7  -8214794.857 9  20926756.493
 94  3 22 20 43 30.0010000  0  7  7  2 18 16 19 31 27
  24180165.825    -2362147.242 5  -1718870.998 9  24180175.380
  22194577.060   -12703399.334 7  -9793802.232 9  22194581.864
  23082930.700    14039899.170 6  10939516.751 9  23082936.478
  24647578.802      354327.716 4    305402.660 8  24647584.942
  21313759.903     -264559.534 8   -185186.263 9  21313763.665
  23166323.997     2357491.166 6   1882390.172 9  23166328.298
  20922440.153   -10629845.069 7  -8232455.537 9  20922443.376
 94  3 22 20 44  0.0010000  0  7  7  2 18 16 19 31 27
  24161163.380    -2462006.480 5  -1796683.136 9  24161172.606
  22187873.278   -12738628.712 7  -9821253.659 9  22187877.884
  23103235.661    14146602.430 6  11022662.023 9  23103241.497
  24653177.153      383747.725 4    328327.297 9  24653186.017
  21318727.864     -238453.800 8   -164844.138 9  21318731.556
  23180922.653     2434207.436 6   1942169.044 9  23180927.048
  20918177.474   -10652245.619 7  -8249910.488 9  20918180.767
 94  3 22 20 44 30.0010000  0  7  7  2 18 16 19 31 27
  24142192.731    -2561696.174 5  -1874363.186 9  24142201.735
  22181219.880   -12773591.579 7  -9848497.411 9  22181224.532
  23123590.841    14253567.873 6  11106011.594 9  23123596.431
  24658854.700      413585.011 4    351577.027 8  24658863.083
  21323752.646     -212047.835 8   -144268.069 9  21323756.431
  23195617.372     2511429.261 6   2002341.864 9  23195621.591
  20913965.833   -10674377.402 7  -8267156.015 9  20913969.185
 94  3 22 20 45  0.0010000  0  7  7  2 18 16 19 31 27
  24123255.763    -2661209.208 5  -1951905.613 9  24123264.544
  22174618.278   -12808284.036 7  -9875530.457 9  22174622.837
  23143991.864    14360775.094 6  11189549.560 9  23143997.817
  24664613.763      443847.936 4    375158.459 8  24664622.790
  21328835.231     -185338.804 8   -123455.846 9  21328839.040
  23210407.427     2589150.847 6   2062904.120 9  23210411.388
  20909809.903   -10696217.856 7  -8284174.538 9  20909813.173
 94  3 22 20 45 30.0010000  0  7  7  2 18 16 19 31 27
  24104351.067    -2760553.073 5  -2029316.155 9  24104360.083
  22168067.356   -12842708.921 7  -9902355.008 9  22168071.833
  23164438.411    14468221.592 6  11273273.977 9  23164445.103
  24670453.216      474537.703 4    399072.487 9  24670461.306
  21333972.942     -158340.027 8   -102417.845 9  21333976.704
  23225288.380     2667350.866 6   2123839.167 9  23225292.446
  20905708.200   -10717771.915 7  -8300969.894 9  20905711.364
 94  3 22 20 46  0.0010000  0  7  7  2 18 16 19 31 27
  24085479.317    -2859723.598 5  -2106591.669 9  24085488.626
  22161572.661   -12876839.594 7  -9928950.298 9  22161577.138
  23184933.114    14575922.063 6  11357196.295 9  23184939.817
  24676380.317      505678.930 5    423338.353 9  24676388.337
  21339166.489     -131047.626 8    -81151.052 9  21339170.274
  23240261.380     2746034.493 6   2185151.054 9  23240265.669
  20901666.075   -10739014.288 7  -8317522.384 9  20901669.087
 94  3 22 20 46 30.0010000  0  7  7  2 18 16 19 31 27
  24066634.771    -2958750.504 5  -2183755.292 9  24066644.091
  22155131.935   -12910684.788 7  -9955323.134 9  22155136.294
  23205475.020    14683870.440 6  11441311.785 9  23205481.829
  24682394.380      537285.697 5    447966.947 7  24682400.720
  21344415.013     -103466.595 8    -59659.352 9  21344418.892
  23255325.481     2825195.066 6   2246834.591 9  23255329.817
  20897683.466   -10759943.235 7  -8333830.644 9  20897686.513
 94  3 22 20 47  0.0010000  0  7  7  2 18 16 19 31 27
  24047814.294    -3057653.546 5  -2260822.411 9  24047823.474
  22148743.856   -12944253.415 7  -9981480.467 9  22148748.462
  23226062.810    14792059.537 6  11525614.847 9  23226069.915
  24688500.200      569368.975 5    472966.835 9  24688509.110
  21349718.146      -75598.300 7    -37943.813 9  21349722.036
  23270475.794     2904811.325 6   2308873.208 9  23270479.849
  20893757.505   -10780573.722 7  -8349906.333 9  20893760.481
 94  3 22 20 47 30.0010000  0  7  7  2 18 16 19 31 27
  24029016.333    -3156433.992 5  -2337793.999 9  24029026.052
  22142410.856   -12977534.442 7 -10007413.693 9  22142415.321
  23246695.927    14900487.040 6  11610103.680 9  23246702.997
  24694698.005      601939.451 5    498346.334 9  24694703.489
  21355076.028      -47442.144 7    -16003.961 9  21355079.954
  23285713.841     2984887.551 6   2371270.246 9  23285717.942
  20889888.388   -10800906.833 7  -8365750.299 9  20889891.388
 94  3 22 20 48  0.0010000  0  7  7  2 18 16 19 31 27
  24010240.888    -3255100.240 5  -2414676.633 9  24010249.599
  22136129.396   -13010541.768 7 -10033133.649 9  22136133.813
  23267370.333    15009130.781 6  11694760.999 9  23267377.321
  24700985.966      634984.560 5    524095.738 8  24700993.552
  21360487.380      -19005.399 7      6154.527 9  21360491.306
  23301037.872     3065414.567 6   2434018.551 9  23301042.091
  20886074.349   -10820949.324 7  -8381367.808 9  20886077.337
 94  3 22 20 48 30.0010000  0  7  7  2 18 16 19 31 27
  23991490.552    -3353636.162 5  -2491457.695 9  23991498.853
  22129899.427   -13043282.176 7 -10058645.606 9  22129903.903
  23288088.044    15118002.004 6  11779595.584 9  23288095.044
  24707360.200      668479.884 5    550195.906 9  24707369.286
  21365953.919        9720.504 7     28538.333 9  21365957.786
  23316445.036     3146381.024 6   2497109.273 9  23316449.044
  20882316.692   -10840696.315 8  -8396755.058 9  20882319.599
 94  3 22 20 49  0.0010000  0  7  7  2 18 16 19 31 27
  23972766.708    -3452023.580 5  -2568123.034 9  23972775.677
  22123718.075   -13075764.011 7 -10083956.078 9  22123722.493
  23308847.403    15227092.689 6  11864601.169 9  23308854.685
  24713814.263      702398.118 5    576625.634 9  24713821.755
  21371473.888       38728.844 7     51142.220 9  21371477.802
  23331931.247     3227761.367 6   2560522.498 9  23331935.442
  20878613.739   -10860155.306 8  -8411917.887 9  20878616.716
 94  3 22 20 49 30.0010000  0  7  7  2 18 16 19 31 27
  23954075.653    -3550249.885 5  -2644662.837 9  23954084.575
  22117588.169   -13107977.601 7 -10109057.525 9  22117592.505
  23329650.622    15336415.478 6  11949787.613 9  23329657.985
  24720348.794      736732.273 5    603379.427 7  24720357.552
  21377049.239       68026.680 8     73971.685 9  21377053.118
  23347498.997     3309571.064 6   2624270.288 9  23347503.497
  20874967.169   -10879317.665 8  -8426849.583 9  20874970.052
 94  3 22 20 50  0.0010000  0  6  7  2 18 19 31 27
  23935413.622    -3648317.316 5  -2721078.844 9  23935422.485
  22111506.083   -13139938.236 7 -10133961.862 9  22111510.360
  23350501.106    15445983.186 6  12035164.905 9  23350508.388
  21382680.552       97619.928 7     97031.343 9  21382684.396
  23363146.927     3391801.143 6   2688345.635 9  23363151.228
  20871374.911   -10898194.771 7  -8441558.999 9  20871377.817
 94  3 22 20 50 30.0010000  0  6  7  2 18 19 31 27
  23916784.638    -3746213.252 5  -2797361.214 9  23916793.103
  22105474.161   -13171634.956 7 -10158660.547 9  22105478.579
  23371397.872    15555795.923 6  12120733.122 9  23371405.364
  21388370.606      127522.002 8    120331.653 9  21388374.450
  23378875.599     3474456.307 6   2752752.235 9  23378879.782
  20867838.528   -10916779.731 8  -8456040.772 9  20867841.364
 94  3 22 20 51  0.0010000  0  6  7  2 18 19 31 27
  23898187.692    -3843941.449 5  -2873512.862 9  23898195.817
  22099495.091   -13203055.364 7 -10183143.921 9  22099499.485
  23392336.825    15665830.357 6  12206474.089 9  23392344.282
  21394120.661      157738.290 8    143876.803 9  21394124.622
  23394688.880     3557553.174 6   2817503.004 9  23394693.415
  20864356.685   -10935075.767 8  -8470297.402 9  20864359.556
 94  3 22 20 51 30.0010000  0  6  7  2 18 19 31 27
  23879618.700    -3941520.628 5  -2949548.395 9  23879627.130
  22093570.872   -13234187.827 7 -10207402.924 9  22093575.208
  23413317.427    15776083.525 6  12292385.492 9  23413324.743
  21399929.247      188262.813 8    167662.132 9  21399933.196
  23410589.317     3641110.561 6   2882612.615 9  23410593.524
  20860930.169   -10953082.694 8  -8484328.755 9  20860933.005
 94  3 22 20 52  0.0010000  0  6  7  2 18 19 31 27
  23861080.903    -4038934.518 6  -3025455.106 9  23861089.509
  22087703.239   -13265022.193 7 -10231429.650 9  22087707.622
  23434339.622    15886557.325 6  12378468.822 9  23434347.079
  21405798.364      219105.472 8    191695.362 9  21405802.290
  23426577.466     3725128.259 6   2948080.908 9  23426581.614
  20857562.106   -10970781.475 8  -8498119.996 9  20857564.907
 94  3 22 20 52 30.0010000  0  6  7  2 18 19 31 27
  23842576.856    -4136174.101 6  -3101225.987 9  23842586.013
  22081894.200   -13295548.903 7 -10255216.644 9  22081898.759
  23455404.044    15997248.588 6  12464721.603 9  23455411.536
  21411728.255      250266.353 8    215976.558 9  21411732.181
  23442655.231     3809616.497 6   3013915.860 9  23442659.392
  20854256.935   -10988150.101 8  -8511653.974 9  20854259.829
 94  3 22 20 53  0.0010000  0  6  7  2 18 19 31 27
  23824105.935    -4233238.735 6  -3176860.529 9  23824114.974
  22076142.903   -13325771.401 7 -10278766.586 9  22076147.380
  23476512.536    16108174.427 6  12551157.148 9  23476519.888
  21417716.060      281733.068 8    240496.068 9  21417719.915
  23458823.497     3894583.286 6   3080123.701 9  23458827.868
  20851017.419   -11005174.030 8  -8524919.357 9  20851020.220
 94  3 22 20 53 30.0010000  0  6  7  2 18 19 31 27
  23805668.122    -4330130.059 6  -3252360.028 9  23805676.962
  22070445.130   -13355714.111 7 -10302098.514 9  22070449.536
  23497667.099    16219341.811 6  12637780.920 9  23497674.638
  21423760.231      313494.511 8    265245.239 9  21423764.146
  23475079.911     3980010.179 6   3146690.070 9  23475084.118
  20847844.427   -11021848.788 8  -8537912.657 9  20847847.310
 94  3 22 20 54  0.0010000  0  6  7  2 18 19 31 27
  23787267.442    -4426825.188 6  -3327706.641 9  23787276.200
  22064797.435   -13385391.945 7 -10325224.046 9  22064801.888
  23518867.981    16330752.212 6  12724594.059 9  23518875.661
  21429861.880      345558.048 8    290229.808 9  21429865.700
  23491419.958     4065878.585 6   3213600.476 9  23491424.165
  20844739.411   -11038163.951 8  -8550625.757 9  20844742.306
 94  3 22 20 54 30.0010000  0  6  7  2 18 19 31 27
  23768902.747    -4523332.180 6  -3402906.632 9  23768911.294
  22059197.989   -13414817.675 7 -10348153.133 9  22059202.466
  23540110.778    16442384.254 6  12811579.895 9  23540118.282
  21436018.794      377913.353 8    315441.727 9  21436022.649
  23507841.474     4152173.524 6   3280843.248 9  23507845.575
  20841700.896   -11054132.627 8  -8563068.864 9  20841703.849
 94  3 22 20 55  0.0010000  0  6  7  2 18 19 31 27
  23750573.692    -4619650.380 6  -3477959.526 9  23750582.544
  22053645.724   -13443993.848 7 -10370887.760 9  22053650.259
  23561394.638    16554231.709 6  12898733.592 9  23561402.435
  21442232.474      410566.286 8    340885.559 9  21442236.317
  23524343.544     4238890.518 6   3348414.893 9  23524347.634
  20838726.685   -11069762.370 8  -8575247.873 9  20838729.567
 94  3 22 20 55 30.0010000  0  6  7  2 18 19 31 27
  23732278.903    -4715788.873 6  -3552872.385 9  23732287.731
  22048139.520   -13472928.893 7 -10393434.501 9  22048144.091
  23582716.145    16666274.928 6  12986039.826 9  23582723.567
  21448505.731      443531.893 8    366573.037 9  21448509.622
  23540921.442     4326008.770 6   3416299.206 9  23540925.626
  20835811.442   -11085082.908 8  -8587185.939 9  20835814.360
 94  3 22 20 56  0.0010000  0  6  7  2 18 19 31 27
  23714019.927    -4811739.834 6  -3627639.120 9  23714028.813
  22042682.161   -13501607.446 7 -10415781.377 9  22042686.673
  23604074.919    16778514.427 6  13073499.001 9  23604082.599
  21454841.052      476824.910 8    392515.640 9  21454844.907
  23557578.122     4413540.684 6   3484505.857 9  23557582.329
  20832953.200   -11100101.969 8  -8598889.091 9  20832956.013
 94  3 22 20 56 30.0010000  0  6  7  2 18 19 31 27
  23695797.778    -4907497.304 6  -3702255.087 9  23695806.606
  22037276.380   -13530014.838 7 -10437916.961 9  22037280.845
  23625471.786    16890955.327 6  13161115.123 9  23625479.138
  21461239.911      510450.987 8    418717.769 9  21461243.731
  23574317.981     4501508.157 6   3553051.906 9  23574322.177
  20830152.567   -11114819.468 7  -8610357.260 9  20830155.474
 94  3 22 20 57  0.0010000  0  6  7  2 18 19 31 27
  23677613.927    -5003052.600 6  -3776713.523 9  23677622.192
  22031920.856   -13558158.886 7 -10459847.347 9  22031925.310
  23646908.474    17003606.842 6  13248895.354 9  23646916.165
  21467700.333      544400.755 8    445172.128 9  21467704.106
  23591139.161     4589905.017 6   3621932.545 9  23591143.544
  20827406.958   -11129247.797 8  -8621600.101 9  20827409.946
 94  3 22 20 57 30.0010000  0  6  7  2 18 19 31 27
  23659473.028    -5098383.324 6  -3850996.973 9  23659481.188
  22026617.513   -13586027.602 7 -10481563.185 9  22026621.895
  23668387.169    17116476.952 6  13336845.915 9  23668394.520
  21474222.942      578676.299 8    471880.339 9  21474226.657
  23608042.333     4678731.579 6   3691148.004 9  23608046.716
  20824718.083   -11143377.794 8  -8632610.474 9  20824721.083
 94  3 22 20 58  0.0010000  0  6  7  2 18 19 31 27
  23641374.513    -5193490.831 6  -3925106.509 9  23641382.392
  22021367.513   -13613615.834 7 -10503060.471 9  22021371.989
  23689907.927    17229567.572 6  13424968.297 9  23689915.665
  21480802.685      613254.382 8    498824.292 9  21480806.458
  23625024.935     4767976.478 6   3760689.447 9  23625029.399
  20822089.849   -11157188.188 7  -8643371.810 9  20822092.849
 94  3 22 20 58 30.0010000  0  6  7  2 18 19 31 27
  23623316.638    -5288386.467 6  -3999050.958 9  23623324.962
  22016170.981   -13640923.701 7 -10524339.285 9  22016175.388
  23711469.575    17342874.746 6  13513259.425 9  23711477.536
  21487438.435      648124.540 8    525995.835 9  21487442.149
  23642082.591     4857615.281 6   3830537.841 9  23642086.786
  20819524.700   -11170668.696 7  -8653876.090 9  20819527.665
 94  3 22 20 59  0.0010000  0  6  7  2 18 19 31 27
  23605295.599    -5383084.416 6  -4072841.372 9  23605303.712
  22011026.895   -13667955.739 7 -10545403.172 9  22011031.302
  23733073.474    17456401.989 6  13601722.038 9  23733081.353
  21494132.614      683303.686 8    553408.152 9  21494136.435
  23659213.841     4947641.844 6   3900688.362 9  23659218.341
  20817025.903   -11183800.091 7  -8664108.331 9  20817028.938
 94  3 22 20 59 30.0010000  0  6  7  2 18 19 31 27
  23587310.724    -5477594.575 6  -4146485.455 9  23587319.247
  22005939.442   -13694690.420 7 -10566235.346 9  22005943.849
  23754719.536    17570151.807 6  13690358.077 9  23754727.204
  21500891.239      718819.805 8    581083.041 9  21500895.106
  23676422.161     5038070.277 6   3971152.048 9  23676426.720
  20814597.786   -11196560.281 7  -8674051.322 9  20814600.938
 94  3 22 21  0  0.0010000  0  6  7  2 18 19 31 27
  23569361.341    -5571919.044 6  -4219984.843 9  23569369.489
  22000909.927   -13721119.841 7 -10586829.661 9  22000914.392
  23776405.888    17684113.723 6  13779159.394 9  23776413.274
  21507714.364      754674.770 8    609021.969 9  21507718.126
  23693707.786     5128905.386 6   4041932.620 9  23693712.532
  20812240.724   -11208946.262 7  -8683702.721 9  20812243.806
 94  3 22 21  0 30.0010000  0  6  7  2 18 19 31 27
  23551449.521    -5666045.489 6  -4293329.954 9  23551457.751
  21995935.005   -13747264.303 7 -10607201.930 9  21995939.376
  23798125.989    17798253.633 6  13868099.410 9  23798133.528
  21514601.427      790866.774 8    637223.525 9  21514605.235
  23711070.685     5220148.058 6   4113030.758 9  23711075.114
  20809949.435   -11220986.695 7  -8693084.858 9  20809952.423
 94  3 22 21  1  0.0010000  0  6  7  2 18 19 31 27
  23533578.856    -5759954.955 6  -4366505.988 9  23533586.970
  21991013.442   -13773127.784 7 -10627355.248 9  21991017.673
  23819876.349    17912552.834 6  13957163.521 9  23819883.771
  21521550.950      827387.236 8    665681.016 9  21521554.911
  23728511.677     5311802.579 6   4184449.825 9  23728516.247
  20807721.255   -11232696.663 7  -8702209.491 9  20807724.185
 94  3 22 21  1 30.0010000  0  6  7  2 18 19 31 27
  23515755.435    -5853617.800 6  -4439489.853 9  23515763.630
  21986147.403   -13798697.892 7 -10647279.957 9  21986151.657
  23841655.356    18027000.219 6  14046343.120 9  23841663.118
  21528559.841      864219.245 8    694381.269 9  21528563.638
  23746031.169     5403867.388 6   4256188.606 9  23746035.985
  20805553.466   -11244087.547 7  -8711085.490 9  20805556.524
 94  3 22 21  2  0.0010000  0  6  7  2 18 19 31 27
  23497981.661    -5947017.327 6  -4512268.542 9  23497989.763
  21981332.489   -13823999.516 7 -10666995.459 9  21981336.872
  23863460.536    18141587.068 6  14135631.378 9  23863467.876
  21535624.802      901344.560 8    723310.073 9  21535628.692
  23763627.919     5496337.634 6   4328243.308 9  23763632.653
  20803445.771   -11255163.461 7  -8719716.055 9  20803448.829
 94  3 22 21  2 30.0010000  0  6  7  2 18 19 31 27
  23480256.669    -6040164.937 6  -4584850.937 9  23480264.981
  21976565.169   -13849053.122 7 -10686517.705 9  21976569.470
  23885294.919    18256325.562 6  14225037.794 9  23885302.493
  21542745.528      938766.486 8    752470.002 9  21542749.489
  23781301.075     5589209.658 6   4400611.059 9  23781306.126
  20801398.669   -11265921.064 7  -8728098.584 9  20801401.681
 94  3 22 21  3  0.0010000  0  6  7  2 18 19 31 27
  23462574.583    -6133082.914 6  -4657254.387 9  23462582.579
  21971842.372   -13873870.794 7 -10705856.103 9  21971846.603
  23907159.536    18371224.245 6  14314569.039 9  23907167.028
  21549921.747      976477.731 8    781855.372 9  21549925.778
  23799046.146     5682463.141 6   4473276.051 9  23799050.669
  20799415.802   -11276341.449 7  -8736218.347 9  20799418.778
 94  3 22 21  3 30.0010000  0  6  7  2 18 19 31 27
  23444933.653    -6225787.655 6  -4729491.694 9  23444941.134
  21967160.935   -13898471.161 7 -10725025.171 9  21967165.200
  23929055.669    18486289.978 6  14404230.456 9  23929063.372
  21557153.020     1014476.939 8    811465.128 9  21557157.005
  23816863.310     5776090.490 6   4546232.368 9  23816867.786
  20797497.700   -11286420.457 7  -8744072.099 9  20797500.630
 94  3 22 21  4  0.0010000  0  6  7  2 18 19 31 27
  23427331.130    -6318288.356 6  -4801570.012 9  23427339.208
  21962519.356   -13922863.472 7 -10744032.120 9  21962523.552
  23950985.372    18601529.213 6  14494027.051 9  23950993.474
  21564438.919     1052765.602 8    841300.437 9  21564442.856
  23834747.810     5870075.880 6   4619467.684 9  23834752.579
  20795646.099   -11296151.331 7  -8751654.579 9  20795649.110
 94  3 22 21  4 30.0010000  0  6  7  2 18 19 31 27
  23409768.067    -6410582.382 6  -4873487.272 9  23409776.169
  21957919.989   -13947033.185 7 -10762865.620 9  21957924.208
  23972947.435    18716940.183 6  14583957.469 9  23972954.845
  21571782.747     1091357.200 8    871371.793 9  21571786.790
  23852697.677     5964402.520 6   4692968.885 9  23852702.341
  20793861.638   -11305528.557 7  -8758961.493 9  20793864.649
 94  3 22 21  5  0.0010000  0  6  7  2 18 19 31 27
  23392248.919    -6502644.993 6  -4945224.225 9  23392256.517
  21953366.849   -13970958.709 7 -10781508.844 9  21953371.220
  23994941.513    18832518.908 6  14674018.604 9  23994949.333
  21579185.458     1130258.830 8    901684.735 9  21579189.419
  23870711.356     6059064.407 6   4766731.329 9  23870716.466
  20792146.778   -11314540.752 7  -8765983.967 9  20792149.802
 94  3 22 21  5 30.0010000  0  6  7  2 18 19 31 27
  23374775.661    -6594466.845 6  -5016773.565 9  23374783.481
  21948864.052   -13994622.071 7 -10799947.789 9  21948868.329
  24016965.794    18948255.890 6  14764203.054 9  24016973.544
  21586649.560     1169481.509 8    932247.842 9  21586653.403
  23888789.630     6154066.238 6   4840758.660 9  23888794.481
  20790499.185   -11323200.435 7  -8772731.758 9  20790502.103
 94  3 22 21  6  0.0010000  0  6  7  2 18 19 31 27
  23357350.911    -6686034.677 6  -5088124.970 9  23357358.614
  21944415.028   -14018000.522 7 -10818164.724 9  21944419.458
  24039018.974    19064144.733 6  14854505.827 9  24039026.888
  21594177.731     1209043.068 7    963075.012 9  21594181.739
  23906933.661     6249415.109 6   4915056.406 9  23906938.653
  20788919.903   -11331496.863 7  -8779196.493 9  20788922.950
 94  3 22 21  6 30.0010000  0  6  7  2 18 19 31 27
  23339974.974    -6777345.130 6  -5159275.821 9  23339982.782
  21940021.372   -14041089.751 7 -10836156.291 9  21940025.708
  24061099.997    19180180.194 5  14944922.851 9  24061107.724
  21601772.747     1248955.714 7    994175.755 9  21601776.673
  23925147.974     6345130.076 6   4989639.432 9  23925152.591
  20787410.286   -11339430.264 7  -8785378.351 9  20787413.333
 94  3 22 21  7  0.0010000  0  6  7  2 18 19 31 27
  23322647.231    -6868399.868 6  -5230227.407 9  23322654.923
  21935682.958   -14063888.628 7 -10853921.612 9  21935687.341
  24083208.794    19296361.513 5  15035453.517 9  24083216.567
  21609433.106     1289209.627 7   1025542.423 9  21609437.103
  23943434.552     6441223.983 6   5064517.733 9  23943439.122
  20785967.380   -11347013.081 7  -8791287.026 9  20785970.392
 94  3 22 21  7 30.0010000  0  6  7  2 18 19 31 27
  23305367.638    -6959206.126 6  -5300985.376 9  23305375.036
  21931398.099   -14086405.466 7 -10871467.172 9  21931402.540
  24105345.536    19412692.856 5  15126101.096 9  24105353.638
  21617158.231     1329806.951 7   1057176.680 9  21617162.192
  23961796.247     6537718.374 6   5139708.105 9  23961800.923
  20784589.356   -11354253.913 7  -8796929.220 9  20784592.438
 94  3 22 21  8  0.0010000  0  6  7  2 18 19 31 27
  23288132.427    -7049776.955 6  -5371559.894 9  23288139.345
  21927162.942   -14108660.983 7 -10888809.101 9  21927167.313
  24127513.177    19529181.166 5  15216870.974 9  24127521.126
  21624945.302     1370727.980 7   1089063.177 9  21624949.263
  23980234.091     6634605.276 6   5215204.330 9  23980238.790
  20783275.567   -11361159.278 7  -8802310.017 9  20783278.579
 94  3 22 21  8 30.0010000  0  6  7  2 18 19 31 27
  23270939.919    -7140122.415 6  -5441958.798 9  23270947.481
  21922973.231   -14130677.653 7 -10905964.915 9  21922977.591
  24149709.442    19645823.895 5  15307761.165 9  24149717.286
  21632790.458     1411955.100 7   1121188.189 9  21632794.431
  23998742.567     6731871.152 6   5290995.861 9  23998747.231
  20782023.646   -11367737.614 7  -8807435.985 9  20782026.646
 94  3 22 21  9  0.0010000  0  6  7  2 18 19 31 27
  23253791.403    -7230238.836 6  -5512179.222 9  23253798.685
  21918828.013   -14152461.062 7 -10922938.961 9  21918832.325
  24171933.411    19762610.444 5  15398763.434 9  24171941.806
  21640692.888     1453482.546 7   1153547.215 9  21640696.872
  24017320.661     6829498.637 6   5367069.166 9  24017324.856
  20780835.567   -11373980.564 7  -8812300.612 9  20780838.544
 94  3 22 21  9 30.0010000  0  6  7  2 18 19 31 27
  23236688.458    -7320114.431 6  -5582211.986 9  23236695.774
  21914727.239   -14174010.876 7 -10939730.990 9  21914731.528
  24194183.989    19879538.831 5  15489876.231 9  24194192.243
  21648654.685     1495320.801 7   1186148.437 9  21648658.669
  24035967.044     6927483.532 6   5443420.978 9  24035971.145
  20779716.481   -11379861.244 7  -8816882.954 9  20779719.446
 94  3 22 21 10  0.0010000  0  6  7  2 18 19 31 27
  23219632.153    -7409745.510 6  -5652054.205 9  23219639.892
  21910669.974   -14195331.763 7 -10956344.637 9  21910674.263
  24216457.825    19996585.529 5  15581081.192 9  24216466.923
  21656673.880     1537463.386 7   1218986.797 9  21656677.806
  24054673.325     7025786.024 6   5520020.262 9  24054677.790
  20778665.950   -11385382.578 7  -8821185.281 9  20778668.892
 94  3 22 21 10 30.0010000  0  6  7  2 18 19 31 27
  23202626.817    -7499109.172 6  -5721688.050 9  23202633.993
  21906658.083   -14216414.045 7 -10972772.356 9  21906662.419
  24238750.122    20113730.651 5  15672362.873 9  24238758.950
  21664755.130     1579929.208 7   1252077.033 9  21664759.044
  24073438.825     7124399.763 6   5596862.077 9  24073443.560
  20777686.122   -11390530.124 7  -8825196.343 9  20777689.110
 94  3 22 21 11  0.0010000  0  6  7  2 18 19 31 27
  23185672.552    -7588203.749 6  -5791112.212 9  23185679.880
  21902693.528   -14237246.953 7 -10989005.747 9  21902697.794
  24261059.903    20230969.010 5  15763717.195 9  24261068.919
  21672896.997     1622715.607 7   1285417.070 9  21672901.110
  24092262.802     7223320.960 6   5673943.460 9  24092267.419
  20776778.950   -11395298.415 7  -8828911.883 9  20776781.927
 94  3 22 21 11 30.0010000  0  6  7  2 18 19 31 27
  23168769.614    -7677028.145 6  -5860325.845 9  23168776.907
  21898778.661   -14257821.615 7 -11005037.912 9  21898782.833
  24283390.536    20348315.949 5  15855156.102 9  24283399.997
  21681100.427     1665824.383 7   1319008.310 9  21681104.505
  24111144.981     7322547.379 6   5751262.663 9  24111149.353
  20775942.817   -11399692.074 7  -8832335.504 9  20775945.841
 94  3 22 21 12  0.0010000  0  6  7  2 18 19 31 27
  23151920.528    -7765570.950 6  -5929320.064 9  23151927.587
  21894913.630   -14278131.619 7 -11020863.847 9  21894917.685
  24305744.278    20465787.164 5  15946691.869 9  24305753.118
  21689366.606     1709262.850 7   1352856.459 9  21689370.579
  24130088.278     7422094.750 6   5828831.977 9  24130092.884
  20775175.880   -11403721.382 7  -8835475.212 9  20775178.938
 94  3 22 21 12 30.0010000  0  6  7  2 18 19 31 27
  23135122.544    -7853843.590 6  -5998103.755 9  23135129.720
  21891098.888   -14298178.508 7 -11036484.758 9  21891103.106
  24328122.302    20583382.621 5  16038324.421 9  24328131.341
  21697693.755     1753023.163 7   1386955.381 9  21697697.786
  24149094.028     7521971.482 6   5906657.922 9  24149098.001
  20774476.911   -11407395.046 7  -8838337.802 9  20774480.028
 94  3 22 21 13  0.0010000  0  6  7  2 18 19 31 27
  23118374.778    -7941852.145 6  -6066681.657 9  23118381.860
  21887333.138   -14317967.030 7 -11051904.341 9  21887337.239
  24350527.294    20701120.170 5  16130067.703 9  24350535.993
  21706080.888     1797096.660 7   1421298.347 9  21706084.978
  24168163.763     7622184.810 6   5984746.163 9  24168168.099
  20773843.333   -11410724.197 7  -8840931.937 9  20773846.462
 94  3 22 21 13 30.0010000  0  6  7  2 18 19 31 27
  23101679.122    -8029587.732 6  -6135046.871 9  23101685.837
  21883614.810   -14337506.194 7 -11067129.617 9  21883618.841
  24372957.802    20818993.195 5  16221916.547 9  24372967.380
  21714529.810     1841496.205 7   1455895.379 9  21714533.864
  24187298.614     7722736.165 6   6063097.795 9  24187303.501
  20773273.130   -11413720.540 7  -8843266.739 9  20773276.130
 94  3 22 21 14  0.0010000  0  6  7  2 18 19 31 27
  23085035.958    -8117047.849 6  -6203197.439 9  23085042.649
  21879944.442   -14356793.597 7 -11082158.717 9  21879948.474
  24395411.864    20936988.255 5  16313860.494 9  24395421.759
  21723042.989     1886234.237 7   1490756.167 9  21723047.009
  24206499.356     7823635.431 6   6141720.530 9  24206503.622
  20772768.153   -11416374.499 7  -8845334.747 9  20772771.235
 94  3 22 21 14 30.0010000  0  6  7  2 18 19 31 27
  23068445.513    -8204230.291 6  -6271131.631 9  23068452.677
  21876321.841   -14375830.127 7 -11096992.330 9  21876325.954
  24417886.450    21055095.396 5  16405891.775 9  24417895.126
  21731622.599     1931320.299 7   1525888.147 9  21731626.642
  24225762.685     7924866.817 6   6220602.060 9  24225767.360
  20772333.138   -11418660.922 7  -8847116.366 9  20772336.243
 94  3 22 21 15  0.0010000  0  6  7  2 18 19 31 27
  23051908.997    -8291129.924 6  -6338845.454 9  23051915.688
  21872745.317   -14394625.677 7 -11111638.170 9  21872749.290
  24440382.958    21173309.933 5  16498006.730 9  24440392.688
  21740267.528     1976748.366 7   1561286.626 9  21740271.571
  24245089.638     8026428.119 6   6299740.659 9  24245094.091
  20771969.458   -11420572.056 7  -8848605.549 9  20771972.610
 94  3 22 21 15 30.0010000  0  6  7  2 18 19 31 27
  23035427.294    -8377741.580 6  -6406334.889 9  23035434.224
  21869215.044   -14413176.914 8 -11126093.641 9  21869219.005
  24462896.958    21291622.099 5  16590197.752 9  24462906.864
  21748977.263     2022519.188 7   1596952.189 9  21748981.282
  24264476.958     8128310.866 6   6379129.735 9  24264482.032
  20771679.122   -11422097.984 7  -8849794.568 9  20771682.181
 94  3 22 21 16  0.0010000  0  6  7  2 18 19 31 27
  23019000.521    -8464063.757 6  -6473598.760 9  23019007.353
  21865730.255   -14431489.137 7 -11140362.868 9  21865734.310
  24485430.575    21410035.341 5  16682467.537 9  24485440.177
  21757750.278     2068621.022 8   1632875.676 9  21757754.216
  24283924.146     8230504.585 6   6458761.126 9  24283928.786
  20771463.935   -11423227.191 7  -8850674.457 9  20771467.063
 94  3 22 21 16 30.0010000  0  6  7  2 18 19 31 27
  23002629.560    -8550093.860 6  -6540635.038 9  23002636.501
  21862288.349   -14449576.418 8 -11154456.814 9  21862292.368
  24507984.466    21528556.802 5  16774821.643 9  24507994.231
  21766582.966     2115037.084 8   1669044.018 9  21766586.938
  24303428.239     8332999.186 6   6538626.964 9  24303432.997
  20771322.169   -11423972.525 7  -8851255.229 9  20771325.286
 94  3 22 21 17  0.0010000  0  6  7  2 18 19 31 27
  22986313.810    -8635831.383 6  -6607443.344 9  22986320.138
  21858890.849   -14467430.515 7 -11168369.062 9  21858894.880
  24530561.450    21647195.412 5  16867267.035 9  24530571.778
  21775473.231     2161755.300 8   1705447.805 9  21775477.192
  24322989.747     8435796.884 6   6618728.992 9  24322994.364
  20771250.841   -11424347.700 7  -8851547.565 9  20771254.028
 94  3 22 21 17 30.0010000  0  6  7  2 18 19 31 27
  22970055.208    -8721271.453 6  -6674019.869 9  22970061.747
  21855540.255   -14485038.011 7 -11182089.150 9  21855544.438
  24553159.317    21765949.928 5  16959802.734 9  24553170.185
  21784423.263     2208788.190 8   1742096.790 9  21784427.353
  24342608.763     8538894.506 6   6699064.721 9  24342612.712
  20771251.192   -11424345.301 7  -8851545.691 9  20771254.356
 94  3 22 21 18  0.0010000  0  6  7  2 18 19 31 27
  22953854.481    -8806405.925 6  -6740358.270 9  22953861.091
  21852236.606   -14502398.359 8 -11195616.662 9  21852240.649
  24575777.958    21884810.669 5  17052421.207 9  24575788.731
  21793433.067     2256135.106 8   1778990.473 9  21793437.110
  24362285.146     8642293.694 6   6779635.452 9  24362289.458
  20771324.442   -11423960.005 7  -8851245.452 9  20771327.677
 94  3 22 21 18 30.0010000  0  6  7  2 18 19 31 27
  22937713.755    -8891225.729 7  -6806451.477 9  22937720.247
  21848982.896   -14519497.365 7 -11208940.530 9  21848986.985
  24598415.591    22003769.989 5  17145116.501 9  24598426.001
  21802502.536     2303796.552 7   1816129.243 9  21802506.509
  24382018.794     8745996.138 6   6860442.473 9  24382023.423
  20771472.716   -11423180.497 7  -8850638.040 9  20771475.974
 94  3 22 21 19  0.0010000  0  6  7  2 18 19 31 27
  22921633.130    -8975729.623 7  -6872298.522 9  22921639.470
  21845777.817   -14536339.214 7 -11222064.013 9  21845782.024
  24621065.388    22122792.872 5  17237861.316 9  24621074.696
  21811629.896     2351761.197 7   1853504.274 9  21811633.985
  24401808.099     8849987.179 6   6941474.379 9  24401812.646
  20771695.747   -11422009.560 7  -8849725.614 9  20771699.052
 94  3 22 21 19 30.0010000  0  6  7  2 18 19 31 27
  22905616.935    -9059894.959 7  -6937881.765 9  22905623.087
  21842621.528   -14552923.807 7 -11234987.034 9  21842625.782
  24643723.864    22241864.183 5  17330643.871 9  24643734.239
  21820818.833     2400048.357 7   1891130.615 9  21820823.017
  24421655.028     8954283.373 5   7022744.058 9  24421659.728
  20771996.114   -11420430.110 7  -8848494.868 9  20771999.325
 94  3 22 21 20  0.0010000  0  6  7  2 18 19 31 27
  22889665.075    -9143720.547 7  -7003200.265 9  22889671.462
  21839511.872   -14569266.511 7 -11247721.570 9  21839516.032
  24666389.927    22360972.730 5  17423455.417 9  24666399.739
  21830070.138     2448664.711 7   1929013.471 9  21830074.274
  24441557.630     9058872.624 5   7104242.079 9  24441562.599
  20772372.380   -11418453.283 7  -8846954.475 9  20772375.450
 94  3 22 21 20 30.0010000  0  6  7  2 18 19 31 27
  22873775.700    -9227221.450 7  -7068265.768 9  22873782.157
  21836447.771   -14585368.486 8 -11260268.528 9  21836451.884
  24689064.833    22480129.932 5  17516304.893 9  24689075.372
  21839385.935     2497619.287 7   1967159.875 9  21839389.849
  24461516.521     9163754.279 5   7185967.943 9  24461521.606
  20772823.599   -11416083.477 7  -8845107.869 9  20772826.704
 94  3 22 21 21  0.0010000  0  6  7  2 18 19 31 27
  22857943.286    -9310420.693 7  -7133096.214 9  22857949.450
  21833426.028   -14601247.542 7 -11272641.783 9  21833430.118
  24711747.833    22599328.884 5  17609186.900 9  24711758.044
  21848766.302     2546913.877 7   2005571.226 9  21848770.251
  24481528.388     9268918.065 5   7267913.652 9  24481533.415
  20773345.458   -11413341.795 7  -8842971.490 9  20773348.528
 94  3 22 21 21 30.0010000  0  6  7  2 18 19 31 27
  22842165.653    -9393332.051 7  -7197702.336 9  22842171.935
  21830446.591   -14616905.246 8 -11284842.558 9  21830450.599
  24734444.833    22718600.073 5  17702125.168 9  24734454.938
  21858212.567     2596553.124 7   2044251.139 9  21858216.763
  24501591.606     9374352.917 5   7350070.586 9  24501596.353
  20773938.192   -11410225.136 7  -8840542.920 9  20773941.228
 94  3 22 21 22  0.0010000  0  7  7  2 18 26 19 31 27
  22826439.099    -9475974.600 7  -7262098.989 9  22826445.450
  21827509.544   -14632339.289 8 -11296869.052 9  21827513.587
  24757158.841    22837966.635 5  17795137.772 9  24757169.614
  24921719.810      -28609.527 5
  21867721.419     2646522.561 7   2083188.339 9  21867725.438
  24521702.192     9480035.812 5   7432420.799 9  24521707.196
  20774600.981   -11406742.728 7  -8837829.349 9  20774604.110
 94  3 22 21 22 30.0010000  0  7  7  2 18 26 19 31 27
  22810762.630    -9558354.982 7  -7326291.362 9  22810769.052
  21824613.044   -14647559.962 8 -11308729.278 9  21824617.228
  24779895.630    22957442.174 5  17888235.260 9  24779906.122
  24906906.872     -106452.052 5
  21877289.466     2696803.204 7   2122368.039 9  21877293.521
  24541860.708     9585968.589 5   7514965.723 9  24541865.571
  20775334.536   -11402887.979 7  -8834825.644 9  20775337.583
 94  3 22 21 23  0.0010000  0  7  7  2 18 26 19 31 27
  22795137.575    -9640463.662 7  -7390272.021 9  22795143.845
  21821756.974   -14662568.758 8 -11320424.406 9  21821760.970
  24802649.458    23077016.870 5  17981410.019 9  24802660.126
  24892147.513     -184014.944 5    -14079.32219  24892153.735
  21886916.364     2747392.317 7   2161788.109 9  21886920.360
  24562065.599     9692142.448 5   7597698.497 9  24562071.271
  20776140.536   -11398651.889 7  -8831524.790 9  20776143.384
 94  3 22 21 23 30.0010000  0  7  7  2 18 26 19 31 27
  22779569.130    -9722276.791 7  -7454022.378 9  22779575.634
  21818943.731   -14677352.164 8 -11331943.911 9  21818947.681
  24825425.763    23196704.484 5  18074672.767 9  24825436.489
  24877447.224     -261266.712 5    -74275.389 9  24877454.032
  21896605.677     2798310.383 7   2201464.500 9  21896609.626
  24582317.606     9798571.186 5   7680629.872 9  24582324.169
  20777022.278   -11394018.386 7  -8827914.262 9  20777025.114
 94  3 22 21 24  0.0010000  0  7  7  2 18 26 19 31 27
  22764059.106    -9803779.929 7  -7517531.189 9  22764065.247
  21816173.239   -14691911.211 8 -11343288.592 9  21816177.259
  24848217.622    23316473.849 5  18167999.204 9  24848228.888
  24862807.052     -338198.704 5   -134222.320 9  24862813.708
  21906360.481     2849571.816 7   2241408.455 9  21906364.571
  24602619.786     9905260.570 5   7763764.378 9  24602624.356
  20777979.474   -11388988.196 7  -8823994.627 9  20777982.380
 94  3 22 21 24 30.0010000  0  7  7  2 18 26 19 31 27
  22748613.310    -9884949.667 7  -7580780.207 9  22748619.603
  21813446.021   -14706243.019 8 -11354456.203 9  21813450.063
  24871020.794    23436302.292 5  18261371.711 9  24871031.485
  24848228.481     -414809.746 5   -193919.141 9  24848233.872
  21916181.231     2901179.996 7   2281622.602 9  21916185.380
  24622974.239    10012220.807 5   7847109.895 9  24622979.149
  20779013.919   -11383551.517 7  -8819758.252 9  20779016.978
 94  3 22 21 25  0.0020000  0  7  7  2 18 26 19 31 27
  22733232.228    -9965777.564 7  -7643762.858 9  22733238.475
  21810765.471   -14720329.152 8 -11365432.379 9  21810769.490
  24893831.010    23556172.785 5  18354776.958 9  24893841.807
  24833710.971     -491099.785 5   -253365.813 9  24833716.244
  21926066.893     2953129.178 7   2322102.460 9  21926071.018
  24643380.353    10119453.391 5   7930667.682 9  24643385.533
  20780123.799   -11377719.639 7  -8815213.932 9  20780126.775
 94  3 22 21 25 30.0020000  0  7  7  2 18 26 19 31 27
  22717920.463   -10046239.616 7  -7706460.437 9  22717926.814
  21808133.971   -14734156.885 7 -11376207.209 9  21808138.072
  24916649.893    23676085.267 5  18448214.949 9  24916660.596
  24819256.127     -567062.714 5   -312557.641 9  24819261.494
  21936016.611     3005416.295 7   2362845.648 9  21936020.701
  24663835.799    10226950.046 5   8014431.231 9  24663839.982
  20781307.885   -11371496.409 7  -8810364.660 9  20781310.861
 94  3 22 21 26  0.0020000  0  7  7  2 18 26 19 31 27
  22702677.682   -10126340.453 7  -7768876.552 9  22702684.139
  21805550.893   -14747729.799 7 -11386783.480 9  21805554.865
  24939474.127    23796023.039 5  18541672.605 9  24939484.795
  24804860.057     -642711.065 5   -371504.299 9  24804866.033
  21946026.588     3058018.067 7   2403834.019 9  21946030.748
  24684340.713    10334700.081 5   8098392.205 9  24684345.764
  20782566.799   -11364880.683 7  -8805209.550 9  20782569.822
 94  3 22 21 26 30.0020000  0  7  7  2 18 26 19 31 27
  22687502.830   -10206085.406 7  -7831015.348 9  22687509.076
  21803015.869   -14761053.072 7 -11397165.226 9  21803019.912
  24962304.971    23915998.540 4  18635159.666 8  24962315.357
  24790526.955     -718033.444 5   -430197.002 9  24790532.639
  21956093.393     3110920.077 7   2445056.343 9  21956097.518
  24704893.697    10442709.855 5   8182555.570 9  24704898.795
  20783901.127   -11357869.750 7  -8799746.484 9  20783904.115
 94  3 22 21 27  0.0020000  0  6  7  2 26 19 31 27
  22672393.213   -10285484.401 7  -7892884.576 9  22672399.494
  21800528.127   -14774125.315 7 -11407351.366 9  21800532.170
  24776253.682     -793039.146 5   -488642.917 9  24776260.104
  21966221.908     3164145.774 7   2486530.895 9  21966226.092
  24725495.838    10550971.701 5   8266915.333 9  24725501.111
  20785310.033   -11350465.825 7  -8793977.194 9  20785313.021
 94  3 22 21 27 30.0020000  0  6  7  2 26 19 31 27
  22657346.518   -10364556.091 7  -7954498.757 9  22657353.045
  21798082.783   -14786975.321 7 -11417364.332 9  21798086.885
  24762036.510     -867752.834 5   -546861.297 9  24762041.197
  21976411.947     3217694.740 7   2528257.339 9  21976416.119
  24746141.369    10659466.964 5   8351456.994 9  24746146.479
  20786793.518   -11342670.640 7  -8787903.025 9  20786796.354
 94  3 22 21 28  0.0020000  0  6  7  2 26 19 31 27
  22642358.018   -10443320.569 7  -8015873.553 9  22642364.287
  21795676.275   -14799621.991 7 -11427218.854 9  21795680.236
  24747874.455     -942174.305 5   -604851.963 9  24747878.979
  21986664.018     3271570.001 7   2570238.040 9  21986668.189
  24766831.588    10768195.424 5   8436180.373 9  24766836.967
  20788351.275   -11334483.436 7  -8781523.383 9  20788354.182
 94  3 22 21 28 30.0020000  0  6  7  2 26 19 31 27
  22627426.494   -10521785.814 7  -8077015.185 9  22627432.881
  21793307.416   -14812070.168 7 -11436918.707 9  21793311.494
  24733767.025    -1016309.252 5   -662619.410 9  24733771.396
  21996981.018     3325784.939 7   2612483.421 9  21996985.131
  24787566.432    10877157.808 5   8521086.009 9  24787571.869
  20789982.979   -11325909.943 7  -8774842.735 9  20789985.955
 94  3 22 21 29  0.0020000  0  5  7  2 26 19 27
  22612553.768   -10599942.631 7  -8137916.481 9  22612560.131
  21790978.432   -14824309.014 7 -11446455.448 9  21790982.521
  24719714.338    -1090153.219 5   -720160.092 9  24719719.588
  22007363.689     3380346.990 7   2654999.280 9  22007367.768
  20791690.424   -11316938.513 7  -8767852.009 9  20791693.412
 94  3 22 21 29 30.0020000  0  5  7  2 26 19 27
  22597741.658   -10677779.791 7  -8198568.700 9  22597747.893
  21788688.330   -14836343.375 7 -11455832.851 9  21788692.221
  24705725.518    -1163667.229 5   -777443.671 9  24705730.744
  22017810.010     3435241.652 7   2697774.319 9  22017814.135
  20793473.846   -11307565.423 7  -8760548.299 9  20793476.717
 94  3 22 21 30  0.0020000  0  5  7  2 26 19 27
  22582992.135   -10755288.759 7  -8258965.184 9  22582998.369
  21786439.150   -14848162.928 7 -11465042.869 9  21786443.205
  24691805.322    -1236817.989 5   -834444.186 9  24691810.256
  22028320.650     3490476.156 7   2740814.167 9  22028324.740
  20795334.150   -11297789.896 8  -8752931.002 9  20795337.104
 94  3 22 21 30 30.0020000  0  5  7  2 26 19 27
  22568307.549   -10832456.208 7  -8319095.550 9  22568313.971
  21784229.564   -14859773.372 7 -11474089.945 9  21784233.619
  24677952.135    -1309615.746 5   -891169.623 9  24677957.162
  22038893.416     3546036.308 7   2784107.768 9  22038897.600
  20797269.049   -11287621.880 7  -8745007.863 9  20797271.920
 94  3 22 21 31  0.0020000  0  5  7  2 26 19 27
  22553689.807   -10909272.167 7  -8378952.026 9  22553696.041
  21782057.479   -14871188.697 7 -11482984.978 9  21782061.463
  24664165.728    -1382064.136 5   -947622.840 9  24664171.283
  22049525.197     3601906.980 7   2827643.333 9  22049529.322
  20799277.369   -11277067.017 8  -8736783.285 9  20799280.299
 94  3 22 21 31 30.0020000  0  5  7  2 26 19 27
  22539145.346   -10985703.332 7  -8438508.658 9  22539151.580
  21779926.166   -14882388.545 7 -11491712.101 9  21779930.279
  24650449.088    -1454143.721 5  -1003788.692 9  24650454.197
  22060221.361     3658114.952 7   2871441.725 9  22060225.475
  20801365.127   -11266096.914 7  -8728235.140 9  20801368.010
 94  3 22 21 32  0.0020000  0  5  7  2 26 19 27
  22524673.760   -11061751.880 7  -8497767.153 9  22524679.982
  21777834.994   -14893377.340 7 -11500274.771 9  21777839.025
  24636797.221    -1525886.328 5  -1059691.936 9  24636802.025
  22070980.361     3714652.889 7   2915497.231 9  22070984.393
  20803533.197   -11254703.297 8  -8719356.988 9  20803536.115
 94  3 22 21 32 30.0020000  0  5  7  2 26 19 27
  22510275.666   -11137413.498 7  -8556724.148 9  22510280.881
  21775784.385   -14904153.895 7 -11508672.062 9  21775788.264
  24623204.369    -1597318.522 5  -1115353.327 9  24623209.303
  22081798.768     3771503.644 7   2959796.494 9  22081802.775
  20805780.682   -11242893.243 8  -8710154.339 9  20805783.541
 94  3 22 21 33  0.0020000  0  5  7  2 26 19 27
  22495948.143   -11212705.387 7  -8615393.035 9  22495953.287
  21773775.760   -14914708.920 7 -11516896.724 9  21773779.686
  24609670.447    -1668436.196 5  -1170769.619 9  24609675.615
  22092675.658     3828662.871 7   3004336.122 9  22092679.713
  20808107.127   -11230667.561 7  -8700627.825 9  20808109.986
 94  3 22 21 33 30.0020000  0  5  7  2 26 19 27
  22481687.900   -11287642.123 7  -8673785.181 9  22481693.068
  21771811.588   -14925029.443 7 -11524938.660 9  21771815.479
  24596196.158    -1739245.102 5  -1225945.342 9  24596200.846
  22103611.189     3886129.505 7   3049115.286 9  22103615.232
  20810512.002   -11218029.557 8  -8690780.021 9  20810514.932
 94  3 22 21 34  0.0020000  0  5  7  2 26 19 27
  22467495.572   -11362223.498 7  -8731900.426 9  22467500.764
  21769893.533   -14935109.272 7 -11532793.037 9  21769897.377
  24582779.572    -1809749.737 5  -1280883.957 9  24582783.826
  22114606.314     3943909.274 7   3094138.452 9  22114610.381
  20812990.978   -11205001.892 7  -8680628.585 9  20812993.932
 94  3 22 21 34 30.0020000  0  5  7  2 26 19 27
  22453371.564   -11436445.165 7  -8789735.378 9  22453376.721
  21768022.400   -14944942.333 8 -11540455.134 9  21768026.244
  24569424.830    -1879929.658 5  -1335569.541 9  24569429.189
  22125664.924     4002021.371 7   3139420.571 9  22125668.967
  20815543.307   -11191589.082 8  -8670177.039 9  20815546.271
 94  3 22 21 35  0.0020000  0  5  7  2 26 19 27
  22439313.596   -11510320.124 7  -8847300.164 9  22439318.635
  21766196.518   -14954537.282 8 -11547931.682 9  21766200.373
  24556135.729    -1949764.010 5  -1389985.862 9  24556140.744
  22136789.650     4060483.300 7   3184975.296 9  22136793.752
  20818173.354   -11177768.552 8  -8659407.792 9  20818176.342
 94  3 22 21 35 30.0020000  0  5  7  2 26 19 27
  22425323.104   -11583840.213 7  -8904588.432 9  22425328.049
  21764412.807   -14963910.585 8 -11555235.521 9  21764416.721
  24542914.244    -2019243.348 5  -1444125.553 9  24542918.170
  22147981.939     4119297.972 7   3230804.881 9  22147986.170
  20820882.471   -11163532.103 8  -8648314.457 9  20820885.377
 94  3 22 21 36  0.0020000  0  5  7  2 26 19 27
  22411403.260   -11656989.283 7  -8961587.583 9  22411408.123
  21762670.666   -14973065.920 8 -11562369.514 9  21762674.475
  24529765.963    -2088340.794 5  -1497967.650 9  24529770.170
  22159243.330     4178477.588 7   3276918.835 9  22159247.490
  20823675.322   -11148854.741 7  -8636877.552 9  20823678.311
 94  3 22 21 36 30.0020000  0  5  7  2 26 19 27
  22397549.549   -11729790.066 7  -9018315.352 9  22397554.389
  21760967.408   -14982015.818 8 -11569343.430 9  21760971.182
  24516690.752    -2157046.641 5  -1551504.609 9  24516695.369
  22170569.455     4237996.275 7   3323296.999 9  22170573.674
  20826554.736   -11133722.926 7  -8625086.533 9  20826557.631
 94  3 22 21 37  0.0020000  0  5  7  2 26 19 27
  22383763.471   -11802235.555 7  -9074766.268 9  22383768.217
  21759302.924   -14990762.823 8 -11576159.254 9  21759306.639
  24503690.018    -2225368.381 5  -1604742.272 9  24503694.037
  22181956.213     4297833.728 7   3369923.553 9  22181960.373
  20829520.502   -11118139.185 7  -8612943.363 9  20829523.455
 94  3 22 21 37 30.0020000  0  6  7  2 15 26 19 27
  22370048.893   -11874306.440 7  -9130925.285 9  22370053.779
  21757676.861   -14999309.198 8 -11582818.736 9  21757680.564
  24777064.314      -41613.795 5
  24490758.244    -2293323.550 5  -1657694.285 9  24490762.709
  22193399.525     4357969.533 7   3416782.591 9  22193403.697
  20832566.205   -11102133.493 8  -8600471.402 9  20832569.064
 94  3 22 21 38  0.0020000  0  6  7  2 15 26 19 27
  22356405.408   -11946002.593 7  -9186792.306 9  22356410.189
  21756089.291   -15007650.613 8 -11589318.512 9  21756092.900
  24768934.939      -84331.831 5
  24477892.674    -2360933.302 5  -1710377.142 9  24477897.045
  22204898.939     4418398.859 7   3463870.344 9  22204903.100
  20835689.377   -11085720.618 7  -8587682.152 9  20835692.166
 94  3 22 21 38 30.0020000  0  6  7  2 15 26 19 27
  22342836.260   -12017307.841 7  -9242354.732 9  22342841.088
  21754541.135   -15015787.082 8 -11595658.593 9  21754544.615
  24760872.096     -126703.138 5    -29702.67519  24760880.525
  24465090.228    -2428208.482 5  -1762799.296 9  24465094.178
  22216455.143     4479127.000 7   3511190.939 9  22216459.256
  20838888.775   -11068908.162 7  -8574581.547 9  20838891.775
 94  3 22 21 39  0.0020000  0  6  7  2 15 26 19 27
  22329343.643   -12088212.805 7  -9297605.252 9  22329348.318
  21753029.978   -15023728.711 8 -11601846.846 9  21753033.611
  24752874.432     -168730.697 5    -62451.275 9  24752882.404
  24452350.416    -2495156.186 5  -1814966.271 9  24452354.811
  22228071.033     4540168.139 7   3558755.429 9  22228075.228
  20842162.002   -11051707.851 7  -8561178.713 9  20842164.850
 94  3 22 21 39 30.0020000  0  6  7  2 15 26 19 27
  22315927.252   -12158715.665 7  -9352542.440 9  22315931.928
  21751557.510   -15031465.891 8 -11607875.798 9  21751561.166
  24744943.721     -210406.629 5    -94925.853 9  24744951.799
  24439676.049    -2561760.126 5  -1866865.380 9  24439680.279
  22239751.861     4601551.481 7   3606586.575 9  22239756.139
  20845512.463   -11034100.629 7  -8547458.809 9  20845515.416
 94  3 22 21 40  0.0020000  0  6  7  2 15 26 19 27
  22302582.729   -12228841.572 7  -9407185.901 9  22302587.381
  21750122.596   -15039006.288 8 -11613751.410 9  21750126.240
  24737077.916     -251739.839 5   -127133.406 9  24737086.053
  24427067.994    -2628015.711 5  -1918493.030 9  24427073.256
  22251498.893     4663282.314 7   3654688.489 9  22251503.088
  20848942.502   -11016075.676 7  -8533413.395 9  20848945.455
 94  3 22 21 40 30.0020000  0  6  7  2 15 26 19 27
  22289309.838   -12298591.167 7  -9461536.137 9  22289314.443
  21748725.814   -15046346.168 8 -11619470.775 9  21748729.283
  24729278.604     -292724.362 5   -159069.232 9  24729286.588
  24414531.400    -2693895.283 5  -1969827.705 9  24414535.959
  22263312.463     4725363.155 7   3703063.136 9  22263316.471
  20852454.713   -10997619.614 7  -8519032.055 9  20852457.678
 94  3 22 21 41  0.0020000  0  6  7  2 15 26 19 27
  22276106.182   -12367975.963 7  -9515602.117 9  22276110.822
  21747369.033   -15053476.404 8 -11625026.782 9  21747372.525
  24721546.064     -333359.728 5   -190732.975 9  24721554.178
  24402069.057    -2759386.291 5  -2020859.578 9  24402073.826
  22275191.846     4787789.137 7   3751706.728 9  22275195.994
  20856048.166   -10978735.345 7  -8504317.046 9  20856051.107
 94  3 22 21 41 30.0020000  0  6  7  2 15 26 19 27
  22262972.666   -12436992.695 7  -9569381.294 9  22262977.248
  21746051.119   -15060401.775 8 -11630423.158 9  21746054.682
  24713880.549     -373640.552 5   -222120.484 9  24713888.170
  24389680.088    -2824489.982 5  -2071589.653 9  24389684.904
  22287134.236     4850547.399 7   3800609.237 9  22287138.502
  20859723.596   -10959420.279 7  -8489266.353 9  20859726.572
 94  3 22 21 42  0.0020000  0  6  7  2 15 26 19 27
  22249910.236   -12505636.343 7  -9622869.759 9  22249914.842
  21744769.455   -15067136.770 8 -11635671.189 9  21744772.971
  24706281.275     -413570.906 5   -253234.880 9  24706288.732
  24377364.213    -2889210.628 5  -2122021.278 9  24377368.631
  22299136.049     4913617.151 7   3849754.466 9  22299140.420
  20863478.018   -10939690.902 7  -8473892.812 9  20863481.053
 94  3 22 21 42 30.0020000  0  6  7  2 15 26 19 27
  22236919.752   -12573900.091 7  -9676062.191 9  22236924.322
  21743521.166   -15073697.024 8 -11640783.057 9  21743524.682
  24698750.408     -453147.864 5   -284073.905 9  24698758.721
  24365120.971    -2953550.548 6  -2172156.222 9  24365125.283
  22311194.064     4976982.365 7   3899129.921 9  22311198.389
  20867308.713   -10919561.520 7  -8458207.580 9  20867311.713
 94  3 22 21 43  0.0020000  0  6  7  2 15 26 19 27
  22224003.072   -12641777.741 7  -9728953.773 9  22224007.572
  21742303.869   -15080093.088 8 -11645766.987 9  21742307.385
  24691288.330     -492363.573 5   -314631.428 9  24691295.811
  24352947.416    -3017522.739 6  -2222004.641 9  24352951.424
  22323307.705     5040640.196 7   3948733.393 9  22323311.947
  20871215.525   -10899029.372 7  -8442208.497 9  20871218.643
 94  3 22 21 43 30.0020000  0  6  7  2 15 26 19 27
  22211159.611   -12709270.608 7  -9781545.527 9  22211164.135
  21741116.479   -15086333.182 8 -11650629.380 9  21741119.982
  24683894.119     -531219.359 5   -344908.515 9  24683901.506
  24340843.252    -3081131.244 6  -2271569.658 9  24340847.506
  22335477.205     5104591.726 7   3998565.715 9  22335481.518
  20875198.721   -10878098.008 7  -8425898.345 9  20875201.756
 94  3 22 21 44  0.0020000  0  6  7  2 15 26 19 27
  22198388.744   -12776382.435 7  -9833840.367 9  22198393.150
  21739960.096   -15092410.156 8 -11655364.663 9  21739963.600
  24676569.752     -569708.737 5   -374900.076 9  24676577.490
  24328809.471    -3144367.943 6  -2320844.954 9  24328813.525
  22347703.900     5168841.999 7   4048630.822 9  22347708.236
  20879258.885   -10856762.294 7  -8409273.117 9  20879262.002
 94  3 22 21 44 30.0020000  0  6  7  2 15 26 19 27
  22185689.228   -12843116.560 7  -9885840.892 9  22185693.646
  21738837.525   -15098309.573 8 -11659961.595 9  21738841.123
  24669316.877     -607822.513 5   -404598.987 9  24669324.146
  24316848.025    -3207224.122 5  -2369823.765 9  24316851.881
  22359988.158     5233397.603 7   4098933.850 9  22359992.389
  20883398.479   -10835008.224 7  -8392321.894 9  20883401.514
 94  3 22 21 45  0.0020000  0  6  7  2 15 26 19 27
  22173064.861   -12909459.118 7  -9937536.299 9  22173069.197
  21737751.978   -15104013.548 8 -11664406.233 9  21737755.506
  24662135.877     -645556.887 5   -434002.247 9  24662143.357
  24304961.478    -3269690.513 6  -2418498.839 9  24304965.275
  22372333.900     5298274.660 7   4149487.367 9  22372338.166
  20887619.900   -10812823.780 7  -8375035.316 9  20887622.900
 94  3 22 21 45 30.0020000  0  6  7  2 15 26 19 27
  22160517.900   -12975392.699 7  -9988913.025 9  22160522.283
  21736706.275   -15109509.476 8 -11668688.759 9  21736709.838
  24655028.666     -682906.111 5   -463105.411 9  24655037.154
  24293152.033    -3331748.634 6  -2466855.779 9  24293155.549
  22384743.150     5363484.910 7   4200300.510 9  22384747.311
  20891922.322   -10790214.049 7  -8357417.342 9  20891925.357
 94  3 22 21 46  0.0020000  0  6  7  2 15 26 19 27
  22148049.775   -13040913.044 7 -10039967.746 9  22148054.217
  21735699.260   -15114801.089 8 -11672812.076 9  21735702.834
  24647993.658     -719875.973 5   -491912.972 9  24648001.010
  24281418.924    -3393405.267 6  -2514899.870 9  24281423.189
  22397213.025     5429014.520 7   4251362.509 9  22397217.420
  20896307.166   -10767172.376 7  -8339462.791 9  20896310.307
 94  3 22 21 46 30.0020000  0  6  7  2 15 26 19 27
  22135663.768   -13106002.699 7 -10090686.862 9  22135668.104
  21734736.838   -15119857.118 8 -11676751.821 9  21734740.459
  24641033.221     -756452.907 5   -520414.375 9  24641040.971
  24269765.978    -3454641.948 5  -2562616.720 9  24269770.092
  22409747.908     5494884.874 7   4302690.022 9  22409752.174
  20900776.127   -10743687.495 7  -8321162.889 9  20900779.338
 94  3 22 21 47  0.0020000  0  6  7  2 15 26 19 27
  22123359.580   -13170660.943 7 -10141069.816 9  22123363.939
  21733817.627   -15124687.865 8 -11680516.023 9  21733821.307
  24634146.221     -792642.075 5   -548613.623 9  24634153.982
  24258191.041    -3515469.387 5  -2610014.682 9  24258195.576
  22422349.057     5561103.634 7   4354289.023 9  22422353.217
  20905327.080   -10719771.932 7  -8302527.389 9  20905330.092
 94  3 22 21 47 30.0020000  0  6  7  2 15 26 19 27
  22111133.377   -13234909.113 7 -10191133.234 9  22111137.725
  21732939.549   -15129302.892 8 -11684112.129 9  21732943.111
  24627333.666     -828440.233 5   -576508.178 9  24627341.158
  24246692.611    -3575893.974 5  -2657098.737 9  24246696.689
  22435015.807     5627668.830 7   4406157.973 9  22435020.072
  20909961.143   -10695420.548 7  -8283552.287 9  20909964.271
 94  3 22 21 48  0.0020000  0  6  7  2 15 26 19 27
  22098981.635   -13298765.108 7 -10240891.058 9  22098985.971
  21732102.760   -15133700.207 8 -11687538.587 9  21732106.451
  24620595.932     -863845.657 5   -604096.747 9  24620602.412
  24235269.275    -3635922.525 5  -2703874.188 9  24235273.693
  22447748.580     5694580.415 7   4458296.827 9  22447752.846
  20914679.830   -10670623.377 7  -8264229.821 9  20914683.018
 94  3 22 21 48 30.0020000  0  6  7  2 15 26 19 27
  22086905.447   -13362226.023 7 -10290341.034 9  22086909.736
  21731304.588   -15137895.341 8 -11690807.504 9  21731308.174
  24613934.088     -898856.223 5   -631377.620 9  24613941.404
  24223920.986    -3695558.809 5  -2750343.978 9  24223925.135
  22460547.197     5761836.149 7   4510703.851 9  22460551.393
  20919482.580   -10645384.121 7  -8244562.879 9  20919485.814
 94  3 22 21 49  0.0020000  0  6  7  2 15 26 19 27
  22074906.525   -13425280.744 7 -10339474.492 9  22074910.744
  21730538.291   -15141921.019 8 -11693944.382 9  21730541.982
  24607346.979     -933469.936 5   -658349.237 9  24607354.037
  24212645.338    -3754811.620 5  -2796514.991 9  24212649.639
  22473408.479     5829423.757 7   4563369.479 9  22473412.756
  20924370.041   -10619701.167 7  -8224550.201 9  20924373.240
 94  3 22 21 49 30.0020000  0  6  7  2 15 26 19 27
  22062984.908   -13487928.807 7 -10388291.076 9  22062989.104
  21729805.674   -15145771.221 8 -11696944.521 9  21729809.342
  24600837.432     -967680.223 5   -685006.534 9  24600844.982
  24201445.033    -3813668.363 5  -2842377.367 9  24201449.193
  22486329.916     5897326.484 7   4616280.650 9  22486334.334
  20929343.158   -10593566.863 7  -8204185.820 9  20929346.404
 94  3 22 21 50  0.0020000  0  6  7  2 15 26 19 27
  22051144.728   -13550150.125 7 -10436775.128 9  22051148.877
  21729107.604   -15149438.456 8 -11699802.085 9  21729111.295
  24594403.111    -1001490.086 5   -711351.774 9  24594410.041
  24190321.205    -3872127.020 5  -2887929.512 9  24190325.471
  22499309.439     5965532.933 7   4669428.492 9  22499313.811
  20934400.150   -10566992.439 7  -8183478.493 9  20934403.361
 94  3 22 21 50 30.0020000  0  6  7  2 15 26 19 27
  22039386.502   -13611938.066 7 -10484921.485 9  22039390.732
  21728444.275   -15152925.134 8 -11702518.964 9  21728447.885
  24588045.775    -1034897.647 5   -737383.552 9  24588053.361
  24179273.939    -3930179.546 5  -2933165.225 9  24179278.428
  22512347.002     6034044.575 7   4722814.141 9  22512351.303
  20939538.580   -10539991.398 7  -8162438.734 9  20939541.709
 94  3 22 21 51  0.0020000  0  6  7  2 15 26 19 27
  22027706.486   -13673317.189 7 -10532749.282 9  22027710.729
  21727816.557   -15156223.798 8 -11705089.333 9  21727820.154
  24581764.900    -1067905.576 5   -763103.903 9  24581772.381
  24168305.572    -3987818.226 5  -2978078.436 9  24168310.236
  22525441.611     6102858.765 7   4776435.542 9  22525445.818
  20944754.244   -10512581.889 7  -8141080.693 9  20944757.385
 94  3 22 21 51 30.0020000  0  6  7  2 15 26 19 27
  22016104.236   -13734288.063 7 -10580258.968 9  22016108.326
  21727229.486   -15159309.612 8 -11707493.847 9  21727232.990
  24575561.283    -1100504.642 5   -788505.681 9  24575568.271
  24157419.072    -4045025.596 5  -3022655.587 9  24157423.783
  22538595.525     6171982.037 7   4830297.789 9  22538599.850
  20950048.963   -10484758.076 7  -8119399.817 9  20950052.221
 94  3 22 21 52  0.0020000  0  6  7  2 15 26 19 27
  22004578.596   -13794855.854 7 -10627454.561 9  22004582.803
  21726680.877   -15162192.519 8 -11709740.253 9  21726684.439
  24569434.307    -1132700.941 5   -813593.609 9  24569441.377
  24146612.135    -4101818.676 6  -3066909.915 9  24146616.189
  22551807.963     6241413.398 7   4884400.103 9  22551812.334
  20955422.002   -10456521.761 7  -8097397.517 9  20955425.248
 94  3 22 21 52 30.0020000  0  6  7  2 15 26 19 27
  21993129.252   -13855020.377 7 -10674335.922 9  21993133.365
  21726169.627   -15164878.521 8 -11711833.233 9  21726173.084
  24563385.479    -1164487.164 5   -838361.993 9  24563393.076
  24135884.111    -4158194.001 5  -3110838.708 9  24135888.787
  22565080.229     6311160.393 7   4938748.368 9  22565084.646
  20960876.314   -10427859.219 7  -8075063.084 9  20960879.572
 94  3 22 21 53  0.0020000  0  6  7  2 15 26 19 27
  21981756.072   -13914786.877 7 -10720907.133 9  21981760.244
  21725693.658   -15167379.332 8 -11713781.908 9  21725697.033
  24557413.588    -1195868.366 5   -862814.766 9  24557420.764
  24125232.541    -4214167.376 5  -3154454.295 9  24125237.264
  22578409.174     6381204.812 7   4993328.390 9  22578413.756
  20966415.291   -10398752.748 7  -8052382.736 9  20966418.502
 94  3 22 21 53 30.0020000  0  6  7  2 15 26 19 27
  21970460.400   -13974146.749 7 -10767161.494 9  21970464.549
  21725252.893   -15169695.297 8 -11715586.546 9  21725256.338
  24551518.455    -1226848.856 5   -886955.314 9  24551526.100
  24114654.588    -4269753.336 5  -3197768.006 9  24114659.193
  22591794.252     6451542.365 7   5048136.826 9  22591798.787
  20972039.432   -10369197.833 7  -8029352.950 9  20972042.830
 94  3 22 21 54  0.0020000  0  6  7  2 15 26 19 27
  21959243.502   -14033091.092 7 -10813092.069 9  21959247.732
  21724847.158   -15171828.019 8 -11717248.398 9  21724850.521
  24545700.455    -1257421.987 5   -910778.442 9  24545707.385
  24104150.775    -4324953.158 6  -3240780.822 9  24104155.475
  22605237.182     6522185.551 7   5103183.418 9  22605241.611
  20977750.330   -10339186.456 7  -8005967.478 9  20977753.729
 94  3 22 21 54 30.0020000  0  6  7  2 15 26 19 27
  21948106.416   -14091616.525 7 -10858696.222 9  21948110.576
  21724474.314   -15173787.254 8 -11718775.072 9  21724477.689
  24539959.783    -1287588.139 5   -934284.429 9  24539967.029
  24093722.377    -4379755.238 5  -3283483.712 9  24093726.842
  22618738.166     6593133.749 7   5158467.676 9  22618742.725
  20983544.955   -10308735.515 7  -7982239.490 9  20983548.248
 94  3 22 21 55  0.0020000  0  6  7  2 15 26 19 27
  21937053.064   -14149701.813 7 -10903957.403 9  21937057.342
  21724136.971   -15175559.592 8 -11720156.114 9  21724140.357
  24534300.307    -1317329.349 5   -957459.302 9  24534307.494
  24083374.072    -4434134.389 5  -3325857.040 9  24083378.467
  22632298.768     6664395.036 7   5213995.900 9  22632303.361
  20989423.166   -10277845.596 8  -7958169.439 9  20989426.506
 94  3 22 21 55 30.0020000  0  6  7  2 15 26 19 27
  21926085.541   -14207335.613 7 -10948866.777 9  21926089.584
  21723833.385   -15177154.439 8 -11721398.853 9  21723836.771
  24528722.002    -1346642.513 5   -980300.649 9  24528729.213
  24073109.025    -4488077.970 5  -3367890.963 9  24073113.396
  22645920.697     6735979.289 7   5269775.790 9  22645925.150
  20995381.478   -10246535.317 7  -7933771.832 9  20995384.795
 94  3 22 21 56  0.0020000  0  6  7  2 15 26 19 27
  21915203.447   -14264521.881 7 -10993427.422 9  21915207.408
  21723558.088   -15178601.797 8 -11722526.662 9  21723561.498
  24523224.611    -1375529.747 5  -1002810.085 9  24523231.869
  24062927.853    -4541581.837 6  -3409582.256 9  24062932.178
  22659604.377     6807886.421 7   5325807.268 9  22659608.854
  21001416.705   -10214819.734 8  -7909058.406 9  21001419.916
 94  3 22 21 56 30.0020000  0  6  7  2 15 26 19 27
  21904405.189   -14321266.975 7 -11037644.306 9  21904409.174
  21723310.619   -15179901.783 8 -11723539.639 9  21723313.865
  24517809.861    -1403987.179 6  -1024984.631 9  24517817.154
  24052831.307    -4594639.388 6  -3450925.761 9  24052835.643
  22673348.010     6880108.446 7   5382084.120 9  22673352.393
  21007528.088   -10182705.291 8  -7884034.176 9  21007531.252
 94  3 22 21 57  0.0020000  0  6  7  2 15 26 19 27
  21893690.486   -14377573.648 7 -11081519.564 9  21893694.518
  21723093.729   -15181041.705 8 -11724427.891 9  21723097.068
  24512476.885    -1432010.499 6  -1046820.901 9  24512484.189
  24042818.502    -4647257.155 6  -3491926.573 9  24042823.389
  22687151.213     6952645.632 7   5438606.550 9  22687155.818
  21013718.713   -10150172.442 8  -7858683.913 9  21013721.924
 94  3 22 21 57 30.0020000  0  6  7  2 15 26 19 27
  21883053.643   -14433470.054 7 -11125075.126 9  21883057.615
  21722905.627   -15182030.248 8 -11725198.185 9  21722909.107
  24507224.822    -1459609.768 6  -1068326.750 9  24507231.881
  24032886.830    -4699449.869 6  -3532596.176 9  24032890.920
  22701014.393     7025495.854 7   5495372.903 9  22701018.893
  21019991.010   -10117210.757 7  -7832999.494 9  21019994.174
 94  3 22 21 58  0.0020000  0  6  7  2 15 26 19 27
  21872493.268   -14488963.971 7 -11168317.068 9  21872497.252
  21722750.252   -15182847.776 8 -11725835.224 9  21722753.604
  24502054.518    -1486779.793 6  -1089498.136 9  24502061.115
  24023036.041    -4751212.831 6  -3572930.926 9  24023040.248
  22714934.908     7098649.206 7   5552375.466 9  22714939.373
  21026347.182   -10083808.935 7  -7806972.113 9  21026350.404
 94  3 22 21 58 30.0020000  0  6  7  2 15 26 19 27
  21862011.385   -14544046.310 7 -11211238.303 9  21862015.357
  21722632.307   -15183467.883 8 -11726318.427 9  21722635.658
  24496966.814    -1513516.294 6  -1110331.703 9  24496974.107
  24013267.932    -4802543.903 6  -3612929.133 9  24013272.443
  22728911.861     7172096.955 7   5609607.431 9  22728916.455
  21032791.729   -10049943.720 7  -7780583.644 9  21032794.740
 94  3 22 21 59  0.0020000  0  6  7  2 15 26 19 27
  21851610.033   -14598706.017 7 -11253830.214 9  21851614.100
  21722551.877   -15183889.355 8 -11726646.845 9  21722555.240
  24491960.697    -1539821.696 6  -1130829.354 9  24491967.826
  24003583.205    -4853438.562 6  -3652587.266 9  24003587.787
  22742944.908     7245841.572 7   5667070.717 9  22742949.209
  21039326.080   -10015605.551 7  -7753826.642 9  21039329.174
 94  3 22 21 59 30.0020000  0  6  7  2 15 26 19 27
  21841291.643   -14652929.423 7 -11296082.147 9  21841295.603
  21722508.541   -15184118.113 8 -11726825.097 9  21722511.846
  24487039.041    -1565686.659 6  -1150983.800 9  24487046.732
  23993985.760    -4903875.855 6  -3691889.026 9  23993989.861
  22757036.736     7319895.130 7   5724774.735 9  22757041.260
  21045948.213    -9980805.499 7  -7726709.726 9  21045951.260
 94  3 22 22  0  0.0020000  0  6  7  2 15 26 19 27
  21831058.635   -14706703.581 7 -11337984.028 9  21831062.537
  21722498.486   -15184170.047 8 -11726865.565 9  21722501.967
  24482199.549    -1591119.170 6  -1170801.290 9  24482206.631
  23984471.018    -4953873.383 6  -3730848.099 9  23984475.623
  22771183.986     7394239.237 7   5782705.159 9  22771188.697
  21052651.908    -9945576.403 7  -7699258.497 9  21052655.072
 94  3 22 22  0 30.0020000  0  6  7  2 15 26 19 27
  21820912.494   -14760022.173 7 -11379530.918 9  21820916.385
  21722519.611   -15184057.567 8 -11726777.919 9  21722523.127
  24477442.049    -1616119.555 6  -1190282.047 9  24477449.365
  23975037.549    -5003445.199 6  -3769475.448 9  23975041.639
  22785388.877     7468886.373 7   5840871.699 9  22785393.447
  21059437.189    -9909920.805 7  -7671474.933 9  21059440.307
 94  3 22 22  1  0.0020000  0  6  7  2 15 26 19 27
  21810852.979   -14812885.335 7 -11420722.930 9  21810856.775
  21722570.096   -15183793.768 8 -11726572.355 9  21722573.635
  24472769.197    -1640674.590 6  -1209415.809 9  24472776.514
  23965686.666    -5052584.608 6  -3807765.880 9  23965690.920
  22799654.705     7543853.276 7   5899287.414 9  22799659.275
  21066301.924    -9873846.041 7  -7643364.743 9  21066305.076
 94  3 22 22  1 30.0020000  0  6  7  2 15 26 19 27
  21800878.963   -14865297.567 7 -11461563.571 9  21800882.725
  21722646.291   -15183392.764 8 -11726259.880 9  21722649.865
  24468181.158    -1664783.332 6  -1228201.781 9  24468187.639
  23956415.439    -5101306.945 6  -3845731.304 9  23956419.471
  22813978.291     7619125.933 7   5957941.369 9  22813983.049
  21073245.111    -9837359.425 7  -7614933.633 9  21073248.193
 94  3 22 22  2  0.0020000  0  6  7  2 15 26 19 27
  21790990.174   -14917264.595 7 -11502057.297 9  21790993.971
  21722751.869   -15182837.999 8 -11725827.588 9  21722755.619
  24463680.275    -1688438.483 6  -1246634.314 9  24463686.861
  23947223.408    -5149609.695 6  -3883369.779 9  23947227.428
  22828359.393     7694697.459 7   6016828.215 9  22828363.998
  21080272.229    -9800430.998 7  -7586158.255 9  21080275.428
 94  3 22 22  2 30.0020000  0  6  7  2 15 26 19 27
  21781182.260   -14968803.398 7 -11542217.342 9  21781186.068
  21722887.650   -15182123.702 8 -11725270.991 9  21722891.365
  24459263.986    -1711644.094 6  -1264716.570 9  24459271.080
  23938113.400    -5197484.905 6  -3920675.126 9  23938117.525
  22842796.510     7770566.115 7   6075946.576 9  22842801.244
  21087386.096    -9763047.915 7  -7557028.603 9  21087389.166
 94  3 22 22  3  0.0020000  0  6  7  2 15 26 19 27
  21771454.877   -15019921.697 7 -11582049.726 9  21771458.604
  21723053.916   -15181249.817 8 -11724590.040 9  21723057.631
  24454933.088    -1734403.098 6  -1282450.824 9  24454939.850
  23929086.729    -5244919.617 6  -3957637.202 9  23929090.443
  22857286.041     7846708.799 7   6135278.475 9  22857290.775
  21094586.158    -9725210.510 7  -7527544.937 9  21094589.135
 94  3 22 22  3 30.0020000  0  6  7  2 15 26 19 27
  21761811.557   -15070598.218 7 -11621537.866 9  21761815.143
  21723255.838   -15180188.825 8 -11723763.289 9  21723259.541
  24450689.174    -1756704.984 6  -1299828.881 9  24450695.502
  23920147.775    -5291894.226 6  -3994240.771 9  23920151.396
  22871830.010     7923136.898 7   6194832.772 9  22871834.756
  21101876.018    -9686904.310 7  -7497695.975 9  21101878.842
 94  3 22 22  4  0.0020000  0  6  7  2 15 26 19 27
  21752252.143   -15120833.021 7 -11660681.817 9  21752255.740
  21723494.697   -15178934.723 8 -11722786.062 9  21723498.389
  24446532.830    -1778546.427 5  -1316848.133 9  24446540.170
  23911297.064    -5338404.346 6  -4030482.397 9  23911301.049
  22886432.729     7999873.553 7   6254627.505 9  22886437.580
  21109253.861    -9648132.984 8  -7467484.574 9  21109256.791
 94  3 22 22  4 30.0020000  0  6  7  2 15 26 19 27
  21742780.205   -15170607.587 7 -11699467.142 9  21742783.791
  21723769.533   -15177489.893 8 -11721660.219 9  21723773.166
  24442465.213    -1799920.674 5  -1333503.367 9  24442472.248
  23902534.385    -5384452.388 6  -4066363.966 9  23902538.264
  22901097.268     8076936.502 7   6314676.483 9  22901102.143
  21116717.150    -9608913.218 8  -7436923.741 9  21116720.162
 94  3 22 22  5  0.0020000  0  6  7  2 15 26 19 27
  21733395.189   -15219926.136 7 -11737897.131 9  21733398.846
  21724076.674   -15175875.349 8 -11720402.124 9  21724080.307
  24438486.127    -1820832.463 6  -1349798.228 9  24438493.256
  23893858.596    -5430044.988 6  -4101890.626 9  23893862.299
  22915822.697     8154318.608 7   6374974.162 9  22915827.455
  21124261.994    -9569264.751 8  -7406028.855 9  21124264.959
 94  3 22 22  5 30.0020000  0  6  7  2 15 26 19 27
  21724097.197   -15268787.466 7 -11775970.851 9  21724100.865
  21724415.588   -15174093.810 8 -11719013.908 9  21724419.244
  24434595.096    -1841277.732 5  -1365729.579 9  24434602.588
  23885268.674    -5475187.736 6  -4137066.760 9  23885272.447
  22930611.775     8232036.659 7   6435533.613 9  22930616.580
  21131886.939    -9529195.790 8  -7374806.311 9  21131890.033
 94  3 22 22  6  0.0020000  0  6  7  2 15 26 19 27
  21714883.330   -15317206.525 7 -11813699.938 9  21714887.057
  21724784.877   -15172153.880 8 -11717502.276 9  21724788.557
  24430793.486    -1861257.347 6  -1381298.077 9  24430800.428
  23876763.189    -5519881.345 6  -4171892.928 9  23876767.197
  22945461.072     8310069.537 7   6496338.380 9  22945465.982
  21139592.010    -9488704.556 8  -7343254.720 9  21139595.209
 94  3 22 22  6 30.0020000  0  6  7  2 15 26 19 27
  21705756.705   -15365167.662 7 -11851072.207 9  21705760.408
  21725188.010   -15170037.315 8 -11715853.006 9  21725191.443
  24427082.783    -1880758.144 6  -1396493.456 9  24427089.678
  23868350.103    -5564091.706 6  -4206342.531 9  23868353.959
  22960367.760     8388403.653 7   6557377.878 9  22960372.471
  21147380.064    -9447778.464 7  -7311364.277 9  21147383.322
 94  3 22 22  7  0.0020000  0  6  7  2 15 26 19 27
  21696715.182   -15412680.011 7 -11888094.768 9  21696718.791
  21725623.275   -15167748.920 8 -11714069.841 9  21725626.686
  24423462.197    -1899783.800 6  -1411318.614 9  24423469.549
  23860030.307    -5607812.111 6  -4240410.340 9  23860033.986
  22975328.025     8467019.763 7   6618637.107 9  22975332.842
  21155251.736    -9406412.249 7  -7279130.888 9  21155255.076
 94  3 22 22  7 30.0020000  0  6  7  2 15 26 19 27
  21687757.158   -15459755.372 7 -11924776.824 9  21687760.850
  21726089.869   -15165297.207 8 -11712159.419 9  21726093.338
  24419930.353    -1918345.234 5  -1425782.034 9  24419937.670
  23851800.768    -5651059.636 6  -4274109.691 9  23851804.822
  22990339.627     8545905.374 7   6680106.340 9  22990344.420
  21163206.463    -9364609.471 7  -7246557.316 9  21163209.768
 94  3 22 22  8  0.0020000  0  6  7  2 15 26 19 27
  21678880.549   -15506400.240 7 -11961123.433 9  21678884.217
  21726585.666   -15162691.323 8 -11710128.874 9  21726589.240
  24416484.869    -1936448.507 5  -1439888.438 9  24416492.139
  23843661.369    -5693831.955 6  -4307438.744 9  23843664.826
  23005400.393     8625050.929 7   6741778.130 9  23005405.303
  21171245.049    -9322366.272 7  -7213640.562 9  21171248.412
 94  3 22 22  8 30.0020000  0  6  7  2 15 26 19 27
  21670090.103   -15552594.524 7 -11997118.935 9  21670093.889
  21727111.533   -15159928.294 8 -11707975.870 9  21727115.072
  24413129.510    -1954079.995 5  -1453627.219 9  24413137.260
  23835612.869    -5736126.538 6  -4340395.536 9  23835616.701
  23020516.900     8704488.565 7   6803677.510 9  23020521.623
  21179369.150    -9279673.390 7  -7180373.404 9  21179372.584
 94  3 22 22  9  0.0020000  0  6  7  2 15 26 19 27
  21661387.002   -15598329.992 7 -12032756.916 9  21661390.822
  21727667.541   -15157006.549 8 -11705699.190 9  21727671.045
  24409867.041    -1971226.803 5  -1466988.339 9  24409874.557
  23827653.150    -5777955.030 6  -4372989.138 9  23827656.936
  23035693.721     8784242.264 7   6865823.178 9  23035698.420
  21187583.236    -9236508.141 7  -7146738.170 9  21187586.658
 94  3 22 22  9 30.0020000  0  6  7  2 15 26 19 27
  21652769.924   -15643613.042 7 -12068042.371 9  21652773.592
  21728252.244   -15153932.905 8 -11703304.149 9  21728255.689
  24406694.854    -1987894.577 5  -1479976.199 9  24406702.146
  23819780.322    -5819328.383 6  -4405228.082 9  23819784.189
  23050930.869     8864313.631 7   6928216.378 9  23050935.580
  21195884.900    -9192884.274 7  -7112745.570 9  21195888.475
 94  3 22 22 10  0.0020000  0  6  7  2 15 26 19 27
  21644239.158   -15688442.987 7 -12102974.754 9  21644242.967
  21728867.361   -15150701.329 8 -11700786.043 9  21728870.689
  24403614.713    -2004080.370 5  -1492588.447 9  24403621.346
  23811995.346    -5860238.349 6  -4437105.958 9  23811999.225
  23066228.596     8944702.771 7   6990857.202 9  23066233.213
  21204273.268    -9148802.247 7  -7078395.961 9  21204276.713
 94  3 22 22 10 30.0020000  0  6  7  2 15 26 19 27
  21635797.994   -15732802.194 7 -12137540.330 9  21635801.756
  21729513.721   -15147304.258 8 -11698138.979 9  21729517.225
  24400626.588    -2019779.686 5  -1504821.651 9  24400633.420
  23804298.041    -5900687.735 6  -4468624.933 9  23804302.107
  23081586.080     9025407.721 7   7053744.104 9  23081590.826
  21212748.674    -9104264.360 7  -7043691.136 9  21212752.061
 94  3 22 22 11  0.0020000  0  6  7  2 15 26 19 27
  21627444.713   -15776697.611 7 -12171744.508 9  21627448.557
  21730192.604   -15143736.928 8 -11695359.247 9  21730196.072
  24397731.510    -2034997.535 5  -1516679.683 9  24397738.049
  23796688.627    -5940676.453 6  -4499784.947 9  23796692.166
  23097001.189     9106414.051 7   7116865.851 9  23097005.854
  21221309.049    -9059279.143 7  -7008637.740 9  21221312.588
 94  3 22 22 11 30.0020000  0  6  7  2 15 26 19 27
  21619182.799   -15820113.262 7 -12205574.851 9  21619186.514
  21730905.033   -15139992.716 8 -11692441.681 9  21730908.549
  24394929.088    -2049723.083 5  -1528154.092 9  24394935.721
  23789171.721    -5980175.132 6  -4530563.108 9  23789175.471
  23112475.971     9187734.247 7   7180232.169 9  23112480.951
  21229953.885    -9013849.882 7  -6973238.340 9  21229957.377
 94  3 22 22 12  0.0020000  0  6  7  2 15 26 19 27
  21611013.010   -15863046.330 7 -12239029.152 9  21611016.748
  21731648.213   -15136088.323 8 -11689399.298 9  21731651.717
  24392219.478    -2063963.880 6  -1539250.805 9  24392226.619
  23781746.783    -6019193.476 6  -4560966.994 9  23781750.463
  23128007.307     9269351.770 7   7243830.164 9  23128012.146
  21238682.932    -8967978.803 7  -6937494.661 9  21238686.436
 94  3 22 22 12 30.0020000  0  6  7  2 15 26 19 27
  21602934.955   -15905495.280 7 -12272106.218 9  21602938.717
  21732419.119   -15132036.528 8 -11686242.057 9  21732422.611
  24389600.299    -2077724.593 6  -1549973.397 9  24389606.732
  23774410.541    -6057744.329 6  -4591006.595 9  23774414.092
  23143592.728     9351254.438 7   7307650.343 9  23143597.674
  21247492.494    -8921685.012 7  -6901421.604 9  21247495.939
 94  3 22 22 13  0.0020000  0  6  7  2 15 26 19 27
  21594949.541   -15947460.142 7 -12304806.072 9  21594953.209
  21733218.916   -15127833.413 8 -11682966.899 9  21733222.396
  24387076.283    -2090992.359 6  -1560311.883 9  24387083.330
  23767166.854    -6095812.986 6  -4620670.467 9  23767170.721
  23159235.002     9433453.974 7   7371701.849 9  23159239.971
  21256383.885    -8874959.783 8  -6865012.359 9  21256387.389
 94  3 22 22 13 30.0020000  0  6  7  2 15 26 19 27
  21587056.705   -15988937.769 7 -12337126.266 9  21587060.408
  21734047.400   -15123479.284 8 -11679574.070 9  21734051.010
  24384645.361    -2103763.757 6  -1570263.591 9  24384652.158
  23760014.955    -6133393.958 6  -4649954.319 9  23760019.256
  23174933.150     9515947.973 7   7435982.808 9  23174938.037
  21265359.424    -8827793.619 8  -6828259.532 9  21265362.893
 94  3 22 22 14  0.0020000  0  6  7  2 15 26 19 27
  21579255.018   -16029935.606 7 -12369072.597 9  21579258.686
  21734906.393   -15118965.623 8 -11676056.925 9  21734909.979
  24382309.041    -2116041.583 6  -1579830.694 9  24382314.525
  23752954.260    -6170497.625 6  -4678866.240 9  23752958.443
  23190683.689     9598717.873 7   7500478.754 9  23190688.541
  21274418.729    -8780186.289 8  -6791162.935 9  21274422.150
 94  3 22 22 14 30.0020000  0  6  7  2 15 26 19 27
  21571543.807   -16070458.574 7 -12400648.905 9  21571547.475
  21735798.150   -15114279.493 8 -11672405.397 9  21735801.654
  24380068.963    -2127814.547 6  -1589004.395 9  24380074.365
  23745988.158    -6207107.586 6  -4707393.460 9  23745992.283
  23206488.838     9681773.642 7   7565197.459 9  23206493.807
  21283564.596    -8732126.071 8  -6753713.445 9  21283567.971
 94  3 22 22 15  0.0020000  0  6  7  2 15 26 19 27
  21563920.103   -16110521.141 7 -12431866.459 9  21563923.619
  21736722.260   -15109423.577 8 -11668621.569 9  21736725.846
  24377924.291    -2139084.429 6  -1597786.085 9  24377929.295
  23739115.486    -6243221.673 6  -4735534.284 9  23739119.494
  23222346.314     9765104.625 7   7630130.610 9  23222350.955
  21292798.924    -8683599.590 8  -6715900.627 9  21292802.369
 94  3 22 22 15 30.0020000  0  6  7  2 15 26 19 27
  21556384.611   -16150120.363 7 -12462722.961 9  21556388.139
  21737678.424   -15104398.450 8 -11664705.881 9  21737681.904
  24375875.338    -2149851.513 6  -1606175.984 9  24375880.248
  23732335.900    -6278847.053 6  -4763294.301 9  23732339.650
  23238254.525     9848702.775 7   7695271.953 9  23238259.412
  21302120.408    -8634614.427 8  -6677730.395 9  21302123.830
 94  3 22 22 16  0.0020000  0  6  7  2 15 26 19 27
  21548936.666   -16189259.093 7 -12493220.645 9  21548940.311
  21738663.861   -15099219.988 8 -11660670.725 9  21738667.389
  24373920.900    -2160120.835 6  -1614178.011 9  24373925.939
  23725647.963    -6313993.768 6  -4790681.328 9  23725651.865
  23254212.814     9932563.945 7   7760618.242 9  23254217.478
  21311526.916    -8585182.565 7  -6639212.089 9  21311530.314
 94  3 22 22 16 30.0020000  0  6  7  2 15 26 19 27
  21541577.275   -16227931.846 7 -12523355.227 9  21541580.955
  21739678.143   -15093891.558 8 -11656518.707 9  21739681.576
  24372062.932    -2169884.771 6  -1621786.243 9  24372068.229
  23719051.322    -6348659.499 6  -4817693.569 9  23719055.424
  23270224.635    10016706.161 7   7826183.532 9  23270229.475
  21321018.807    -8535301.342 7  -6600343.635 9  21321022.100
 94  3 22 22 17  0.0020000  0  6  7  2 15 26 19 27
  21534305.846   -16266143.693 7 -12553130.662 9  21534309.338
  21740718.736   -15088421.530 8 -11652256.356 9  21740722.287
  24370299.697    -2179150.356 6  -1629006.150 9  24370304.818
  23712544.377    -6382853.490 6  -4844338.220 9  23712548.361
  23286291.182    10101135.492 6   7891972.540 9  23286296.174
  21330593.408    -8484987.761 7  -6561138.271 9  21330596.830
 94  3 22 22 17 30.0020000  0  6  7  2 15 26 19 27
  21527123.455   -16303887.695 7 -12582541.540 9  21527127.041
  21741786.971   -15082808.084 8 -11647882.252 9  21741790.404
  24368631.010    -2187919.152 6  -1635838.953 9  24368636.986
  23706127.619    -6416574.105 6  -4870614.001 9  23706131.252
  23302416.854    10185877.433 6   7958005.140 9  23302421.529
  21340248.861    -8434247.272 7  -6521600.255 9  21340252.307
 94  3 22 22 18  0.0020000  0  6  7  2 15 26 19 27
  21520031.221   -16341158.696 7 -12611583.846 9  21520034.701
  21742884.978   -15077037.239 8 -11643385.501 9  21742888.482
  24367057.408    -2196187.488 6  -1642281.775 9  24367062.822
  23699803.158    -6449807.497 6  -4896510.134 9  23699807.037
  23318604.455    10270942.647 6   8024289.636 9  23318609.471
  21349988.627    -8383065.137 7  -6481718.103 9  21349992.131
 94  3 22 22 18 30.0020000  0  6  7  2 15 26 19 27
  21513028.080   -16377959.363 7 -12640259.661 9  21513031.654
  21744015.330   -15071097.030 8 -11638756.780 9  21744018.893
  24365579.971    -2203952.688 6  -1648332.556 9  24365584.787
  23693572.924    -6482549.233 6  -4922023.160 9  23693576.943
  23334852.057    10356324.925 6   8090821.197 9  23334857.025
  21359811.744    -8331444.260 7  -6441494.072 9  21359815.283
 94  3 22 22 19  0.0020000  0  6  7  2 15 26 19 27
  21506113.361   -16414296.549 7 -12668574.322 9  21506116.900
  21745177.807   -15064989.796 8 -11633997.911 9  21745181.299
  24364198.604    -2211213.095 6  -1653989.997 9  24364204.041
  23687437.314    -6514791.671 6  -4947147.124 9  23687441.018
  23351157.127    10442008.183 6   8157587.285 9  23351162.389
  21369719.291    -8279379.177 7  -6400923.910 9  21369722.854
 94  3 22 22 19 30.0020000  0  6  7  2 15 26 19 27
  21499286.354   -16450172.736 7 -12696529.761 9  21499289.857
  21746372.455   -15058711.472 8 -11629105.722 9  21746375.994
  24362912.353    -2217971.156 6  -1659255.978 9  24362918.248
  23681395.908    -6546540.465 6  -4971886.426 9  23681399.787
  23367514.072    10527963.038 6   8224564.998 9  23367518.936
  21379712.182    -8226866.736 7  -6360005.160 9  21379715.744
 94  3 22 22 20  0.0020000  0  6  7  2 15 26 19 27
  21492545.846   -16485593.436 7 -12724130.276 9  21492549.467
  21747599.994   -15052261.282 8 -11624079.613 9  21747603.639
  24361722.971    -2224222.194 6  -1664126.904 9  24361728.842
  23675448.268    -6577793.722 6  -4996239.605 9  23675452.076
  23383916.314    10614158.009 6   8291729.820 9  23383921.283
  21389787.893    -8173918.099 7  -6318746.522 9  21389791.537
 94  3 22 22 20 30.0020000  0  6  7  2 15 26 19 27
  21485889.861   -16520570.803 7 -12751385.336 9  21485893.553
  21748854.361   -15045669.215 8 -11618942.948 9  21748858.006
  24360629.588    -2229966.312 6  -1668602.820 9  24360636.326
  23669593.877    -6608559.444 6  -5020212.869 9  23669597.791
  23400363.463    10700586.712 6   8359076.759 9  23400368.432
  21399945.830    -8120537.725 7  -6277151.459 9  21399949.334
 94  3 22 22 21  0.0020000  0  6  7  2 15 26 19 27
  21479321.916   -16555085.577 7 -12778279.938 9  21479325.584
  21750136.736   -15038930.564 8 -11613692.060 9  21750140.287
  24359634.627    -2235194.374 6  -1672676.602 9  24359640.885
  23663832.119    -6638838.074 6  -5043806.594 9  23663836.127
  23416857.432    10787265.503 6   8426618.581 9  23416862.482
  21410188.893    -8066710.527 7  -6235208.221 9  21410192.432
 94  3 22 22 21 30.0020000  0  6  7  2 15 26 19 27
  21472845.799   -16589117.519 7 -12804798.309 9  21472849.408
  21751447.939   -15032039.685 8 -11608322.551 9  21751451.619
  24358738.400    -2239904.364 6  -1676346.708 9  24358744.822
  23658162.346    -6668632.312 6  -5067022.870 9  23658166.049
  23433400.697    10874199.229 6   8494359.049 9  23433406.041
  21420515.143    -8012446.011 7  -6192924.220 9  21420518.705
 94  3 22 22 22  0.0020000  0  6  7  2 15 26 19 27
  21466461.385   -16622668.161 7 -12830941.639 9  21466464.959
  21752783.900   -15025019.430 8 -11602852.227 9  21752787.557
  24357939.564    -2244100.247 6  -1679616.205 9  24357946.623
  23652585.557    -6697939.497 6  -5089859.625 9  23652589.353
  23449992.752    10961390.969 6   8562300.558 9  23449997.896
  21430922.557    -7957754.220 7  -6150307.273 9  21430926.271
 94  3 22 22 22 30.0020000  0  6  7  2 15 26 19 27
  21460171.721   -16655720.316 8 -12856696.538 9  21460175.283
  21754143.518   -15017875.006 8 -11597285.145 9  21754147.104
  24357240.564    -2247775.576 6  -1682480.081 9  24357247.623
  23647102.838    -6726752.207 6  -5112311.072 9  23647106.787
  23466636.057    11048850.530 6   8630450.767 9  23466641.447
  21441415.713    -7902612.671 7  -6107339.871 9  21441419.311
 94  3 22 22 23  0.0020000  0  6  7  2 15 26 19 27
  21453980.353   -16688256.742 7 -12882049.575 9  21453983.869
  21755531.635   -15010581.013 8 -11591601.512 9  21755535.209
  24356640.752    -2250927.449 6  -1684936.061 9  24356646.752
  23641715.510    -6755063.220 6  -5134371.588 9  23641719.248
  23483330.275    11136578.337 6   8698809.994 9  23483335.467
  21451992.408    -7847032.984 7  -6064031.065 9  21451996.111
 94  3 22 22 23 30.0020000  0  6  7  2 15 26 19 27
  21447884.932   -16720287.740 8 -12907008.772 9  21447888.353
  21756947.182   -15003141.408 8 -11585804.421 9  21756950.686
  24356141.658    -2253549.251 6  -1686979.005 9  24356147.857
  23636427.588    -6782850.786 6  -5156024.229 9  23636431.279
  23500077.127    11224582.819 6   8767384.810 9  23500082.342
  21462651.760    -7791017.847 7  -6020382.952 9  21462655.393
 94  3 22 22 24  0.0020000  0  6  7  2 15 26 19 27
  21441880.682   -16751840.268 8 -12931595.129 9  21441884.092
  21758386.893   -14995576.188 8 -11579909.445 9  21758390.350
  24355740.611    -2255653.623 6  -1688618.749 9  24355746.506
  23631236.916    -6810128.834 6  -5177279.841 9  23631240.514
  23516875.393    11312858.539 6   8836170.984 9  23516880.783
  21473393.213    -7734571.725 7  -5976399.004 9  21473396.881
 94  3 22 22 24 30.0020000  0  6  7  2 15 26 19 27
  21435968.135   -16782910.521 7 -12955805.695 9  21435971.533
  21759852.760   -14987873.390 8 -11573907.269 9  21759856.193
  24355440.057    -2257238.038 6  -1689853.331 9  24355445.518
  23626140.322    -6836912.568 6  -5198150.275 9  23626143.838
  23533726.479    11401412.742 6   8905174.153 9  23533731.928
  21484217.385    -7677690.595 7  -5932076.087 9  21484220.936
 94  3 22 22 25  0.0020000  0  7  7  2 15 26 19 13 27
  21430144.979   -16813511.685 8 -12979650.736 9  21430148.377
  21761347.455   -14980018.499 8 -11567786.577 9  21761350.760
  24355237.721    -2258299.912 6  -1690680.752 9  24355243.850
  23621137.752    -6863199.464 6  -5218633.571 9  23621141.162
  23550635.346    11490267.268 6   8974411.333 9  23550640.678
  24970522.260      -83772.19813    -68116.30419  24970533.549
  21495122.861    -7620381.378 8  -5887419.599 9  21495126.447
 94  3 22 22 25 30.0020000  0  7  7  2 15 26 19 13 27
  21424404.572   -16843677.053 8 -13003156.193 9  21424407.959
  21762867.400   -14972030.604 8 -11561562.245 9  21762870.787
  24355131.533    -2258857.907 6  -1691115.533 9  24355138.166
  23616226.979    -6889005.057 6  -5238741.820 9  23616230.588
  23567597.174    11579402.282 6   9043867.089 9  23567602.436
  24949744.057     -192960.132 3   -153197.407 9  24949754.904
  21506109.049    -7562649.533 8  -5842433.786 9  21506112.541
 94  3 22 22 26  0.0020000  0  7  7  2 15 26 19 13 27
  21418751.299   -16873384.892 8 -13026305.134 9  21418754.732
  21764416.541   -14963891.393 8 -11555220.008 9  21764419.822
  24355121.978    -2258907.425 6  -1691154.116 9  24355128.873
  23611407.604    -6914331.391 6  -5258476.626 9  23611411.307
  23584611.807    11668813.678 6   9113538.196 9  23584617.232
  24928985.564     -302044.678 3   -238197.940 9  24928996.357
  21517179.541    -7504473.841 7  -5797102.120 9  21517182.998
 94  3 22 22 26 30.0020000  0  7  7  2 15 26 19 13 27
  21413185.924   -16902630.852 8 -13049094.171 9  21413189.428
  21765996.424   -14955587.453 8 -11548749.415 9  21765999.693
  24355209.721    -2258445.234 6  -1690793.958 9  24355216.096
  23606681.439    -6939167.255 6  -5277829.247 9  23606684.873
  23601678.213    11758499.477 6   9183423.127 9  23601683.908
  24908247.596     -411021.067 3   -323114.187 9  24908258.760
  21528335.252    -7445850.134 8  -5751421.352 9  21528338.791
 94  3 22 22 27  0.0020000  0  7  7  2 15 26 19 13 27
  21407709.174   -16931412.334 8 -13071521.277 9  21407712.654
  21767610.283   -14947107.817 8 -11542141.917 9  21767613.564
  24355395.924    -2257466.957 6  -1690031.669 9  24355402.498
  23602053.041    -6963488.903 6  -5296781.190 9  23602056.709
  23618797.111    11848458.421 6   9253520.891 9  23618802.959
  24887531.322     -519882.895 3   -407941.167 9  24887542.381
  21539576.330    -7386778.742 8  -5705391.739 9  21539579.834
 94  3 22 22 27 30.0020000  0  7  7  2 15 26 19 13 27
  21402324.775   -16959707.339 8 -13093569.311 9  21402328.232
  21769256.729   -14938455.283 8 -11535399.693 9  21769259.986
  24355682.588    -2255961.202 6  -1688858.350 9  24355689.373
  23597522.705    -6987297.801 6  -5315333.573 9  23597526.010
  23635965.096    11938676.471 6   9323820.558 9  23635970.732
  24866839.760     -628616.806 3   -492668.468 9  24866850.830
  21550905.150    -7327245.120 8  -5659001.938 9  21550908.666
 94  3 22 22 28  0.0020000  0  7  7  2 15 26 19 13 27
  21397031.861   -16987522.325 8 -13115243.302 9  21397035.400
  21770931.189   -14929656.070 8 -11528543.177 9  21770934.342
  24356068.478    -2253934.932 6  -1687279.432 9  24356075.182
  23593085.439    -7010614.561 6  -5333502.491 9  23593088.990
  23653178.885    12029134.837 6   9394307.490 9  23653184.533
  24846171.533     -737227.991 3   -577300.133 9  24846182.107
  21562320.268    -7267259.555 8  -5612259.982 9  21562323.666
 94  3 22 22 28 30.0020000  0  7  7  2 15 26 19 13 27
  21391830.338   -17014855.553 7 -13136541.898 9  21391833.889
  21772631.307   -14920721.583 8 -11521581.260 9  21772634.623
  24356554.705    -2251380.646 6  -1685289.081 9  24356561.068
  23588743.541    -7033430.792 6  -5351281.384 9  23588747.174
  23670438.377    12119833.633 6   9464981.761 9  23670444.014
  24825528.486     -845706.899 3   -661828.726 9  24825539.139
  21573817.260    -7206840.282 7  -5565180.071 9  21573820.811
 94  3 22 22 29  0.0020000  0  7  7  2 15 26 19 13 27
  21386721.393   -17041702.992 7 -13157461.957 9  21386724.814
  21774353.072   -14911673.958 8 -11514531.181 9  21774356.389
  24357140.244    -2248301.644 6  -1682889.855 9  24357146.982
  23584493.752    -7055764.069 6  -5368683.947 9  23584497.068
  23687741.307    12210760.469 6   9535833.741 9  23687746.779
  24804910.299     -954055.084 3   -746255.473 9  24804921.143
  21585393.971    -7146005.047 7  -5517776.030 9  21585397.498
 94  3 22 22 29 30.0020000  0  7  7  2 15 26 19 13 27
  21381705.416   -17068061.603 7 -13178001.113 9  21381708.896
  21776093.471   -14902528.489 8 -11507404.852 9  21776096.764
  24357825.924    -2244698.734 6  -1680082.382 9  24357832.369
  23580334.947    -7077619.757 6  -5385714.354 9  23580338.639
  23705087.791    12301917.166 6   9606864.819 9  23705093.076
  24784317.088    -1062271.355 3   -830579.434 9  24784327.510
  21597050.760    -7084748.512 7  -5470043.705 9  21597054.299
 94  3 22 22 30  0.0020000  0  7  7  2 15 26 19 13 27
  21376783.658   -17093926.184 7 -13198155.311 9  21376787.174
  21777854.057   -14893275.129 8 -11500194.455 9  21777857.326
  24358611.229    -2240568.001 6  -1676863.616 9  24358617.850
  23576272.174    -7098968.973 6  -5402350.118 9  23576276.053
  23722481.650    12393319.793 6   9678087.538 9  23722487.135
  24763749.955    -1170349.351 3   -914795.640 9  24763760.576
  21608788.463    -7023066.687 7  -5421979.980 9  21608792.037
 94  3 22 22 30 30.0020000  0  7  7  2 15 26 19 13 27
  21371956.486   -17119292.234 7 -13217921.044 9  21371959.979
  21779639.455   -14883893.830 8 -11492884.360 9  21779642.713
  24359499.682    -2235903.570 6  -1673228.990 9  24359505.916
  23572311.338    -7119783.862 6  -5418569.517 9  23572315.041
  23739924.627    12484984.523 6   9749514.489 9  23739930.311
  24743210.963    -1278281.636 3   -998898.323 9  24743221.381
  21620606.979    -6960960.914 7  -5373585.914 9  21620610.553
 94  3 22 22 31  0.0020000  0  7  7  2 15 26 19 13 27
  21367221.713   -17144174.598 7 -13237309.880 9  21367225.252
  21781450.557   -14874376.002 8 -11485467.876 9  21781453.709
  24360487.268    -2230711.411 6  -1669183.141 9  24360493.221
  23568451.252    -7140066.600 6  -5434374.262 9  23568454.709
  23757419.627    12576921.759 6   9821153.787 9  23757425.346
  24722698.611    -1386072.095 3  -1082890.510 9  24722709.057
  21632507.182    -6898424.102 7  -5324855.968 9  21632510.686
 94  3 22 22 31 30.0020000  0  7  7  2 15 26 19 13 27
  21362575.658   -17168589.668 7 -13256334.590 9  21362579.115
  21783291.697   -14864701.295 8 -11477929.151 9  21783294.861
  24361577.330    -2224983.305 6  -1664719.668 9  24361584.260
  23564698.057    -7159788.779 6  -5449742.203 9  23564701.971
  23774968.768    12669141.239 6   9893013.004 9  23774973.936
  24702215.314    -1493710.622 3  -1166764.300 9  24702225.846
  21644492.119    -6835442.934 7  -5275779.775 9  21644495.752
 94  3 22 22 32  0.0020000  0  7  7  2 15 26 19 13 27
  21358012.900   -17192567.785 7 -13275018.815 9  21358016.416
  21785162.041   -14854872.382 8 -11470270.268 9  21785165.311
  24362768.236    -2218726.279 6  -1659844.066 9  24362774.846
  23561048.853    -7178967.281 6  -5464686.496 9  23561052.873
  23792566.697    12761617.747 6   9965072.505 9  23792572.182
  24681760.307    -1601201.988 3  -1250523.431 9  24681770.486
  21656555.947    -6772047.215 7  -5226380.554 9  21656559.557
 94  3 22 22 32 30.0020000  0  7  7  2 15 26 19 13 27
  21353535.752   -17216095.344 7 -13293351.962 9  21353539.115
  21787063.955   -14844877.478 8 -11462482.032 9  21787067.096
  24364061.174    -2211930.166 6  -1654548.373 9  24364067.760
  23557499.939    -7197618.412 6  -5479219.853 9  23557503.818
  23810213.947    12854357.459 6  10037337.098 9  23810219.572
  24661335.502    -1708533.820 3  -1334158.283 9  24661345.834
  21668697.978    -6708239.656 7  -5176660.425 9  21668701.635
 94  3 22 22 33  0.0020000  0  7  7  2 15 26 19 13 27
  21349144.853   -17239168.546 7 -13311331.057 9  21349148.135
  21788996.260   -14834723.931 8 -11454570.173 9  21788999.541
  24365456.588    -2204598.192 6  -1648835.156 9  24365463.658
  23554044.728    -7215774.757 6  -5493367.657 9  23554048.455
  23827908.213    12947339.980 6  10109790.890 9  23827913.932
  24640940.854    -1815707.172 3  -1417669.641 9  24640950.916
  21680918.822    -6644020.466 7  -5126619.541 9  21680922.443
 94  3 22 22 33 30.0020000  0  7  7  2 15 26 19 13 27
  21344842.799   -17261776.648 7 -13328947.741 9  21344846.221
  21790958.424   -14824412.474 8 -11446535.269 9  21790961.764
  24366954.424    -2196726.629 6  -1642701.454 9  24366961.307
  23550684.033    -7233434.468 6  -5507128.475 9  23550687.818
  23845644.877    13040546.172 6  10182418.975 9  23845650.537
  24620577.518    -1922716.291 3  -1501053.029 9  24620587.479
  21693217.494    -6579390.195 7  -5076258.328 9  21693221.127
 94  3 22 22 34  0.0020000  0  7  7  2 15 26 19 13 27
  21340634.689   -17283889.962 7 -13346178.873 9  21340638.053
  21792950.213   -14813944.864 8 -11438378.687 9  21792953.541
  24368556.135    -2188310.009 6  -1636143.039 9  24368562.994
  23547416.783    -7250605.095 6  -5520508.186 9  23547420.475
  23863425.580    13133984.406 6  10255227.858 9  23863431.170
  24600246.627    -2029553.461 3  -1584302.426 9  24600256.670
  21705597.564    -6514332.257 7  -5025563.878 9  21705601.314
 94  3 22 22 34 30.0020000  0  7  7  2 15 26 19 13 27
  21336523.119   -17305496.790 7 -13363015.343 9  21336526.588
  21794970.650   -14803326.162 8 -11430104.377 9  21794974.037
  24370260.471    -2179355.035 6  -1629165.131 9  24370267.256
  23544243.783    -7267279.431 6  -5533501.180 9  23544247.779
  23881252.439    13227663.298 6  10328224.271 9  23881258.299
  24579948.025    -2136223.343 3  -1667421.500 9  24579957.545
  21718061.596    -6448834.260 7  -4974526.525 9  21718065.193
 94  3 22 22 35  0.0020000  0  7  7  2 15 26 19 13 27
  21332506.283   -17326605.146 7 -13379463.393 9  21332509.600
  21797018.854   -14792563.159 8 -11421717.622 9  21797022.229
  24372067.088    -2169859.847 6  -1621766.273 9  24372072.256
  23541170.557    -7283427.770 6  -5546084.307 9  23541174.693
  23899122.924    13321573.797 6  10401401.156 9  23899128.678
  24559682.002    -2242721.660 3  -1750406.877 9  24559691.494
  21730609.697    -6382893.018 7  -4923143.781 9  21730613.353
 94  3 22 22 35 30.0020000  0  7  7  2 15 26 19 13 27
  21328583.744   -17347218.795 7 -13395525.956 9  21328587.131
  21799094.650   -14781655.174 8 -11413217.898 9  21799098.049
  24373976.924    -2159823.393 6  -1613945.654 9  24373983.924
  23538202.041    -7299028.740 6  -5558240.924 9  23538205.943
  23917040.814    13415732.313 6  10474771.306 9  23917047.932
  24539448.971    -2349045.156 3  -1833256.040 9  24539458.350
  21743244.557    -6316497.423 7  -4871407.000 9  21743248.342
 94  3 22 22 36  0.0020000  0  7  7  2 15 26 19 13 27
  21324755.900   -17367334.462 7 -13411200.480 9  21324759.264
  21801197.783   -14770601.680 8 -11404604.793 9  21801201.357
  24375990.580    -2149241.601 6  -1605700.113 9  24375996.990
  23535335.791    -7314091.073 6  -5569977.807 9  23535339.670
  23935008.447    13510152.064 6  10548345.017 9  23935015.232
  24519250.330    -2455187.482 3  -1915964.046 9  24519259.615
  21755965.713    -6249646.769 7  -4819315.629 9  21755969.568
 94  3 22 22 36 30.0020000  0  7  7  2 15 26 19 13 27
  21321023.955   -17386946.595 8 -13426482.646 9  21321027.271
  21803331.119   -14759393.269 8 -11395870.973 9  21803334.529
  24378108.768    -2138109.247 6
  23532571.377    -7328618.266 6  -5581297.704 9  23532575.244
  23953025.314    13604830.854 6  10622120.568 9  23953032.135
  24499087.564    -2561141.245 3  -1998525.117 9  24499097.225
  21768771.150    -6182354.020 7  -4766879.764 9  21768774.912
 94  3 22 22 37  0.0020000  0  7  7  2 15 26 19 13 27
  21317390.268   -17406040.649 7 -13441361.108 9  21317393.643
  21805495.580   -14748018.828 8 -11387007.784 9  21805498.896
  24380334.119    -2126414.961 6        -1.09019  24380340.717
  23529907.822    -7342616.362 6  -5592205.323 9  23529911.631
  23971093.830    13699779.710 6  10696106.562 9  23971101.064
  24478963.697    -2666892.903 3  -2080928.684 9  24478972.896
  21781663.596    -6114602.271 7  -4714086.239 9  21781667.357
 94  3 22 22 37 30.0020000  0  7  7  2 15 26 19 13 27
  21313850.924   -17424638.523 8 -13455852.941 9  21313854.287
  21807689.268   -14736490.489 8 -11378024.677 9  21807692.643
  24382662.963    -2114177.245 6      9534.782 9  24382669.455
  23527336.150    -7356131.605 6  -5602736.688 9  23527339.982
  23989212.689    13794996.962 6  10770301.691 9  23989219.795
  24458875.135    -2772458.579 3  -2163187.352 9  24458884.088
  21794641.619    -6046404.024 7  -4660944.794 9  21794645.428
 94  3 22 22 38  0.0020000  0  7  7  2 15 26 19 13 27
  21310405.471   -17442746.109 8 -13469962.734 9  21310408.764
  21809910.393   -14724818.023 8 -11368929.257 9  21809913.932
  24385095.549    -2101395.495 6     19494.581 9  24385101.748
  23524855.158    -7369166.627 6  -5612893.860 9  23524859.318
  24007380.658    13890469.457 6  10844695.712 9  24007387.693
  24438822.580    -2877835.274 4  -2245298.778 9  24438831.174
  21807699.447    -5977784.792 7  -4607475.315 9  21807703.221
 94  3 22 22 38 30.0020000  0  7  7  2 15 26 19 13 27
  21307052.705   -17460365.174 8 -13483691.858 9  21307056.139
  21812161.057   -14712990.937 8 -11359713.355 9  21812164.467
  24387632.658    -2088062.551 6     29883.897 9  24387637.838
  23522471.119    -7381698.101 6  -5622658.652 9  23522474.986
  24025597.322    13986196.586 6  10919288.136 9  24025604.240
  24418807.588    -2983013.393 4  -2327255.487 9  24418816.080
  21820838.947    -5908736.620 7  -4553671.591 9  21820842.826
 94  3 22 22 39  0.0020000  0  7  7  2 15 26 19 13 27
  21303787.682   -17477522.757 8 -13497061.387 9  21303790.928
  21814439.932   -14701015.001 8 -11350381.471 9  21814443.447
  24390274.541    -2074179.364 6     40701.968 9  24390281.045
  23520184.455    -7393712.256 6  -5632020.334 9  23520188.229
  24043863.143    14082184.138 6  10994083.495 9  24043870.389
  24398830.643    -3087991.462 4  -2409056.317 9  24398839.182
  21834060.018    -5839259.003 7  -4499533.237 9  21834063.873
 94  3 22 22 39 30.0020000  0  7  7  2 15 26 19 13 27
  21300608.971   -17494226.948 8 -13510077.627 9  21300612.322
  21816744.674   -14688904.713 8 -11340944.900 9  21816748.154
  24393020.979    -2059744.757 6     51949.721 9  24393027.885
  23518000.244    -7405191.917 6  -5640965.540 9  23518004.041
  24062174.611    14178410.392 6  11069064.853 9  24062182.080
  24378892.588    -3192765.853 4  -2490698.453 9  24378901.029
  21847360.057    -5769367.697 7  -4445072.528 9  21847363.760
 94  3 22 22 40  0.0020000  0  7  7  2 15 26 19 13 27
  21297515.455   -17510482.610 8 -13522744.359 9  21297518.807
  21819072.963   -14676668.957 8 -11331410.561 9  21819076.479
  24395871.814    -2044765.536 6     63621.842 9  24395878.201
  23515918.150    -7416133.138 6  -5649491.174 9  23515922.252
  24080527.557    14274855.722 6  11144216.921 9  24080534.639
  24358992.439    -3297340.701 4  -2572185.122 9  24359000.670
  21860736.979    -5699071.690 7  -4390296.471 9  21860740.729
 94  3 22 22 40 30.0020000  0  7  7  2 15 26 19 13 27
  21294511.643   -17526268.411 8 -13535044.967 9  21294515.018
  21821426.643   -14664300.453 8 -11321772.783 9  21821430.229
  24398827.049    -2029236.774 6     75722.191 9  24398833.330
  23513938.885    -7426531.754 6  -5657594.001 9  23513942.740
  24098926.674    14371541.334 6  11219556.212 9  24098933.850
  24339131.627    -3401708.932 4  -2653510.786 9  24339139.998
  21874195.510    -5628347.215 7  -4335186.541 9  21874199.295
 94  3 22 22 41  0.0020000  0  7  7  2 15 26 19 13 27
  21291600.744   -17541564.353 8 -13546963.870 9  21291604.037
  21823804.143   -14651807.135 8 -11312037.746 9  21823807.775
  24401886.525    -2013156.700 6     88252.145 9  24401893.088
  23512063.924    -7436386.091 6  -5665272.712 9  23512067.885
  24117371.275    14468470.114 6  11295084.995 9  24117378.521
  24319311.158    -3505866.283 4  -2734672.139 9  24319319.166
  21887734.471    -5557198.580 7  -4279746.102 9  21887738.256
 94  3 22 22 41 30.0020000  0  7  7  2 15 26 19 13 27
  21288787.893   -17556347.622 8 -13558483.289 9  21288791.232
  21826204.799   -14639190.547 8 -11302206.651 9  21826208.350
  24405051.385    -1996526.549 5    101210.693 9  24405057.912
  23510291.791    -7445698.943 6  -5672529.482 9  23510295.717
  24135861.275    14565633.991 6  11370796.960 9  24135868.498
  24299531.010    -3609811.323 4  -2815668.071 9  24299538.803
  21901354.174    -5485628.149 7  -4223976.982 9  21901357.982
 94  3 22 22 42  0.0020000  0  7  7  2 15 26 19 13 27
  21286074.494   -17570605.984 8 -13569593.684 9  21286077.717
  21828631.986   -14626436.617 8 -11292268.542 9  21828635.373
  24408321.197    -1979342.428 6    114600.930 9  24408327.783
  23508622.025    -7454473.413 6  -5679366.733 9  23508625.881
  24154400.643    14663057.940 6  11446711.586 9  24154407.760
  24279792.166    -3713537.596 5  -2896493.540 9  24279800.271
  21915054.213    -5413633.793 7  -4167877.529 9  21915057.904
 94  3 22 22 42 30.0020000  0  7  7  2 15 26 19 13 27
  21283462.041   -17584334.458 8 -13580291.180 9  21283465.322
  21831085.416   -14613543.308 8 -11282221.821 9  21831088.885
  24411696.752    -1961605.059 6    128422.248 9  24411703.717
  23507054.064    -7462713.392 6  -5685787.504 9  23507058.049
  24172986.596    14760727.022 6  11522817.213 9  24172993.713
  24260095.643    -3817043.546 5  -2977147.336 9  24260103.525
  21928833.689    -5341222.277 7  -4111453.023 9  21928837.533
 94  3 22 22 43  0.0020000  0  7  7  2 15 26 19 13 27
  21280948.338   -17597544.655 8 -13590584.818 9  21280951.584
  21833568.080   -14600497.607 8 -11272056.358 9  21833571.572
  24415177.424    -1943313.451 6    142675.451 9  24415183.939
  23505587.377    -7470420.491 6  -5691793.040 9  23505591.432
  24191615.893    14858625.806 6  11599101.837 9  24191622.869
  24240441.658    -3920325.660 5  -3057626.717 9  24240449.635
  21942691.205    -5268400.625 7  -4054708.937 9  21942695.131
 94  3 22 22 43 30.0020000  0  7  7  2 15 26 19 13 27
  21278530.260   -17610251.743 8 -13600486.436 9  21278533.482
  21836081.807   -14587288.195 8 -11261763.319 9  21836085.357
  24418763.752    -1924466.246 5    157361.588 9  24418770.846
  23504220.729    -7477602.949 6  -5697389.763 9  23504224.701
  24210289.369    14956755.720 6  11675566.564 9  24210296.311
  24220830.846    -4023379.610 5  -3137928.314 9  24220838.834
  21956629.893    -5195152.109 7  -3997632.221 9  21956633.807
 94  3 22 22 44  0.0020000  0  7  7  2 15 26 19 13 27
  21276205.096   -17622470.275 8 -13610007.354 9  21276208.283
  21838630.314   -14573895.371 8 -11251327.361 9  21838633.783
  24422457.057    -1905060.713 5    172482.788 9  24422463.928
  23502953.549    -7484260.289 6  -5702577.305 9  23502957.650
  24229006.971    15055114.161 6  11752209.354 9  24229013.912
  24201264.549    -4126200.226 5  -3218048.077 9  24201272.447
  21970651.439    -5121468.991 7  -3940216.860 9  21970655.295
 94  3 22 22 44 30.0020000  0  7  7  2 15 26 19 13 27
  21273970.096   -17634215.859 8 -13619159.741 9  21273973.307
  21841215.572   -14560310.317 8 -11240741.612 9  21841219.111
  24426255.908    -1885096.366 5    188039.428 9  24426262.705
  23501788.189    -7490383.537 6  -5707348.675 9  23501792.338
  24247765.525    15153693.732 6  11829024.457 9  24247772.607
  24181743.307    -4228784.390 5  -3297983.602 9  24181751.006
  21984758.088    -5047339.124 7  -3882453.379 9  21984761.967
 94  3 22 22 45  0.0020000  0  7  7  2 15 26 19 13 27
  21271822.822   -17645499.082 8 -13627951.845 9  21271826.010
  21843834.158   -14546549.857 8 -11230019.185 9  21843837.580
  24430160.010    -1864577.699 5    204028.004 9  24430167.150
  23500725.494    -7495969.207 6  -5711701.139 9  23500729.959
  24266568.650    15252502.336 6  11906018.028 9  24266576.166
  24162266.611    -4331133.886 5  -3377736.265 9  24162274.713
  21998949.104    -4972763.834 7  -3824342.817 9  21998952.936
 94  3 22 22 45 30.0020000  0  7  7  2 15 26 19 13 27
  21269764.299   -17656316.662 8 -13636381.113 9  21269767.451
  21846485.822   -14532614.262 8 -11219160.289 9  21846489.279
  24434171.807    -1843496.376 5    220455.010 9  24434179.252
  23499764.947    -7501015.645 6  -5715633.429 9  23499769.002
  24285415.768    15351544.055 6  11983193.232 9  24285423.682
  24142836.799    -4433237.583 5  -3457297.385 9  24142844.779
  22013227.135    -4897732.549 7  -3765876.934 9  22013231.154
 94  3 22 22 46  0.0020000  0  7  7  2 15 26 19 13 27
  21267795.486   -17666662.887 8 -13644443.088 9  21267798.697
  21849168.728   -14518516.053 8 -11208174.673 9  21849172.092
  24438290.728    -1821851.726 5    237320.969 9  24438297.670
  23498906.400    -7505528.504 6  -5719149.940 9  23498910.525
  24304306.158    15450812.990 6  12060545.494 9  24304313.463
  24123454.330    -4535092.434 5  -3536664.607 9  24123462.314
  22027586.986    -4822270.036 7  -3707075.024 9  22027591.041
 94  3 22 22 46 30.0020000  0  7  7  2 15 26 19 13 27
  21265917.854   -17676529.173 8 -13652131.087 9  21265921.064
  21851876.299   -14504287.182 8 -11197087.244 9  21851879.686
  24442515.439    -1799651.010 5    254620.248 9  24442521.756
  23498145.979    -7509524.109 6  -5722263.396 9  23498150.104
  24323238.299    15550303.130 6  12138070.119 9  24323245.803
  24104118.283    -4636703.019 5  -3615841.481 9  24104126.162
  22042024.260    -4746402.974 7  -3647957.886 9  22042028.314
 94  3 22 22 47  0.0020000  0  7  7  2 15 26 19 13 27
  21264137.369   -17685885.673 8 -13659421.849 9  21264140.568
  21854610.924   -14489916.683 8 -11185889.447 9  21854614.393
  24446848.611    -1776879.533 5    272364.283 9  24446855.717
  23497483.080    -7513007.727 6  -5724977.910 9  23497487.217
  24342215.924    15650029.934 6  12215779.152 9  24342223.193
  24084832.057    -4738051.767 5  -3694814.337 9  24084839.939
  22056537.807    -4670134.135 7  -3588527.677 9  22056541.814
 94  3 22 22 47 30.0020000  0  7  7  2 15 26 19 13 27
  21262451.314   -17694746.805 8 -13666326.608 9  21262454.490
  21857372.299   -14475406.206 8 -11174582.587 9  21857375.732
  24451287.666    -1753550.804 5    290542.543 9  24451294.182
  23496915.049    -7515993.425 6  -5727304.430 9  23496918.717
  24361236.182    15749980.509 6  12293662.547 9  24361243.838
  24065593.596    -4839149.430 5  -3773591.539 9  24065601.471
  22071122.307    -4593492.314 7  -3528806.833 9  22071126.232
 94  3 22 22 48  0.0020000  0  7  7  2 15 26 19 13 27
  21260861.158   -17703102.013 8 -13672837.143 9  21260864.240
  21860159.838   -14460756.997 8 -11163167.624 9  21860163.353
  24455833.986    -1729661.214 5    309157.839 9  24455840.396
  23496445.127    -7518462.817 6  -5729228.629 9  23496449.053
  24380299.994    15850161.184 6  12371725.243 9  24380307.557
  24046404.072    -4939989.620 5  -3852168.116 9  24046411.912
  22085776.455    -4516485.032 7  -3468801.210 9  22085780.592
 94  3 22 22 48 30.0020000  0  7  7  2 15 26 19 13 27
  21259368.627   -17710945.264 8 -13678948.751 9  21259371.932
  21862979.244   -14445941.191 8 -11151622.844 9  21862982.771
  24460489.158    -1705197.548 5    328220.474 9  24460496.111
  23496079.619    -7520383.336 6  -5730725.136 9  23496083.885
  24399410.705    15950588.594 6  12449980.206 9  24399418.092
  24027266.854    -5040556.306 5  -3930531.586 9  24027274.611
  22100507.174    -4439074.061 7  -3408481.026 9  22100511.240
 94  3 22 22 49  0.0020000  0  7  7  2 15 26 19 13 27
  21257969.916   -17718295.826 8 -13684676.444 9  21257973.127
  21865831.760   -14430951.495 8 -11139942.562 9  21865835.275
  24465252.877    -1680163.577 5    347727.505 9  24465259.971
  23495821.033    -7521742.409 6  -5731784.157 9  23495825.111
  24418566.869    16051253.420 6  12528420.155 9  24418574.525
  24008181.330    -5140850.605 5  -4008682.800 9  24008189.256
  22115318.635    -4361239.335 7  -3347830.642 9  22115322.725
 94  3 22 22 49 30.0020000  0  7  7  2 15 26 19 13 27
  21256664.377   -17725156.582 8 -13690022.472 9  21256667.717
  21868715.158   -14415798.395 8 -11128134.954 9  21868718.650
  24470125.752    -1654557.237 5    367680.527 9  24470132.596
  23495672.502    -7522520.900 6  -5732390.774 9  23495676.615
  24437766.799    16152149.257 5  12607040.127 9  24437774.268
  23989148.830    -5240867.378 5  -4086617.776 9  23989156.580
  22130214.775    -4282960.925 7  -3286834.528 9  22130218.830
 94  3 22 22 50  0.0020000  0  7  7  2 15 26 19 13 27
  21255450.244   -17731534.700 8 -13694992.422 9  21255453.502
  21871628.783   -14400487.771 8 -11116204.606 9  21871632.322
  24475106.072    -1628384.528 5    388074.877 9  24475113.400
  23495632.275    -7522732.739 6  -5732555.849 9  23495636.588
  24457009.174    16253270.306 5  12685835.584 9  24457016.760
  23970168.213    -5340609.781 5  -4164338.956 9  23970175.936
  22145197.385    -4204225.875 7  -3225482.596 9  22145201.451
 94  3 22 22 50 30.0020000  0  7  7  2 15 26 19 13 27
  21254328.416   -17737431.311 8 -13699587.169 9  21254331.674
  21874572.533   -14385017.306 8 -11104149.703 9  21874576.107
  24480193.689    -1601648.774 5    408907.949 9  24480200.830
  23495698.049    -7522387.125 6  -5732286.549 9  23495702.455
  24476296.002    16354621.010 5  12764809.995 9  24476303.846
  23951239.775    -5440078.222 5  -4241846.669 9  23951247.490
  22160267.916    -4125030.999 7  -3163772.358 9  22160271.889
 94  3 22 22 51  0.0020000  0  7  7  2 15 26 19 13 27
  21253301.166   -17742830.828 8 -13703794.574 9  21253304.400
  21877544.025   -14369403.738 8 -11091983.293 9  21877547.576
  24485388.455    -1574348.632 5    430180.838 9  24485394.807
  23495866.830    -7521499.240 6  -5731594.693 9  23495871.295
  24495627.799    16456207.534 5  12843968.162 9  24495635.748
  23932364.447    -5539268.402 5  -4319137.567 9  23932371.857
  22175423.518    -4045387.883 7  -3101712.839 9  22175427.455
 94  3 22 22 51 30.0020000  0  7  7  2 15 26 19 13 27
  21252370.713   -17747719.793 8 -13707604.149 9  21252373.936
  21880542.752   -14353644.510 8 -11079703.380 9  21880546.279
  24490691.705    -1546482.554 5    451894.686 9  24490698.221
  23496138.064    -7520076.767 6  -5730486.287 9  23496142.271
  24515005.143    16558037.574 5  12923316.066 9  24515012.916
  23913542.994    -5638175.941 5  -4396208.213 9  23913550.279
  22190662.580    -3965306.979 7  -3039312.193 9  22190666.588
 94  3 22 22 52  0.0020000  0  7  7  2 15 26 19 13 27
  21251537.213   -17752099.728 8 -13711017.077 9  21251540.400
  21883569.861   -14337736.693 8 -11067307.690 9  21883573.482
  24496100.564    -1518056.092 5    474045.204 9  24496106.014
  23496508.330    -7518131.747 6  -5728970.702 9  23496512.232
  24534428.479    16660105.313 5  13002849.191 9  24534437.002
  23894774.822    -5736803.467 5  -4473060.678 9  23894782.229
  22205980.400    -3884810.275 7  -2976587.543 9  22205984.443
 94  3 22 22 52 30.0020000  0  7  7  2 15 26 19 13 27
  21250802.783   -17755959.173 8 -13714024.429 9  21250805.912
  21886624.455   -14321685.505 8 -11054800.282 9  21886627.854
  24501617.479    -1489068.316 5    496633.108 9  24501623.689
  23496978.572    -7515661.568 6  -5727045.903 9  23496982.521
  24553894.174    16762396.762 6  13082556.639 9  24553902.264
  23876060.244    -5835146.869 5  -4549691.745 9  23876067.752
  22221377.205    -3803900.008 7  -2913540.641 9  22221381.271
 94  3 22 22 53  0.0020000  0  7  7  2 15 26 19 13 27
  21250168.127   -17759294.584 8 -13716623.442 9  21250171.256
  21889709.229   -14305473.831 8 -11042167.814 9  21889712.650
  24507241.643    -1459508.370 5    519666.831 9  24507247.256
  23497548.783    -7512663.318 6  -5724709.622 9  23497552.252
  24573401.064    16864906.519 6  13162434.197 9  24573408.885
  23857402.924    -5933192.588 5  -4626090.850 9  23857410.283
  22236853.955    -3722570.205 7  -2850166.828 9  22236858.092
 94  3 22 22 53 30.0020000  0  7  7  2 15 26 19 13 27
  21249625.557   -17762144.664 8 -13718844.280 9  21249628.721
  21892825.564   -14289098.168 8 -11029407.568 9  21892829.010
  24512972.611    -1429392.719 5    543133.564 9  24512977.885
  23498217.807    -7509148.159 6  -5721970.561 9  23498221.123
  24592943.541    16967602.941 6  13242457.209 9  24592951.854
  23838799.400    -6030954.055 5  -4702268.467 9  23838806.510
  22252406.463    -3640841.801 7  -2786482.422 9  22252410.471
 94  3 22 22 54  0.0020000  0  7  7  2 15 26 19 13 27
  21249172.424   -17764525.965 8 -13720699.836 9  21249175.635
  21895970.932   -14272568.881 8 -11016527.619 9  21895974.354
  24518809.916    -1398718.387 5    567035.640 9  24518816.010
  23498985.377    -7505113.481 6  -5718826.678 9  23498989.162
  24612521.939    17070487.066 6  13322626.473 9  24612530.146
  23820251.299    -6128425.381 5  -4778220.012 9  23820258.189
  22268035.416    -3558710.134 7  -2722483.786 9  22268039.365
 94  3 22 22 54 30.0020000  0  7  7  2 15 26 19 13 27
  21248805.236   -17766455.571 8 -13722203.425 9  21248808.412
  21899146.768   -14255879.998 8 -11003523.302 9  21899150.189
  24524754.619    -1367480.729 5    591376.674 9  24524761.064
  23499853.057    -7500554.463 6  -5715274.219 9  23499856.713
  24632136.697    17173562.567 6  13402944.872 9  24632144.881
  23801759.354    -6225599.136 5  -4853939.682 9  23801766.568
  22283742.307    -3476171.335 7  -2658167.901 9  22283746.408
 94  3 22 22 55  0.0020000  0  7  7  2 15 26 19 13 27
  21248521.549   -17767947.309 8 -13723365.816 9  21248524.689
  21902354.510   -14239023.179 8 -10990388.126 9  21902357.979
  24530805.854    -1335679.465 6    616156.870 9  24530811.994
  23500821.744    -7495464.099 6  -5711307.728 9  23500826.057
  24651788.330    17276831.899 6  13483414.291 9  24651796.689
  23783325.143    -6322472.015 5  -4929424.897 9  23783332.264
  22299524.596    -3393235.107 7  -2593542.337 9  22299528.627
 94  3 22 22 55 30.0030000  0  7  7  2 15 26 19 13 27
  21248320.554   -17769002.798 8 -13724188.271 9  21248323.741
  21905591.858   -14222010.546 8 -10977131.540 9  21905595.456
  24536963.608    -1303319.284 6    641372.617 9  24536969.491
  23501891.944    -7489839.465 6  -5706924.915 9  23501895.882
  24671478.030    17380301.632 5  13564039.885 9  24671486.319
  23764946.890    -6419049.585 5  -5004680.019 9  23764953.913
  22315382.343    -3309902.307 7  -2528607.755 9  22315386.374
 94  3 22 22 56  0.0030000  0  7  7  2 15 26 19 13 27
  21248206.147   -17769603.864 8 -13724656.633 9  21248209.241
  21908856.788   -14204853.010 8 -10963762.044 9  21908860.269
  24543226.632    -1270408.015 6    667017.772 9  24543231.507
  23503063.108    -7483686.009 6  -5702130.038 9  23503067.292
  24691205.022    17483969.419 5  13644819.783 9  24691213.370
  23746625.530    -6515327.932 5  -5079701.975 9  23746632.612
  22331314.062    -3226179.403 7  -2463369.202 9  22331318.128
 94  3 22 22 56 30.0030000  0  7  7  2 15 26 19 13 27
  21248184.694   -17769717.056 8 -13724744.834 9  21248187.858
  21912153.679   -14187528.964 8 -10950262.797 9  21912157.206
  24549595.687    -1236941.388 6    693095.680 9  24549600.679
  23504334.991    -7477001.088 6  -5696921.038 9  23504338.940
  24710970.999    17587836.337 5  13725754.846 9  24710979.534
  23728361.718    -6611304.249 5  -5154488.587 9  23728368.831
  22347321.421    -3142060.883 7  -2397822.374 9  22347325.628
 94  3 22 22 57  0.0030000  0  7  7  2 15 26 19 13 27
  21248262.491   -17769307.875 8 -13724425.987 9  21248265.620
  21915483.913   -14170027.861 8 -10936625.574 9  21915487.347
  24556070.265    -1202914.880 6    719609.866 9  24556075.890
  23505710.038    -7469777.057 6  -5691291.940 9  23505714.315
  24730777.194    17691917.496 5  13806856.867 9  24730785.718
  23710156.788    -6706970.946 5  -5229033.936 9  23710164.120
  22363406.187    -3057534.292 7  -2331957.568 9  22363410.347
 94  3 22 22 57 30.0030000  0  7  7  2 15 26 19 13 27
  21248440.257   -17768374.032 8 -13723698.311 9  21248443.503
  21918846.655   -14152355.955 8 -10922855.263 9  21918850.206
  24562652.569    -1168325.633 6    746562.557 9  24562658.733
  23507186.421    -7462020.049 6  -5685247.541 9  23507190.534
  24750627.632    17796234.073 5  13888142.313 9  24750636.378
  23692012.218    -6802321.794 5  -5303333.172 9  23692019.186
  22379569.093    -2972599.291 7  -2265774.524 9  22379573.241
 94  3 22 22 58  0.0030000  0  7  7  2 15 26 19 13 27
  21248716.640   -17766921.638 8 -13722566.569 9  21248719.780
  21922241.640   -14134516.221 8 -10908954.172 9  21922245.097
  24569341.054    -1133174.591 6    773953.007 9  24569346.784
  23508761.991    -7453738.569 6  -5678794.468 9  23508766.140
  24770521.999    17900777.861 5  13969604.813 9  24770531.038
  23673927.694    -6897354.669 5  -5377384.639 9  23673934.972
  22395808.718    -2887259.097 7  -2199275.744 9  22395812.925
 94  3 22 22 58 30.0030000  0  7  7  2 15 26 19 13 27
  21249088.812   -17764965.380 8 -13721042.202 9  21249091.999
  21925668.632   -14116506.105 8 -10894920.321 9  21925672.183
  24576137.437    -1097462.540 6    801780.616 9  24576142.722
  23510439.116    -7444925.311 6  -5671927.021 9  23510443.417
  24790457.483    18005538.689 5  14051236.434 9  24790466.382
  23655904.530    -6992067.332 5  -5451186.593 9  23655911.765
  22412123.444    -2801523.985 7  -2132469.235 9  22412127.839
 94  3 22 22 59  0.0030000  0  7  7  2 15 26 19 13 27
  21249551.030   -17762537.182 8 -13719150.090 9  21249554.089
  21929125.515   -14098341.183 8 -10880765.842 9  21929129.030
  24583038.710    -1061194.938 6    830041.124 9  24583043.843
  23512215.983    -7435586.905 6  -5664650.367 9  23512220.155
  24810433.937    18110513.805 5  14133035.035 9  24810443.257
  23637941.530    -7086462.277 5  -5524740.974 9  23637948.804
  22428512.718    -2715398.233 7  -2065358.333 9  22428517.101
 94  3 22 22 59 30.0030000  0  7  7  2 15 26 19 13 27
  21250099.413   -17759654.409 8 -13716903.765 9  21250102.530
  21932609.882   -14080029.467 8 -10866496.979 9  21932613.386
  24590045.687    -1024371.848 6    858734.496 9  24590051.710
  23514093.249    -7425721.490 6  -5656963.056 9  23514097.327
  24830448.015    18215687.245 5  14214988.179 9  24830456.608
  23620040.054    -7180536.073 5  -5598045.107 9  23620046.972
  22444977.686    -2628875.436 7  -1997938.051 9  22444982.081
 94  3 22 23  0  0.0030000  0  7  7  2 15 26 19 13 27
  21250738.663   -17756296.029 8 -13714286.830 9  21250741.745
  21936125.515   -14061555.256 8 -10852101.487 9  21936129.007
  24597159.843     -986985.890 6    887866.442 9  24597164.964
  23516073.155    -7415316.925 6  -5648855.632 9  23516076.858
  24850497.655    18321049.557 5  14297088.485 9  24850506.601
  23602201.304    -7274277.989 5  -5671090.626 9  23602208.347
  22461521.827    -2541935.738 7  -1930192.909 9  22461526.128
 94  3 22 23  0 30.0030000  0  7  7  2 15 26 19 13 27
  21251466.757   -17752469.132 8 -13711304.820 9  21251469.827
  21939670.546   -14042926.105 8 -10837585.265 9  21939674.062
  24604379.507     -949046.260 5    917429.833 9  24604384.909
  23518155.858    -7404373.074 6  -5640327.977 9  23518160.194
  24870582.413    18426594.193 5  14379330.856 9  24870591.276
  23584424.983    -7367693.842 5  -5743882.079 9  23584431.753
  22478143.632    -2454587.277 7  -1862129.249 9  22478148.062
 94  3 22 23  1  0.0030000  0  7  7  2 15 26 19 13 27
  21252284.351   -17748173.486 8 -13707957.551 9  21252287.386
  21943243.929   -14024148.440 8 -10822953.324 9  21943247.526
  24611706.116     -910542.329 5    947432.938 9  24611712.187
  23520338.569    -7392902.343 6  -5631389.768 9  23520342.659
  24890704.093    18532333.611 5  14461725.002 9  24890712.675
  23566712.827    -7460770.267 5  -5816409.027 9  23566719.702
  22494844.733    -2366823.953 7  -1793742.322 9  22494849.116
 94  3 22 23  1 30.0030000  0  7  7  2 15 26 19 13 27
  21253189.952   -17743413.484 8 -13704248.445 9  21253193.093
  21946845.116   -14005223.745 8 -10808206.812 9  21946848.667
  24619139.530     -871479.598 5    977871.458 9  24619145.987
  23522619.780    -7380914.372 6  -5622048.519 9  23522623.647
  24910859.468    18638249.663 5  14544256.781 9  24910868.589
  23549065.272    -7553509.406 5  -5888673.161 9  23549072.022
  22511618.522    -2278675.899 7  -1725055.599 9  22511622.940
 94  3 22 23  2  0.0030000  0  7  7  2 15 26 19 13 27
  21254185.116   -17738184.659 8 -13700174.020 9  21254188.233
  21950475.702   -13986145.191 8 -10793340.408 9  21950479.218
  24626679.843     -831856.559 5   1008746.573 9  24626685.983
  23524998.366    -7368416.603 6  -5612310.019 9  23525002.140
  24931049.022    18744346.552 5  14626929.490 9  24931058.120
  23531482.655    -7645906.296 5  -5960670.598 9  23531489.304
  22528462.585    -2190161.554 7  -1656083.455 9  22528466.933
 94  3 22 23  2 30.0030000  0  7  7  2 15 26 19 13 27
  21255267.460   -17732495.886 8 -13695741.198 9  21255270.554
  21954136.327   -13966909.587 8 -10778351.631 9  21954139.749
  24634326.272     -791670.925 5   1040060.072 9  24634332.776
  23527473.968    -7355408.366 6  -5602173.752 9  23527477.741
  24951275.515    18850634.223 5  14709750.831 9  24951285.269
  23513966.163    -7737955.323 5  -6032396.975 9  23513972.843
  22545375.054    -2101285.918 7  -1586829.788 9  22545379.354
 94  3 22 23  3  0.0030000  0  7  7  2 15 26 19 13 27
  21256438.765   -17726341.048 8 -13690945.211 9  21256441.894
  21957829.663   -13947499.870 8 -10763227.184 9  21957833.120
  24642080.921     -750922.207 5   1071812.337 9  24642087.472
  23530045.272    -7341896.533 6  -5591645.067 9  23530048.718
  24971537.991    18957116.618 5  14792723.908 9  24971547.464
  23496516.585    -7829652.646 5  -6103849.290 9  23496523.108
  22562357.890    -2012039.902 7  -1517287.511 9  22562362.249
 94  3 22 23  3 30.0030000  0  7  7  2 15 26 19 13 27
  21257704.702   -17719689.089 8 -13685761.857 9  21257707.772
  21961561.288   -13927889.878 8 -10747946.673 9  21961564.804
  24649944.015     -709602.656 5   1104009.406 9  24649950.554
  23532717.569    -7327852.365 6  -5580701.586 9  23532721.120
  24991840.515    19063805.933 5  14875858.234 9  24991849.554
  23479136.116    -7920987.546 6  -6175019.196 9  23479142.577
  22579417.132    -1922393.388 7  -1447433.155 9  22579421.491
 94  3 22 23  4  0.0030000  0  7  7  2 15 26 19 13 27
  21259062.726   -17712552.178 8 -13680200.619 9  21259065.925
  21965326.272   -13908104.441 8 -10732529.457 9  21965329.776
  24657911.202     -667733.665 5   1136634.592 9  24657918.132
  23535489.233    -7313288.340 6  -5569353.016 9  23535492.948
  25012181.968    19170699.331 5  14959151.579 9  25012190.374
  23461821.147    -8011978.082 6  -6245920.760 9  23461827.519
  22596555.046    -1832333.863 7  -1377256.978 9  22596559.452
 94  3 22 23  4 30.0030000  0  7  7  2 15 26 19 13 27
  21260516.312   -17704913.435 8 -13674248.342 9  21260519.511
  21969125.108   -13888141.942 8 -10716974.267 9  21969128.565
  24665984.124     -625308.778 5   1169692.970 9  24665990.909
  23538363.585    -7298185.658 6  -5557584.709 9  23538367.229
  25032563.226    19277799.753 5  15042606.260 9  25032572.265
  23444573.491    -8102614.253 6  -6316546.206 9  23444579.917
  22613773.921    -1741848.334 7  -1306748.850 9  22613778.515
 94  3 22 23  5  0.0030000  0  7  7  2 15 26 19 13 27
  21262066.976   -17696764.265 8 -13667898.334 9  21262070.081
  21972955.866   -13868011.134 8 -10701287.927 9  21972959.311
  24674162.897     -582328.166 5   1203184.346 9  24674169.921
  23541343.022    -7282526.951 6  -5545383.134 9  23541346.479
  25052980.851    19385094.076 5  15126212.034 9  25052990.019
  23427393.827    -8192893.261 6  -6386893.338 9  23427400.257
  22631072.319    -1650944.894 7  -1235915.077 9  22631076.796
 94  3 22 23  5 30.0030000  0  7  7  2 15 26 19 13 27
  21263713.382   -17688112.113 8 -13661156.396 9  21263716.593
  21976811.983   -13847747.444 8 -10685498.039 9  21976815.370
  24682446.327     -538799.948 5   1237102.455 9  24682451.976
  23544429.241    -7266310.447 6  -5532746.919 9  23544432.604
  25073432.499    19492569.023 5  15209958.558 9  25073441.128
  23410281.257    -8282819.748 6  -6456965.779 9  23410287.679
  22648445.468    -1559648.747 7  -1164775.297 9  22648450.108
 94  3 22 23  6  0.0030000  0  7  7  2 15 26 19 13 27
  21265454.765   -17678960.360 8 -13654025.155 9  21265458.046
  21980693.124   -13827351.176 8 -10669604.846 9  21980696.581
  24690834.358     -494719.037 5   1271451.250 9  24690841.190
  23547620.546    -7249538.981 6  -5519678.267 9  23547624.026
  25093918.804    19600223.492 5  15293844.970 9  25093927.280
  23393237.335    -8372384.560 6  -6526756.398 9  23393243.761
  22665891.671    -1467967.581 7  -1093335.508 9  22665896.253
 94  3 22 23  6 30.0030000  0  7  7  2 15 26 19 13 27
  21267288.804   -17669322.111 8 -13646514.834 9  21267292.038
  21984599.976   -13806821.205 8 -10653607.471 9  21984603.573
  24699326.046     -450095.488 5   1306222.864 9  24699333.069
  23550914.835    -7232225.945 6  -5506187.609 9  23550918.655
  25114435.499    19708039.203 5  15377857.019 9  25114443.378
  23376261.218    -8461594.953 6  -6596270.855 9  23376267.581
  22683405.163    -1375934.071 7  -1021621.163 9  22683409.909
 94  3 22 23  7  0.0030000  0  7  7  2 15 26 19 13 27
  21269210.460   -17659223.310 8 -13638645.639 9  21269213.858
  21988533.280   -13786150.121 8 -10637500.151 9  21988536.796
  24707921.444     -404927.501 5   1341418.719 9  24707928.421
  23554309.530    -7214386.219 6  -5492286.546 9  23554313.456
  25134987.491    19816033.938 5  15462008.557 9  25134996.284
  23359353.288    -8550445.725 6  -6665505.103 9  23359359.562
  22700986.796    -1283541.458 7   -949626.999 9  22700991.542
 94  3 22 23  7 30.0030000  0  6  7  2 15 26 13 27
  21271220.382   -17648661.904 8 -13630415.968 9  21271223.663
  21992500.796   -13765302.479 8 -10621255.234 9  21992504.194
  24716623.179     -359200.482 5   1377050.203 9  24716629.612
  23557800.804    -7196040.337 6  -5477991.071 9  23557804.683
  23342517.288    -8638918.660 6  -6734444.924 9  23342523.753
  22718643.522    -1190757.070 7   -877327.555 9  22718648.198
 94  3 22 23  8  0.0030000  0  6  7  2 15 26 13 27
  21273309.843   -17637682.367 8 -13621860.484 9  21273313.136
  21996502.257   -13744273.492 8 -10604869.016 9  21996505.831
  24725425.741     -312939.543 5   1413097.732 9  24725432.976
  23561382.913    -7177214.656 6  -5463321.729 9  23561386.757
  23325749.015    -8727035.565 6  -6803107.331 9  23325755.413
  22736369.632    -1097604.848 7   -804741.483 9  22736374.401
 94  3 22 23  8 30.0030000  0  6  7  2 15 26 13 27
  21275475.007   -17626302.966 7 -13612993.408 9  21275478.358
  22000537.788   -13723066.493 8 -10588344.078 9  22000541.292
  24734330.296     -266148.986 5   1449557.926 9  24734337.011
  23565057.749    -7157903.993 6  -5448274.471 9  23565061.604
  23309048.476    -8814797.206 6  -6871492.915 9  23309055.030
  22754162.452    -1004104.515 7   -731884.162 9  22754167.222
 94  3 22 23  9  0.0030000  0  6  7  2 15 26 13 27
  21277717.179   -17614521.303 8 -13603812.882 9  21277720.319
  22004605.827   -13701688.658 8 -10571686.030 9  22004609.343
  24743334.093     -218831.786 5   1486428.515 9  24743340.901
  23568822.976    -7138115.680 6  -5432855.028 9  23568827.288
  23292415.507    -8902203.523 6  -6939601.625 9  23292422.026
  22772021.101     -910255.618 7   -658755.236 9  22772025.894
 94  3 22 23  9 30.0030000  0  6  7  2 15 26 13 27
  21280040.358   -17602313.372 8 -13594300.199 9  21280043.534
  22008707.749   -13680134.429 8 -10554890.532 9  22008711.183
  24752439.194     -170984.842 5   1523711.891 9  24752444.374
  23572684.296    -7117826.470 6  -5417045.280 9  23572688.233
  23275851.483    -8989247.831 6  -7007428.260 9  23275857.812
  22789944.390     -816069.337 7   -585363.412 9  22789949.241
 94  3 22 23 10  0.0030000  0  6  7  2 15 26 13 27
  21282448.499   -17589656.341 7 -13584437.568 9  21282451.933
  22012842.858   -13658403.906 8 -10537957.662 9  22012846.292
  24761647.405     -122595.405 5   1561417.975 9  24761653.265
  23576647.062    -7097001.152 6  -5400817.783 9  23576651.011
  23259359.444    -9075913.692 6  -7074960.006 9  23259365.815
  22807931.046     -721549.414 7   -511711.606 9  22807935.581
 94  3 22 23 10 30.0030000  0  6  7  2 15 26 13 27
  21284946.999   -17576528.375 8 -13574207.971 9  21284950.327
  22017007.702   -13636516.633 8 -10520902.649 9  22017011.065
  24770957.835      -73670.002 5   1599541.662 9  24770962.944
  23580708.358    -7075659.907 6  -5384188.267 9  23580711.839
  23242938.780    -9162204.282 6  -7142199.334 9  23242945.315
  22825982.257     -626689.582 7   -437794.937 9  22825986.968
 94  3 22 23 11  0.0030000  0  6  7  2 15 26 13 27
  21287537.312   -17562916.292 8 -13563601.141 9  21287540.663
  22021203.772   -13614466.114 8 -10503720.433 9  22021207.136
  24780370.343      -24206.921 5   1638084.323 9  24780376.144
  23584865.022    -7053816.761 6  -5367167.648 9  23584868.526
  23226590.530    -9248114.295 6  -7209142.124 9  23226596.925
  22844104.374     -531457.737 7   -363588.386 9  22844109.179
 94  3 22 23 11 30.0030000  0  6  7  2 15 26 13 27
  21290217.319   -17548831.442 7 -13552625.913 9  21290220.636
  22025430.726   -13592253.836 8 -10486412.165 9  22025434.112
  24789884.335       25791.390 5   1677044.058 9  24789890.347
  23589117.069    -7031471.393 6  -5349755.705 9  23589120.843
  23210315.147    -9333642.577 6  -7275787.465 9  23210321.397
  22862298.499     -435847.720 7   -289087.158 9  22862303.222
 94  3 22 23 12  0.0030000  0  6  7  2 15 26 13 27
  21292987.171   -17534277.329 8 -13541285.032 9  21292990.311
  22029687.351   -13569884.567 8 -10468981.579 9  22029690.878
  24799498.991       76317.800 5   1716415.292 9  24799504.429
  23593460.593    -7008647.975 6  -5331971.253 9  23593464.272
  23194111.405    -9418792.769 6  -7342138.194 9  23194117.679
  22880565.819     -339851.394 7   -214284.910 9  22880570.577
 94  3 22 23 12 30.0030000  0  6  7  2 15 26 13 27
  21295845.085   -17519258.239 7 -13529581.832 9  21295848.436
  22033974.319   -13547357.025 8 -10451427.661 9  22033977.706
  24809215.101      127372.464 5   1756198.146 9  24809220.526
  23597893.429    -6985351.376 6  -5313818.084 9  23597897.120
  23177980.569    -9503561.375 6  -7408191.584 9  23177986.632
  22898908.218     -243462.682 7   -139176.904 9  22898912.999
 94  3 22 23 13  0.0030000  0  6  7  2 15 26 13 27
  21298788.999   -17503786.503 7 -13517525.920 9  21298792.339
  22038292.468   -13524665.190 8 -10433745.719 9  22038295.843
  24819031.655      178963.717 5   1796399.107 9  24819037.280
  23602420.210    -6961561.967 6  -5295280.894 9  23602424.124
  23161924.483    -9587936.504 6  -7473938.363 9  23161930.542
  22917324.679     -146682.894 7    -63764.165 9  22917329.577
 94  3 22 23 13 30.0030000  0  7  7  2 15 26  4 13 27
  21301819.702   -17487860.081 8 -13505115.711 9  21301822.913
  22042640.241   -13501817.118 8 -10415942.039 9  22042643.663
  24828950.655      231088.356 5   1837015.699 9  24828956.679
  23607042.897    -6937271.731 6  -5276353.465 9  23607047.022
  25017359.866      -90240.333 5
  23145943.249    -9671917.488 6  -7539378.023 9  23145949.409
  22935810.054      -49542.895 7     11929.255 9  22935814.683
 94  3 22 23 14  0.0030000  0  7  7  2 15 26  4 13 27
  21304937.757   -17471475.755 8 -13492348.695 9  21304941.050
  22047018.749   -13478809.119 8 -10398013.739 9  22047022.218
  24838972.155      283749.885 5   1878050.649 9  24838978.155
  23611760.780    -6912479.029 6  -5257034.496 9  23611764.940
  24999594.460     -183600.221 5    -31522.17519  24999603.347
  23130038.515    -9755497.652 6  -7604505.355 9  23130044.632
  22954362.772       47952.623 7     87899.706 9  22954367.308
 94  3 22 23 14 30.0030000  0  7  7  2 15 26  4 13 27
  21308142.288   -17454635.184 8 -13479226.160 9  21308145.476
  22051428.421   -13455635.050 8 -10379956.029 9  22051431.890
  24849097.288      336956.311 5   1919510.200 9  24849102.011
  23616578.749    -6887159.585 6  -5237305.094 9  23616582.909
  24981830.522     -276948.256 5   -104260.572 9  24981839.116
  23114211.999    -9838665.660 6  -7669311.522 9  23114218.315
  22972982.280      145796.846 7    164141.873 9  22972986.851
 94  3 22 23 15  0.0030000  0  7  7  2 15 26  4 13 27
  21311433.358   -17437341.874 8 -13465750.845 9  21311436.663
  22055870.561   -13432292.071 8 -10361766.700 9  22055874.007
  24859324.788      390700.854 5   1961389.070 9  24859330.226
  23621495.999    -6861320.220 6  -5217170.551 9  23621499.995
  24964067.999     -370284.870 5   -176990.059 9  24964077.999
  23098463.647    -9921424.487 6  -7733798.845 9  23098469.706
  22991663.530      243968.341 7    240639.059 9  22991668.112
 94  3 22 23 15 30.0030000  0  7  7  2 15 26  4 13 27
  21314810.952   -17419591.241 7 -13451919.179 9  21314814.351
  22060346.218   -13408772.938 8 -10343440.108 9  22060349.757
  24869654.577      444983.324 5   2003687.090 9  24869660.589
  23626510.632    -6834967.885 6  -5196636.295 9  23626514.745
  24946312.218     -463597.693 5   -249701.029 9  24946320.167
  23082793.538   -10003770.845 6  -7797964.758 9  23082799.671
  23010405.108      342456.048 7    317382.641 9  23010409.831
 94  3 22 23 16  0.0030000  0  7  7  2 15 26  4 13 27
  21318274.765   -17401388.804 7 -13437735.458 9  21318278.081
  22064857.905   -13385063.192 8 -10324964.988 9  22064861.327
  24880088.155      499813.557 5   2046411.954 9  24880092.726
  23631625.390    -6808089.817 6  -5175692.378 9  23631628.940
  24928560.296     -556880.707 5   -322388.782 9  24928568.913
  23067204.647   -10085691.002 6  -7861798.568 9  23067210.718
  23029210.710      441279.066 7    394387.501 9  23029215.374
 94  3 22 23 16 30.0030000  0  7  7  2 15 26  4 13 27
  21321821.788   -17382749.168 8 -13423211.067 9  21321825.104
  22069402.929   -13361178.619 8 -10306353.637 9  22069406.409
  24890623.671      555180.922 5   2089555.383 9  24890628.815
  23636838.194    -6780696.943 6  -5154347.316 9  23636842.050
  24910811.726     -650149.022 5   -395065.078 9  24910820.331
  23051695.421   -10167192.344 6  -7925306.025 9  23051701.335
  23048077.741      540425.014 7    471643.996 9  23048082.534
 94  3 22 23 17  0.0030000  0  7  7  2 15 26  4 13 27
  21325451.944   -17363672.966 8 -13408346.494 9  21325455.331
  22073979.249   -13337130.351 8 -10287614.735 9  22073982.882
  24901261.812      611082.111 5   2133114.781 9  24901267.601
  23642145.851    -6752805.613 6  -5132613.851 9  23642150.046
  24893067.108     -743399.137 5   -467727.198 9  24893074.683
  23036265.991   -10248274.276 6  -7988486.671 9  23036271.929
  23067007.858      639903.346 7    549159.492 9  23067012.651
 94  3 22 23 17 30.0030000  0  7  7  2 15 26  4 13 27
  21329164.272   -17344165.257 8 -13393145.682 9  21329167.636
  22078584.577   -13312929.989 8 -10268757.311 9  22078588.046
  24912000.116      667511.343 5   2177085.613 9  24912006.456
  23647546.585    -6724423.956 6  -5110498.317 9  23647550.839
  24875324.569     -836634.016 5   -540377.495 9  24875332.917
  23020915.913   -10328938.914 6  -8051342.146 9  23020921.823
  23086005.077      739734.024 7    626949.540 9  23086009.718
 94  3 22 23 18  0.0030000  0  7  7  2 15 26  4 13 27
  21332958.257   -17324225.256 8 -13377608.022 9  21332961.573
  22083218.671   -13288576.183 8 -10249780.314 9  22083222.304
  24922837.312      724461.712 5   2221462.539 9  24922842.726
  23653039.390    -6695557.473 6  -5088004.988 9  23653043.644
  24857583.905     -929860.609 5   -613021.318 9  24857591.936
  23005644.663   -10409189.928 6  -8113875.317 9  23005650.452
  23105071.765      839931.095 7    705025.090 9  23105076.745
 94  3 22 23 18 30.0030000  0  7  7  2 15 26  4 13 27
  21336838.687   -17303834.366 7 -13361719.014 9  21336842.085
  22087883.405   -13264062.750 8 -10230678.934 9  22087887.026
  24933773.171      781930.808 5   2266243.669 9  24933778.632
  23658624.749    -6666208.137 6  -5065135.414 9  23658629.050
  24839846.804    -1023068.337 5   -685650.430 9  24839854.917
  22990452.210   -10489025.860 6  -8176085.042 9  22990458.257
  23124207.999      940491.919 7    783384.079 9  23124212.968
 94  3 22 23 19  0.0030000  0  7  7  2 15 26  4 13 27
  21340806.640   -17282983.040 8 -13345471.225 9  21340809.979
  22092581.491   -13239374.952 8 -10211441.682 9  22092585.101
  24944808.140      839920.121 5   2311430.177 9  24944813.659
  23664302.593    -6636371.045 6  -5041885.775 9  23664307.081
  24822113.952    -1116252.839 5   -758261.484 9  24822121.761
  22975339.757   -10568441.606 6  -8237967.348 9  22975345.686
  23143413.905     1041419.141 7    862028.569 9  23143418.792
 94  3 22 23 19 30.0030000  0  7  7  2 15 26  4 13 27
  21344860.702   -17261679.433 8 -13328871.009 9  21344864.019
  22097314.812   -13214500.425 8 -10192058.931 9  22097318.444
  24955941.468      898427.863 5   2357020.644 9  24955946.741
  23670074.116    -6606041.912 6  -5018252.717 9  23670078.464
  24804386.155    -1209411.062 5   -830852.062 9  24804394.034
  22960307.718   -10647435.129 6  -8299520.639 9  22960313.706
  23162686.444     1142696.009 7    940945.513 9  23162691.612
 94  3 22 23 20  0.0030000  0  7  7  2 15 26  4 13 27
  21349001.171   -17239921.398 8 -13311916.693 9  21349004.429
  22102087.319   -13189421.771 8 -10172517.116 9  22102090.929
  24967175.671      957463.071 5   2403022.105 9  24967181.366
  23675943.632    -6575197.940 6  -4994218.496 9  23675947.792
  24786666.671    -1302526.806 5   -903409.534 9  24786674.175
  22945358.429   -10725994.096 6  -8360735.320 9  22945364.308
  23182023.116     1244310.520 7   1020125.551 9  23182028.144
 94  3 22 23 20 30.0030000  0  7  7  2 15 26  4 13 27
  21353225.351   -17217722.561 8 -13294618.886 9  21353228.620
  22106895.679   -13164153.364 8 -10152827.444 9  22106899.112
  24978509.140     1017021.891 5   2449431.587 9  24978515.374
  23681909.616    -6543846.329 6  -4969788.704 9  23681913.647
  24768956.757    -1395592.163 5   -975927.759 9  24768964.507
  22930491.601   -10804118.839 6  -8421611.655 9  22930497.690
  23201419.905     1346241.804 7   1099552.424 9  23201424.757
 94  3 22 23 21  0.0030000  0  7  7  2 15 26  4 13 27
  21357529.812   -17195103.330 8 -13276993.497 9  21357533.093
  22111739.257   -13138700.299 8 -10132993.884 9  22111742.772
  24989942.062     1077100.586 5   2496246.176 9  24989946.925
  23687968.312    -6512006.740 6  -4944978.670 9  23687972.659
  24751256.101    -1488610.513 5  -1048409.363 9  24751264.425
  22915707.546   -10881809.405 6  -8482149.666 9  22915713.565
  23220876.179     1448483.303 7   1179221.025 9  23220881.042
 94  3 22 23 21 30.0030000  0  6  7  2 26  4 13 27
  21361914.780   -17172059.668 8 -13259037.381 9  21361918.097
  22116617.686   -13113063.777 8 -10113017.364 9  22116621.249
  23694120.108    -6479681.149 6  -4919789.925 9  23694124.374
  24733565.280    -1581574.657 5  -1120848.748 9  24733573.663
  22901006.882   -10959061.513 6  -8542346.024 9  22901012.761
  23240392.319     1551041.584 7   1259136.467 9  23240397.206
 94  3 22 23 22  0.0030000  0  6  7  2 26  4 13 27
  21366382.812   -17148579.881 8 -13240741.422 9  21366386.058
  22121531.124   -13087244.588 8 -10092898.505 9  22121534.640
  23700364.038    -6446869.324 6  -4894222.296 9  23700368.046
  24715883.788    -1674490.703 5  -1193250.644 9  24715893.308
  22886390.038   -11035873.163 6  -8602199.177 9  22886395.843
  23259971.366     1653928.741 7   1339308.180 9  23259976.429
 94  3 22 23 22 30.0030000  0  6  7  2 26  4 13 27
  21370934.069   -17124663.956 8 -13222105.621 9  21370937.257
  22126477.890   -13061248.109 8 -10072641.507 9  22126481.335
  23706696.202    -6413593.213 6  -4868292.884 9  23706700.444
  24698211.226    -1767360.918 5  -1265616.832 9  24698218.800
  22871856.936   -11112244.453 6  -8661709.190 9  22871862.862
  23279614.179     1757152.316 7   1419742.032 9  23279618.890
 94  3 22 23 23  0.0030000  0  6  7  2 26  4 13 27
  21375568.913   -17100307.433 8 -13203126.492 9  21375572.112
  22131458.437   -13035074.732 8 -10052246.670 9  22131461.847
  23713117.202    -6379850.348 6  -4841999.769 9  23713121.245
  24680546.936    -1860187.855 5  -1337949.319 9  24680554.991
  22857407.436   -11188176.925 6  -8720877.272 9  22857413.417
  23299321.726     1860715.318 7   1500440.376 9  23299326.624
 94  3 22 23 23 30.0030000  0  7  7  2  9 26  4 13 27
  21380290.960   -17075493.315 8 -13183790.801 9  21380294.124
  22136474.515   -13008716.287 8 -10031707.622 9  22136477.960
  25159566.968      -32791.715 5
  23719629.569    -6345627.207 6  -4815332.408 9  23719633.706
  24662894.038    -1952952.177 5  -1410232.987 9  24662902.245
  22843043.179   -11263661.092 6  -8779696.029 9  22843049.077
  23319095.983     1964629.887 7   1581412.664 9  23319100.976
 94  3 22 23 24  0.0030000  0  7  7  2  9 26  4 13 27
  21385097.218   -17050235.229 8 -13164109.158 9  21385100.312
  22141527.804   -12982162.240 8 -10011016.157 9  22141531.179
  25142561.171     -122156.688 5
  23726234.241    -6310919.037 6  -4788287.107 9  23726238.472
  24645255.140    -2045643.387 5  -1482459.692 9  24645263.804
  22828765.890   -11338689.123 6  -8838159.356 9  22828771.722
  23338936.304     2068890.376 7   1662654.503 9  23338941.354
 94  3 22 23 24 30.0030000  0  7  7  2  9 26  4 13 27
  21389983.757   -17024556.585 8 -13144099.812 9  21389986.862
  22146614.530   -12955430.289 8  -9990186.072 9  22146617.964
  25125573.718     -211424.653 5    -20857.62619  25125579.296
  23732928.062    -6275742.883 6  -4760877.151 9  23732932.245
  24627629.499    -2138265.638 5  -1554632.675 9  24627637.905
  22814573.249   -11413271.548 6  -8896275.459 9  22814579.069
  23358837.366     2173471.659 6   1744146.315 9  23358842.558
 94  3 22 23 25  0.0030000  0  7  7  2  9 26  4 13 27
  21394948.429   -16998465.910 8 -13123769.398 9  21394951.511
  22151734.812   -12928521.691 8  -9969218.341 9  22151738.304
  25108608.679     -300579.428 5    -90328.771 9  25108615.358
  23739713.272    -6240086.243 6  -4733092.780 9  23739717.468
  24610016.147    -2230823.059 5  -1626755.132 9  24610024.308
  22800465.874   -11487406.411 6  -8954042.821 9  22800471.468
  23378797.179     2278361.074 6   1825878.223 9  23378802.206
 94  3 22 23 25 30.0030000  0  7  7  2  9 26  4 13 27
  21399990.374   -16971971.227 8 -13103124.177 9  21399993.409
  22156889.522   -12901433.925 8  -9948111.000 9  22156892.757
  25091664.288     -389622.186 5   -159712.639 9  25091669.175
  23746591.343    -6203942.162 6  -4704928.588 9  23746595.526
  24592414.358    -2323321.208 5  -1698831.400 9  24592422.425
  22786443.952   -11561091.983 6  -9011460.084 9  22786449.476
  23398814.538     2383552.694 6   1907845.613 9  23398819.601
 94  3 22 23 26  0.0030000  0  7  7  2  9 26  4 13 27
  21405109.163   -16945072.557 8 -13082164.173 9  21405112.163
  22162079.218   -12874162.423 8  -9926860.488 9  22162082.487
  25074737.874     -478569.424 5   -229022.092 9  25074742.186
  23753564.312    -6167298.767 6  -4676375.326 9  23753568.612
  24574822.640    -2415766.955 6  -1770866.845 9  24574830.671
  22772508.710   -11634322.284 6  -9068522.595 9  22772514.276
  23418889.108     2489044.321 6   1990046.774 9  23418894.335
 94  3 22 23 26 30.0030000  0  7  7  2  9 26  4 13 27
  21410310.679   -16917738.427 8 -13060864.816 9  21410313.632
  22167303.780   -12846703.755 8  -9905464.154 9  22167307.308
  25057830.538     -567417.254 5   -298254.089 9  25057836.186
  23760634.210    -6130145.613 6  -4647424.843 9  23760638.499
  24557241.319    -2508154.562 6  -1842856.985 9  24557249.175
  22758661.991   -11707087.195 6  -9125222.457 9  22758667.464
  23439023.163     2594850.013 6   2072492.666 9  23439028.530
 94  3 22 23 27  0.0030000  0  7  7  2  9 26  4 13 27
  21415596.749   -16889959.675 8 -13039219.065 9  21415599.690
  22172567.265   -12819046.836 8  -9883913.301 9  22172570.827
  25040943.460     -656158.632 5   -367403.091 9  25040948.323
  23767801.233    -6092482.596 6  -4618077.064 9  23767805.698
  24539673.897    -2600472.459 6  -1914792.828 9  24539681.671
  22744905.046   -11779380.103 6  -9181554.524 9  22744910.390
  23459220.921     2700988.602 6   2155197.956 9  23459226.265
 94  3 22 23 27 30.0030000  0  7  7  2  9 26  4 13 27
  21420965.374   -16861747.234 8 -13017235.340 9  21420968.468
  22177865.866   -12791203.498 8  -9862217.205 9  22177869.019
  25024072.405     -744818.843 5   -436488.875 9  25024077.362
  23775059.772    -6054339.373 6  -4588355.102 9  23775064.296
  24522118.929    -2692723.708 6  -1986676.742 9  24522126.983
  22731235.890   -11851211.491 6  -9237526.967 9  22731241.351
  23479481.233     2807457.733 6   2238160.813 9  23479486.530
 94  3 22 23 28  0.0030000  0  7  7  2  9 26  4 13 27
  21426414.655   -16833110.056 7 -12994920.651 9  21426417.761
  22183200.030   -12763170.790 8  -9840373.541 9  22183203.288
  25007216.952     -833394.679 5   -505508.926 9  25007221.276
  23782406.194    -6015735.318 6  -4558274.047 9  23782410.577
  24504576.015    -2784911.090 6  -2058510.884 9  24504583.612
  22717654.835   -11922580.116 6  -9293138.811 9  22717660.210
  23499804.671     2914257.462 6   2321381.277 9  23499809.956
 94  3 22 23 28 30.0030000  0  7  7  2  9 26  4 13 27
  21431942.343   -16804062.974 8 -12972286.557 9  21431945.308
  22188566.593   -12734968.537 8  -9818397.773 9  22188570.214
  24990380.507     -921870.053 5   -574450.719 9  24990384.831
  23789835.116    -5976694.969 6  -4527853.026 9  23789839.382
  24487046.116    -2877032.354 6  -2130293.505 9  24487053.761
  22704159.890   -11993495.899 6  -9348397.796 9  22704165.378
  23520189.601     3021379.116 6   2404852.590 9  23520195.050
 94  3 22 23 29  0.0030000  0  7  7  2  9 26  4 13 27
  21437545.601   -16774616.586 7 -12949341.320 9  21437548.694
  22193966.929   -12706590.049 8  -9796284.672 9  22193970.608
  24973566.679    -1010226.698 5   -643299.968 9  24973571.835
  23797345.960    -5937226.925 6  -4497098.727 9  23797350.214
  24469531.022    -2969073.893 6  -2202014.031 9  24469538.315
  22690752.929   -12063949.949 6  -9403296.985 9  22690758.433
  23540635.546     3128824.688 6   2488576.304 9  23540640.937
 94  3 22 23 29 30.0030000  0  7  7  2  9 26  4 13 27
  21443225.296   -16744768.101 7 -12926082.757 9  21443228.413
  22199401.882   -12678030.093 8  -9774030.164 9  22199405.292
  24956775.515    -1098462.281 5   -712054.896 9  24956780.413
  23804936.796    -5897336.337 6  -4466015.180 9  23804940.815
  24452029.812    -3061041.843 6  -2273677.209 9  24452037.456
  22677434.022   -12133941.052 6  -9457835.439 9  22677439.483
  23561139.936     3236575.939 6   2572538.206 9  23561145.444
 94  3 22 23 30  0.0030000  0  7  7  2  9 26  4 13 27
  21448982.085   -16714516.255 7 -12902509.888 9  21448985.155
  22204868.444   -12649302.265 8  -9751644.845 9  22204871.819
  24940007.710    -1186579.722 5   -780717.740 9  24940013.159
  23812606.741    -5857030.767 6  -4434608.262 9  23812611.124
  24434541.436    -3152943.330 6  -2345288.599 9  24434548.964
  22664201.437   -12203477.802 6  -9512019.852 9  22664206.909
  23581698.968     3344614.157 6   2656723.731 9  23581704.722
 94  3 22 23 30 30.0030000  0  7  7  2  9 26  4 13 27
  21454817.413   -16683851.847 7 -12878615.539 9  21454820.612
  22210366.069   -12620411.016 8  -9729132.184 9  22210369.702
  24923262.913    -1274573.022 5   -849283.866 9  24923268.128
  23820355.218    -5816310.866 6  -4402878.490 9  23820359.729
  24417070.796    -3244752.325 6  -2416827.937 9  24417078.241
  22651056.897   -12272552.655 6  -9565844.350 9  22651062.347
  23602312.046     3452936.039 6   2741130.283 9  23602317.706
 94  3 22 23 31  0.0030000  0  7  7  2  9 26  4 13 27
  21460732.007   -16652769.134 7 -12854395.233 9  21460735.159
  22215899.179   -12591334.917 8  -9706475.485 9  22215902.882
  24906540.796    -1362446.939 5   -917756.951 9  24906545.917
  23828184.843    -5775167.911 6  -4370819.070 9  23828189.132
  24399618.968    -3336463.276 6  -2488290.868 9  24399625.671
  22638002.757   -12341152.104 6  -9619298.395 9  22638008.206
  23622977.843     3561536.023 6   2825753.541 9  23622983.644
 94  3 22 23 31 30.0030000  0  7  7  2  9 26  4 13 27
  21466724.874   -16621277.225 7 -12829856.071 9  21466728.062
  22221466.765   -12562078.073 8  -9683677.940 9  22221470.351
  24889840.741    -1450205.607 5   -986140.236 9  24889845.780
  23836093.616    -5733606.902 6  -4338433.888 9  23836097.647
  24382184.921    -3428077.420 6  -2559678.396 9  24382191.530
  22625038.186   -12409281.429 6  -9672386.116 9  22625043.683
  23643694.765     3670403.019 6   2910584.852 9  23643700.226
 94  3 22 23 32  0.0030000  0  7  7  2  9 26  4 13 27
  21472790.421   -16589402.119 7 -12805018.310 9  21472793.561
  22227063.241   -12532667.703 8  -9660760.767 9  22227066.804
  24873162.601    -1537852.726 5  -1054436.577 9  24873167.886
  23844080.772    -5691632.925 6  -4305726.924 9  23844085.296
  24364771.140    -3519589.042 6  -2630986.015 9  24364778.081
  22612161.101   -12476951.494 6  -9725115.966 9  22612166.374
  23664460.835     3779529.298 6   2995618.212 9  23664466.343
 94  3 22 23 32 30.0030000  0  7  7  2  9 26  4 13 27
  21478927.765   -16557148.945 7 -12779885.946 9  21478931.151
  22232692.390   -12503085.689 8  -9637709.837 9  22232696.046
  24856506.858    -1625376.755 5  -1122637.033 9  24856512.636
  23852150.327    -5649227.709 6  -4272683.920 9  23852154.394
  24347379.921    -3610977.010 6  -2702197.303 9  24347386.909
  22599372.733   -12544154.061 6  -9777481.536 9  22599378.116
  23685277.796     3888921.466 6   3080858.746 9  23685283.655
 94  3 22 23 33  0.0030000  0  7  7  2  9 26  4 13 27
  21485134.991   -16524530.075 7 -12754468.623 9  21485138.436
  22238355.624   -12473325.549 8  -9614520.109 9  22238359.315
  24839874.960    -1712777.991 5  -1190741.799 9  24839880.046
  23860303.913    -5606380.222 6  -4239296.288 9  23860308.343
  24330012.413    -3702245.152 6  -2773315.191 9  24330019.331
  22586673.312   -12610889.460 6  -9829483.072 9  22586678.843
  23706144.577     3998576.301 6   3166303.962 9  23706150.460
 94  3 22 23 33 30.0030000  0  7  7  2  9 26  4 13 27
  21491410.663   -16491551.096 7 -12728770.699 9  21491414.085
  22244050.882   -12443396.614 8  -9591198.858 9  22244054.409
  24823265.890    -1800058.256 5  -1258752.282 9  24823271.093
  23868543.593    -5563080.129 6  -4205555.979 9  23868547.929
  24312668.069    -3793388.943 6  -2844336.194 9  24312674.749
  22574062.437   -12677160.669 6  -9881122.912 9  22574067.753
  23727062.819     4108502.267 6   3251960.442 9  23727068.608
 94  3 22 23 34  0.0030000  0  7  7  2  9 26  4 13 27
  21497758.897   -16458189.001 7 -12702774.241 9  21497762.354
  22249782.554   -12413276.919 8  -9567728.964 9  22249786.069
  24806680.616    -1887214.649 5  -1326666.229 9  24806686.089
  23876876.562    -5519290.537 6  -4171434.253 9  23876881.085
  24295349.936    -3884397.267 6  -2915251.628 9  24295357.054
  22561543.413   -12742947.905 6  -9932385.631 9  22561548.659
  23748036.999     4218721.931 6   3337845.777 9  23748042.776
 94  3 22 23 34 30.0030000  0  7  7  2  9 26  4 13 27
  21504179.437   -16424450.401 7 -12676484.408 9  21504182.917
  22255550.319   -12382967.658 8  -9544111.354 9  22255553.882
  24790114.624    -1974268.398 5  -1394500.213 9  24790119.933
  23885299.069    -5475029.446 6  -4136945.125 9  23885303.487
  24278050.272    -3975306.040 6  -2986089.483 9  24278057.167
  22549114.655   -12808260.751 6  -9983278.690 9  22549120.050
  23769063.022     4329213.695 6   3423943.145 9  23769068.554
 94  3 22 23 35  0.0030000  0  7  7  2  9 26  4 13 27
  21510673.921   -16390323.077 7 -12649891.669 9  21510677.249
  22261352.187   -12352479.104 8  -9520354.042 9  22261355.608
  24773565.655    -2061235.071 5  -1462266.358 9  24773570.319
  23893805.960    -5430325.095 6  -4102110.594 9  23893810.390
  24260763.710    -4066146.117 6  -3056873.806 9  24260770.401
  22536775.765   -12873101.844 6 -10033804.155 9  22536781.171
  23790139.483     4439970.626 6   3510247.126 9  23790144.944
 94  3 22 23 35 30.0030000  0  7  7  2  9 26  4 13 27
  21517246.835   -16355780.676 7 -12622975.492 9  21517250.116
  22267187.976   -12321811.885 8  -9496457.501 9  22267191.292
  24757033.187    -2148113.734 5  -1529963.922 9  24757037.628
  23902397.843    -5385174.845 6  -4066928.620 9  23902402.636
  24243491.241    -4156915.441 6  -3127602.991 9  24243498.288
  22524527.288   -12937467.265 6 -10083958.961 9  22524532.784
  23811268.468     4551004.284 6   3596766.741 9  23811274.011
 94  3 22 23 36  0.0030000  0  7  7  2  9 26  4 13 27
  21523899.733   -16320819.569 7 -12595733.061 9  21523902.979
  22273057.976   -12290964.049 8  -9472420.226 9  22273061.315
  24740519.093    -2234895.862 5  -1597586.231 9  24740523.323
  23911071.561    -5339592.682 6  -4031410.083 9  23911076.261
  24226233.179    -4247603.877 6  -3198269.136 9  24226240.190
  22512370.405   -13001351.875 6 -10133739.116 9  22512375.796
  23832450.171     4662313.319 6   3683500.931 9  23832456.968
 94  3 22 23 36 30.0030000  0  7  7  2  9 26  4 13 27
  21530631.444   -16285445.379 7 -12568168.743 9  21530634.714
  22278960.124   -12259948.954 8  -9448252.623 9  22278963.569
  24724024.640    -2321574.686 5  -1665128.056 9  24724028.601
  23919822.226    -5293608.933 6  -3995578.626 9  23919827.300
  24208994.686    -4338191.890 6  -3268857.042 9  24209001.401
  22500304.780   -13064757.218 6 -10183145.810 9  22500310.042
  23853681.749     4773886.278 6   3770440.778 9  23853688.558
 94  3 22 23 37  0.0030000  0  7  7  2  9 26  4 13 27
  21537438.804   -16249671.193 7 -12540292.744 9  21537442.214
  22284894.124   -12228764.362 8  -9423952.939 9  22284897.651
  24707551.882    -2408138.016 6  -1732579.901 9  24707556.311
  23928650.874    -5247214.022 6  -3959426.789 9  23928655.936
  24191782.890    -4428638.583 6  -3339334.814 9  24191789.948
  22488331.007   -13127679.144 6 -10232175.819 9  22488336.312
  23874965.991     4885736.463 6   3857596.644 9  23874973.097
 94  3 22 23 37 30.0030000  0  7  7  2  9 26  4 13 27
  21544318.710   -16213517.381 7 -12512120.938 9  21544322.003
  22290863.101   -12197396.759 8  -9399510.648 9  22290866.651
  24691107.874    -2494550.525 5  -1799914.194 9  24691111.870
  23937562.913    -5200382.224 6  -3922934.520 9  23937567.800
  24174607.421    -4518898.036 6  -3409666.685 9  24174614.206
  22476451.780   -13190104.905 6 -10280819.207 9  22476457.101
  23896305.655     4997876.389 6   3944978.273 9  23896312.370
 94  3 22 23 38  0.0030000  0  7  7  2  9 26  4 13 27
  21551263.647   -16177021.866 7 -12483682.869 9  21551266.952
  22296867.601   -12165842.772 8  -9374923.127 9  22296871.081
  24674694.054    -2580805.033 5  -1867125.387 9  24674698.823
  23946553.358    -5153136.754 6  -3886119.908 9  23946558.304
  24157467.233    -4608968.484 6  -3479851.270 9  24157473.831
  22464665.624   -13252040.778 6 -10329080.863 9  22464670.999
  23917695.741     5110281.990 6   4032566.930 9  23917702.245
 94  3 22 23 38 30.0030000  0  7  7  2  9 26  4 13 27
  21558271.616   -16140195.666 7 -12454987.119 9  21558274.698
  22302908.663   -12134097.465 8  -9350186.522 9  22302912.190
  24658312.179    -2666895.193 5  -1934208.504 9  24658316.960
  23955621.968    -5105480.337 6  -3848985.078 9  23955626.843
  24140361.046    -4698861.946 6  -3549897.961 9  24140367.866
  22452972.007   -13313491.244 6 -10376964.275 9  22452977.288
  23939133.999     5222938.418 6   4120351.028 9  23939140.620
 94  3 22 23 39  0.0030000  0  7  7  2  9 26  4 13 27
  21565343.804   -16103029.637 7 -12426026.570 9  21565346.909
  22308989.366   -12102143.381 8  -9325287.235 9  22308992.976
  24641967.429    -2752785.582 5  -2001135.973 9  24641971.706
  23964772.460    -5057393.398 6  -3811514.774 9  23964777.511
  24123286.757    -4788585.064 6  -3619811.915 9  24123293.616
  22441373.835   -13374439.633 6 -10424456.463 9  22441379.198
  23960623.616     5335867.402 6   4208347.516 9  23960630.179
 94  3 22 23 39 30.0030000  0  7  7  2  9 26  4 13 27
  21572482.936   -16065513.520 7 -12396793.222 9  21572486.007
  22315106.991   -12069994.262 8  -9300235.976 9  22315110.460
  24625659.960    -2838478.155 5  -2067909.300 9  24625664.296
  23974000.476    -5008900.295 6  -3773727.970 9  23974005.104
  24106238.647    -4878175.061 6  -3689622.145 9  24106245.187
  22429870.124   -13434891.791 6 -10471561.974 9  22429875.378
  23982162.335     5449053.325 6   4296544.207 9  23982169.085
 94  3 22 23 40  0.0030000  0  7  7  2  9 26  4 13 27
  21579692.538   -16027627.085 7 -12367271.315 9  21579695.550
  22321260.788   -12037655.501 8  -9275036.940 9  22321264.456
  24609388.069    -2923988.699 5  -2134540.805 9  24609392.745
  23983304.194    -4960008.426 6  -3735630.457 9  23983309.386
  24089211.804    -4967650.031 6  -3759342.738 9  24089218.308
  22418461.108   -13494846.061 6 -10518279.522 9  22418466.401
  24003748.366     5562489.030 6   4384935.541 9  24003755.093
 94  3 22 23 40 30.0030000  0  7  7  2  9 26  4 13 27
  21586975.819   -15989352.997 7 -12337447.338 9  21586978.831
  22327446.116   -12005152.190 8  -9249709.684 9  22327449.714
  24593147.061    -3009336.118 6  -2201045.177 9  24593151.444
  23992683.585    -4910719.904 6  -3697223.849 9  23992688.694
  24072203.733    -5057027.858 6  -3828987.664 9  24072210.366
  22407145.515   -13554309.645 6 -10564614.717 9  22407150.761
  24025381.179     5676169.322 6   4473517.451 9  24025388.190
 94  3 22 23 41  0.0030000  0  7  7  2  9 26  4 13 27
  21594335.952   -15950676.628 7 -12307309.900 9  21594338.823
  22333663.319   -11972480.067 8  -9224250.882 9  22333666.929
  24576934.663    -3094531.127 6  -2267430.795 9  24576939.233
  24002139.515    -4861030.364 6  -3658504.766 9  24002144.249
  24055216.882    -5146292.282 6  -3898544.221 9  24055223.573
  22395924.913   -13613274.484 6 -10610561.282 9  22395930.175
  24047061.538     5790101.067 6   4562295.305 9  24047068.632
 94  3 22 23 41 30.0030000  0  7  7  2  9 26  4 13 27
  21601770.999   -15911604.031 7 -12276863.711 9  21601773.835
  22339915.311   -11939625.814 8  -9198650.156 9  22339918.921
  24560746.101    -3179604.023 6  -2333721.268 9  24560750.507
  24011670.046    -4810945.892 6  -3619477.946 9  24011674.757
  24038253.155    -5235436.699 6  -3968007.270 9  24038259.612
  22384797.913   -13671746.750 6 -10656124.022 9  22384803.190
  24068784.554     5904253.316 6   4651244.968 9  24068791.542
 94  3 22 23 42  0.0030000  0  7  7  2  9 26  4 13 27
  21609280.632   -15872140.074 7 -12246112.564 9  21609283.526
  22346205.358   -11906571.754 8  -9172893.742 9  22346208.851
  24544580.210    -3264554.802 6  -2399916.592 9  24544584.651
  24021278.944    -4760452.542 6  -3580132.523 9  24021283.819
  24021316.991    -5324438.083 6  -4037358.870 9  24021323.718
  22373766.179   -13729718.942 6 -10701297.093 9  22373771.397
  24090548.749     6018625.621 6   4740366.113 9  24090555.667
 94  3 22 23 42 30.0030000  0  7  7  2  9 26  4 13 27
  21616862.413   -15832298.882 7 -12215067.468 9  21616865.331
  22352535.530   -11873305.990 8  -9146972.364 9  22352539.233
  24528439.851    -3349372.071 6  -2466007.866 9  24528443.858
  24030966.093    -4709546.614 6  -3540465.609 9  24030971.214
  24004409.577    -5413286.653 6  -4106591.399 9  24004416.472
  22362830.671   -13787185.363 6 -10746076.057 9  22362835.870
  24112355.890     6133222.122 6   4829661.953 9  24112362.819
 94  3 22 23 43  0.0030000  0  7  7  2  9 26  4 13 27
  21624509.397   -15792112.828 7 -12183753.646 9  21624512.304
  22358909.030   -11839813.342 8  -9120874.195 9  22358912.651
  24512325.952    -3434051.871 6  -2531992.026 9  24512330.440
  24040730.897    -4658232.321 6  -3500480.488 9  24040735.585
  23987530.444    -5501984.407 6  -4175706.415 9  23987537.315
  22351991.718   -13844143.971 6 -10790459.322 9  22351997.050
  24134205.437     6248042.660 6   4919132.369 9  24134212.483
 94  3 22 23 43 30.0030000  0  7  7  2  9 26  4 13 27
  21632217.327   -15751606.290 7 -12152190.095 9  21632220.292
  22365322.569   -11806110.121 8  -9094611.938 9  22365326.038
  24496239.093    -3518586.501 6  -2597863.063 9  24496243.815
  24050569.280    -4606529.125 6  -3460192.319 9  24050573.991
  23970677.890    -5590546.503 6  -4244715.714 9  23970684.651
  22341247.601   -13900604.819 6 -10834454.722 9  22341252.714
  24156096.905     6363081.007 6   5008772.505 9  24156103.800
 94  3 22 23 44  0.0030000  0  7  7  2  9 26  4 13 27
  21639986.561   -15710780.033 7 -12120377.413 9  21639989.597
  22371770.647   -11772225.563 8  -9068208.382 9  22371774.151
  24480184.616    -3602954.742 6  -2663604.441 9  24480188.636
  24060482.366    -4554437.227 6  -3419601.275 9  24060487.265
  23953852.624    -5678963.339 6  -4313611.841 9  23953859.175
  22330598.546   -13956565.519 6 -10878060.394 9  22330603.757
  24178032.538     6478353.251 6   5098594.902 9  24178039.491
 94  3 22 23 44 30.0030000  0  7  7  2  9 26  4 13 27
  21647819.304   -15669618.561 7 -12088303.531 9  21647822.292
  22378252.905   -11738160.341 8  -9041664.048 9  22378256.526
  24464165.624    -3687132.795 6  -2729197.626 9  24464169.808
  24070468.327    -4501961.192 6  -3378710.908 9  24070473.038
  23937056.851    -5767225.188 6  -4382387.190 9  23937062.487
  22320046.186   -14012018.061 6 -10921270.096 9  22320051.382
  24200015.601     6593874.354 6   5188611.204 9  24200022.964
 94  3 22 23 45  0.0030000  0  7  7  2  9 26  4 13 27
  21655719.327   -15628102.814 7 -12055953.589 9  21655722.222
  22384768.101   -11703922.868 8  -9014985.497 9  22384771.651
  24448186.585    -3771104.091 6  -2794629.694 9  24448190.745
  24080524.522    -4449117.038 6  -3337533.690 9  24080529.362
  23920293.866    -5855314.629 6  -4451028.199 9  23920299.737
  22309590.358   -14066963.630 6 -10964084.754 9  22309595.405
  24222044.452     6709635.126 6   5278814.262 9  24222051.405
 94  3 22 23 45 30.0030000  0  7  7  2  9 26  4 13 27
  21663690.405   -15586214.208 7 -12023313.104 9  21663693.604
  22391314.757   -11669521.129 8  -8988178.947 9  22391318.331
  24432247.069    -3854865.006 6  -2859897.839 9  24432251.581
  24090649.546    -4395908.637 6  -3296072.646 9  24090654.304
  23903568.718    -5943205.523 6  -4519514.483 9  23903574.062
  22299231.179   -14121401.475 6 -11006503.782 9  22299236.233
  24244118.460     6825634.227 6   5369203.036 9  24244125.437
 94  3 22 23 46  0.0030000  0  7  7  2  9 26  4 13 27
  21671733.999   -15543945.560 7 -11990376.483 9  21671737.163
  22397892.429   -11634955.258 8  -8961244.498 9  22397895.851
  24416348.140    -3938415.665 6  -2925002.133 9  24416352.358
  24100846.726    -4342322.189 6  -3254317.023 9  24100851.729
  23886883.741    -6030884.640 6  -4587835.748 9  23886889.085
  22288969.335   -14175327.570 6 -11048524.047 9  22288974.464
  24266236.663     6941867.117 6   5459773.987 9  24266243.687
 94  3 22 23 46 30.0030000  0  7  7  2  9 26  4 13 27
  21679849.030   -15501300.539 7 -11957146.586 9  21679852.229
  22404505.929   -11600201.351 8  -8934163.528 9  22404509.280
  24400485.226    -4021774.841 6  -2989957.245 9  24400489.960
  24111113.077    -4288370.052 6  -3212276.449 9  24111118.187
  23870237.788    -6118359.559 6  -4655997.909 9  23870243.378
  22278803.569   -14228748.681 6 -11090150.814 9  22278808.577
  24288398.093     7058323.852 6   5550519.358 9  24288405.667
 94  3 22 23 47  0.0030000  0  7  7  2  9 26  4 13 27
  21688032.491   -15458294.350 7 -11923635.257 9  21688035.667
  22411158.085   -11565243.400 8  -8906923.567 9  22411161.495
  24384657.304    -4104949.610 6  -3054768.660 9  24384661.581
  24121452.265    -4234038.456 6  -3169940.198 9  24121457.561
  23853633.929    -6205612.683 6  -4723987.229 9  23853639.284
  22268735.382   -14281656.693 6 -11131377.767 9  22268740.479
  24310600.546     7174999.250 6   5641435.117 9  24310607.296
 94  3 22 23 47 30.0030000  0  7  7  2  9 26  4 13 27
  21696280.702   -15414951.076 7 -11889861.267 9  21696283.925
  22417849.851   -11530078.413 8  -8879522.277 9  22417853.354
  24368861.866    -4187956.342 6  -3119449.156 9  24368866.249
  24131865.999    -4179314.325 6  -3127298.066 9  24131871.226
  23837070.452    -6292653.908 6  -4791811.434 9  23837075.983
  22258765.163   -14334050.626 6 -11172204.145 9  22258770.108
  24332844.804     7291892.788 6   5732520.852 9  24332851.792
 94  3 22 23 48  0.0030000  0  7  7  2  9 26  4 13 27
  21704591.538   -15371277.324 7 -11855829.758 9  21704594.561
  22424581.296   -11494703.593 8  -8851957.481 9  22424584.741
  24353097.124    -4270800.563 6  -3184003.021 9  24353101.190
  24142351.718    -4124211.589 6  -3084360.915 9  24142356.569
  23820542.757    -6379507.392 6  -4859489.351 9  23820548.335
  22248891.468   -14385937.536 6 -11212635.433 9  22248896.296
  24355127.733     7408991.795 6   5823766.683 9  24355135.167
 94  3 22 23 48 30.0030000  0  7  7  2  9 26  4 13 27
  21712962.085   -15327289.646 7 -11821553.635 9  21712965.202
  22431354.999   -11459108.763 8  -8824221.249 9  22431358.269
  24337363.835    -4353479.376 6  -3248428.009 9  24337367.702
  24152906.077    -4068748.958 6  -3041143.330 9  24152910.882
  23804049.890    -6466178.115 6  -4927024.848 9  23804055.339
  22239114.319   -14437316.534 6 -11252670.952 9  22239119.097
  24377449.069     7526290.208 6   5915167.903 9  24377456.011
 94  3 22 23 49  0.0030000  0  7  7  2  9 26  4 13 27
  21721391.835   -15282990.794 7 -11787035.043 9  21721394.940
  22438167.171   -11423309.689 8  -8796325.862 9  22438170.429
  24321666.233    -4435971.229 6  -3312707.310 9  24321669.515
  24163529.616    -4012921.928 6  -2997641.793 9  24163534.526
  23787592.905    -6552658.879 6  -4994412.329 9  23787598.343
  22229434.866   -14488181.883 6 -11292306.223 9  22229439.601
  24399809.429     7643793.115 6   6006728.464 9  24399816.874
 94  3 22 23 49 30.0030000  0  7  7  2  9 26  4 13 27
  21729881.491   -15238377.819 7 -11752271.676 9  21729884.538
  22445014.233   -11387328.538 8  -8768288.600 9  22445017.421
  24306001.976    -4518288.184 6  -3376850.323 9  24306005.737
  24174217.772    -3956755.666 6  -2953875.925 9  24174222.753
  23771166.851    -6638977.766 6  -5061673.671 9  23771172.101
  22219849.968   -14538550.661 6 -11331554.556 9  22219854.694
  24422205.233     7761483.762 5   6098435.309 9  24422212.702
 94  3 22 23 50  0.0030000  0  7  7  2  9 26  4 13 27
  21738433.585   -15193436.693 7 -11717252.606 9  21738436.597
  22451899.140   -11351148.721 8  -8740096.532 9  22451902.409
  24290373.741    -4600413.028 6  -3440843.653 9  24290377.046
  24184970.155    -3900249.648 6  -2909845.315 9  24184974.972
  23754776.007    -6725113.727 6  -5128792.471 9  23754781.069
  22210361.624   -14588411.433 6 -11370407.035 9  22210366.519
  24444639.187     7879377.082 5   6190300.078 9  24444646.679
 94  3 22 23 50 30.0030000  0  7  7  2  9 26  4 13 27
  21747043.890   -15148189.348 7 -11681994.922 9  21747046.936
  22458817.913   -11314790.203 8  -8711765.214 9  22458821.101
  24274780.491    -4682355.498 6  -3504694.853 9  24274784.452
  24195785.054    -3843418.010 6  -2865560.970 9  24195789.952
  23738421.608    -6811056.874 6  -5195761.025 9  23738426.882
  22200967.632   -14637776.745 6 -11408873.448 9  22200972.444
  24467108.921     7997454.912 5   6282308.643 9  24467116.683
